<?xml version="1.0" encoding="UTF-8"?>
<gpx version="1.1" creator="https://www.youtrack.es" xsi:schemaLocation="http://www.topografix.com/GPX/1/1 http://www.topografix.com/GPX/1/1/gpx.xsd http://www.garmin.com/xmlschemas/GpxExtensions/v3 http://www.garmin.com/xmlschemas/GpxExtensionsv3.xsd http://www.garmin.com/xmlschemas/TrackPointExtension/v1 http://www.garmin.com/xmlschemas/TrackPointExtensionv1.xsd" xmlns:gpxtpx="http://www.garmin.com/xmlschemas/TrackPointExtension/v1" xmlns:gpxx="http://www.garmin.com/xmlschemas/GpxExtensions/v3" xmlns:xsi="http://www.w3.org/2001/XMLSchema-instance">
  <metadata>
    <link href="https://www.youtrack.es">
      <text>YouTrack.es</text>
    </link>
    <time>2026-05-08T14:31:15Z</time>
  </metadata>
  <trk>
    <src>https://www.youtrack.es</src>
    <link href="https://www.youtrack.es/ruta/17673-improve">
      <text>YouTrack.es</text>
    </link>
    <trkseg>
      <trkpt lat="41.42287605442106723785400390625" lon="-8.4587157703936100006103515625">
        <ele>256.20001220703125</ele>
        <time>2020-11-25T15:39:28.000Z</time>
      </trkpt>
      <trkpt lat="41.4228794910013675689697265625" lon="-8.458724655210971832275390625">
        <ele>257.20001220703125</ele>
        <time>2020-11-25T15:39:31.000Z</time>
      </trkpt>
      <trkpt lat="41.42288007773458957672119140625" lon="-8.4587362222373485565185546875">
        <ele>257.399993896484375</ele>
        <time>2020-11-25T15:39:32.000Z</time>
      </trkpt>
      <trkpt lat="41.4228882081806659698486328125" lon="-8.45875994302332401275634765625">
        <ele>258</ele>
        <time>2020-11-25T15:39:34.000Z</time>
      </trkpt>
      <trkpt lat="41.422897763550281524658203125" lon="-8.45878357999026775360107421875">
        <ele>258.79998779296875</ele>
        <time>2020-11-25T15:39:36.000Z</time>
      </trkpt>
      <trkpt lat="41.4229120127856731414794921875" lon="-8.458833955228328704833984375">
        <ele>259.79998779296875</ele>
        <time>2020-11-25T15:39:40.000Z</time>
      </trkpt>
      <trkpt lat="41.4229163713753223419189453125" lon="-8.45887812785804271697998046875">
        <ele>261</ele>
        <time>2020-11-25T15:39:43.000Z</time>
      </trkpt>
      <trkpt lat="41.42292852513492107391357421875" lon="-8.4589447639882564544677734375">
        <ele>262.20001220703125</ele>
        <time>2020-11-25T15:39:47.000Z</time>
      </trkpt>
      <trkpt lat="41.42296381294727325439453125" lon="-8.45903671346604824066162109375">
        <ele>263.399993896484375</ele>
        <time>2020-11-25T15:39:53.000Z</time>
      </trkpt>
      <trkpt lat="41.42299256287515163421630859375" lon="-8.45908331684768199920654296875">
        <ele>264.399993896484375</ele>
        <time>2020-11-25T15:39:57.000Z</time>
      </trkpt>
      <trkpt lat="41.42300932668149471282958984375" lon="-8.45912774093449115753173828125">
        <ele>265.20001220703125</ele>
        <time>2020-11-25T15:40:00.000Z</time>
      </trkpt>
      <trkpt lat="41.4230142720043659210205078125" lon="-8.459143750369548797607421875">
        <ele>265.600006103515625</ele>
        <time>2020-11-25T15:40:01.000Z</time>
      </trkpt>
      <trkpt lat="41.42301921732723712921142578125" lon="-8.45918591134250164031982421875">
        <ele>266.600006103515625</ele>
        <time>2020-11-25T15:40:04.000Z</time>
      </trkpt>
      <trkpt lat="41.42302089370787143707275390625" lon="-8.4592957980930805206298828125">
        <ele>267.79998779296875</ele>
        <time>2020-11-25T15:40:11.000Z</time>
      </trkpt>
      <trkpt lat="41.42303715460002422332763671875" lon="-8.45939847640693187713623046875">
        <ele>268.79998779296875</ele>
        <time>2020-11-25T15:40:17.000Z</time>
      </trkpt>
      <trkpt lat="41.42305928282439708709716796875" lon="-8.45947039313614368438720703125">
        <ele>270</ele>
        <time>2020-11-25T15:40:22.000Z</time>
      </trkpt>
      <trkpt lat="41.423082835972309112548828125" lon="-8.45954465679824352264404296875">
        <ele>271</ele>
        <time>2020-11-25T15:40:27.000Z</time>
      </trkpt>
      <trkpt lat="41.42309918068349361419677734375" lon="-8.45959863625466823577880859375">
        <ele>272</ele>
        <time>2020-11-25T15:40:31.000Z</time>
      </trkpt>
      <trkpt lat="41.42311996780335903167724609375" lon="-8.45966837368905544281005859375">
        <ele>273.20001220703125</ele>
        <time>2020-11-25T15:40:36.000Z</time>
      </trkpt>
      <trkpt lat="41.4231359772384166717529296875" lon="-8.4597246162593364715576171875">
        <ele>274.399993896484375</ele>
        <time>2020-11-25T15:40:40.000Z</time>
      </trkpt>
      <trkpt lat="41.42316036857664585113525390625" lon="-8.459788151085376739501953125">
        <ele>275.399993896484375</ele>
        <time>2020-11-25T15:40:44.000Z</time>
      </trkpt>
      <trkpt lat="41.42317646183073520660400390625" lon="-8.459845148026943206787109375">
        <ele>276.600006103515625</ele>
        <time>2020-11-25T15:40:48.000Z</time>
      </trkpt>
      <trkpt lat="41.42318702302873134613037109375" lon="-8.45990072004497051239013671875">
        <ele>277.600006103515625</ele>
        <time>2020-11-25T15:40:52.000Z</time>
      </trkpt>
      <trkpt lat="41.42321619205176830291748046875" lon="-8.4599566273391246795654296875">
        <ele>278.79998779296875</ele>
        <time>2020-11-25T15:40:56.000Z</time>
      </trkpt>
      <trkpt lat="41.42323530279099941253662109375" lon="-8.4600340761244297027587890625">
        <ele>280</ele>
        <time>2020-11-25T15:41:00.000Z</time>
      </trkpt>
      <trkpt lat="41.4232449419796466827392578125" lon="-8.46007456071674823760986328125">
        <ele>280.399993896484375</ele>
        <time>2020-11-25T15:41:02.000Z</time>
      </trkpt>
      <trkpt lat="41.42325726337730884552001953125" lon="-8.460110686719417572021484375">
        <ele>281</ele>
        <time>2020-11-25T15:41:04.000Z</time>
      </trkpt>
      <trkpt lat="41.4233005978167057037353515625" lon="-8.46022811718285083770751953125">
        <ele>282.20001220703125</ele>
        <time>2020-11-25T15:41:10.000Z</time>
      </trkpt>
      <trkpt lat="41.4233078062534332275390625" lon="-8.46024580299854278564453125">
        <ele>282.600006103515625</ele>
        <time>2020-11-25T15:41:11.000Z</time>
      </trkpt>
      <trkpt lat="41.4233171939849853515625" lon="-8.4603381715714931488037109375">
        <ele>282.20001220703125</ele>
        <time>2020-11-25T15:41:28.000Z</time>
      </trkpt>
      <trkpt lat="41.4233143441379070281982421875" lon="-8.46034361980855464935302734375">
        <ele>282.20001220703125</ele>
        <time>2020-11-25T15:41:29.000Z</time>
      </trkpt>
      <trkpt lat="41.42328944988548755645751953125" lon="-8.46036490984261035919189453125">
        <ele>282.20001220703125</ele>
        <time>2020-11-25T15:41:31.000Z</time>
      </trkpt>
      <trkpt lat="41.42313069663941860198974609375" lon="-8.4604535065591335296630859375">
        <ele>283.20001220703125</ele>
        <time>2020-11-25T15:41:38.000Z</time>
      </trkpt>
      <trkpt lat="41.42310622148215770721435546875" lon="-8.46046331338584423065185546875">
        <ele>283.600006103515625</ele>
        <time>2020-11-25T15:41:39.000Z</time>
      </trkpt>
      <trkpt lat="41.4229351468384265899658203125" lon="-8.46053271554410457611083984375">
        <ele>284.79998779296875</ele>
        <time>2020-11-25T15:41:46.000Z</time>
      </trkpt>
      <trkpt lat="41.42274948768317699432373046875" lon="-8.4605691768229007720947265625">
        <ele>285.600006103515625</ele>
        <time>2020-11-25T15:41:54.000Z</time>
      </trkpt>
      <trkpt lat="41.4226374216377735137939453125" lon="-8.46056322567164897918701171875">
        <ele>285.79998779296875</ele>
        <time>2020-11-25T15:41:59.000Z</time>
      </trkpt>
      <trkpt lat="41.42261738888919353485107421875" lon="-8.4605732001364231109619140625">
        <ele>285.79998779296875</ele>
        <time>2020-11-25T15:42:00.000Z</time>
      </trkpt>
      <trkpt lat="41.42254496924579143524169921875" lon="-8.46063279546797275543212890625">
        <ele>287</ele>
        <time>2020-11-25T15:42:05.000Z</time>
      </trkpt>
      <trkpt lat="41.422523595392704010009765625" lon="-8.46066313795745372772216796875">
        <ele>287</ele>
        <time>2020-11-25T15:42:07.000Z</time>
      </trkpt>
      <trkpt lat="41.4225165545940399169921875" lon="-8.4607029519975185394287109375">
        <ele>288</ele>
        <time>2020-11-25T15:42:09.000Z</time>
      </trkpt>
      <trkpt lat="41.4224818535149097442626953125" lon="-8.46074477769434452056884765625">
        <ele>289</ele>
        <time>2020-11-25T15:42:13.000Z</time>
      </trkpt>
      <trkpt lat="41.42245980910956859588623046875" lon="-8.46079456619918346405029296875">
        <ele>290</ele>
        <time>2020-11-25T15:42:16.000Z</time>
      </trkpt>
      <trkpt lat="41.42248562537133693695068359375" lon="-8.46085868775844573974609375">
        <ele>290.600006103515625</ele>
        <time>2020-11-25T15:42:19.000Z</time>
      </trkpt>
      <trkpt lat="41.42250758595764636993408203125" lon="-8.460914678871631622314453125">
        <ele>290.600006103515625</ele>
        <time>2020-11-25T15:42:22.000Z</time>
      </trkpt>
      <trkpt lat="41.42253600060939788818359375" lon="-8.46097712405025959014892578125">
        <ele>290.79998779296875</ele>
        <time>2020-11-25T15:42:26.000Z</time>
      </trkpt>
      <trkpt lat="41.42242527566850185394287109375" lon="-8.4611679799854755401611328125">
        <ele>290.399993896484375</ele>
        <time>2020-11-25T15:42:34.000Z</time>
      </trkpt>
      <trkpt lat="41.4223282970488071441650390625" lon="-8.46137006767094135284423828125">
        <ele>289.600006103515625</ele>
        <time>2020-11-25T15:42:41.000Z</time>
      </trkpt>
      <trkpt lat="41.42226199619472026824951171875" lon="-8.46161230467259883880615234375">
        <ele>290.79998779296875</ele>
        <time>2020-11-25T15:42:50.000Z</time>
      </trkpt>
      <trkpt lat="41.4222349226474761962890625" lon="-8.4616782702505588531494140625">
        <ele>290.79998779296875</ele>
        <time>2020-11-25T15:42:53.000Z</time>
      </trkpt>
      <trkpt lat="41.4222337491810321807861328125" lon="-8.461785055696964263916015625">
        <ele>290.600006103515625</ele>
        <time>2020-11-25T15:43:01.000Z</time>
      </trkpt>
      <trkpt lat="41.422233246266841888427734375" lon="-8.4617895819246768951416015625">
        <ele>291</ele>
        <time>2020-11-25T15:43:02.000Z</time>
      </trkpt>
      <trkpt lat="41.42223064787685871124267578125" lon="-8.46179352141916751861572265625">
        <ele>290.600006103515625</ele>
        <time>2020-11-25T15:43:04.000Z</time>
      </trkpt>
      <trkpt lat="41.422227211296558380126953125" lon="-8.4618026576936244964599609375">
        <ele>290.20001220703125</ele>
        <time>2020-11-25T15:43:06.000Z</time>
      </trkpt>
      <trkpt lat="41.42222360707819461822509765625" lon="-8.4618398733437061309814453125">
        <ele>288.600006103515625</ele>
        <time>2020-11-25T15:43:11.000Z</time>
      </trkpt>
      <trkpt lat="41.4222186617553234100341796875" lon="-8.4618772566318511962890625">
        <ele>288</ele>
        <time>2020-11-25T15:43:14.000Z</time>
      </trkpt>
      <trkpt lat="41.42221656627953052520751953125" lon="-8.46188907511532306671142578125">
        <ele>287.600006103515625</ele>
        <time>2020-11-25T15:43:15.000Z</time>
      </trkpt>
      <trkpt lat="41.42221338115632534027099609375" lon="-8.46194137819111347198486328125">
        <ele>286.399993896484375</ele>
        <time>2020-11-25T15:43:19.000Z</time>
      </trkpt>
      <trkpt lat="41.4222357608377933502197265625" lon="-8.46201245673000812530517578125">
        <ele>286.79998779296875</ele>
        <time>2020-11-25T15:43:23.000Z</time>
      </trkpt>
      <trkpt lat="41.42227188684046268463134765625" lon="-8.46206526271998882293701171875">
        <ele>287.399993896484375</ele>
        <time>2020-11-25T15:43:26.000Z</time>
      </trkpt>
      <trkpt lat="41.4222733117640018463134765625" lon="-8.46220172010362148284912109375">
        <ele>287.600006103515625</ele>
        <time>2020-11-25T15:43:32.000Z</time>
      </trkpt>
      <trkpt lat="41.4222957752645015716552734375" lon="-8.46233130432665348052978515625">
        <ele>288.399993896484375</ele>
        <time>2020-11-25T15:43:38.000Z</time>
      </trkpt>
      <trkpt lat="41.4222887344658374786376953125" lon="-8.4623841941356658935546875">
        <ele>288.399993896484375</ele>
        <time>2020-11-25T15:43:41.000Z</time>
      </trkpt>
      <trkpt lat="41.4222937636077404022216796875" lon="-8.4623950906097888946533203125">
        <ele>288.600006103515625</ele>
        <time>2020-11-25T15:43:42.000Z</time>
      </trkpt>
      <trkpt lat="41.422294937074184417724609375" lon="-8.46240657381713390350341796875">
        <ele>288.600006103515625</ele>
        <time>2020-11-25T15:43:43.000Z</time>
      </trkpt>
      <trkpt lat="41.42227591015398502349853515625" lon="-8.46244429238140583038330078125">
        <ele>287.600006103515625</ele>
        <time>2020-11-25T15:43:46.000Z</time>
      </trkpt>
      <trkpt lat="41.42221539281308650970458984375" lon="-8.46252911724150180816650390625">
        <ele>286.20001220703125</ele>
        <time>2020-11-25T15:43:54.000Z</time>
      </trkpt>
      <trkpt lat="41.42221019603312015533447265625" lon="-8.46253984607756137847900390625">
        <ele>286</ele>
        <time>2020-11-25T15:43:56.000Z</time>
      </trkpt>
      <trkpt lat="41.42218840308487415313720703125" lon="-8.462548814713954925537109375">
        <ele>285.20001220703125</ele>
        <time>2020-11-25T15:43:58.000Z</time>
      </trkpt>
      <trkpt lat="41.42218002118170261383056640625" lon="-8.46255719661712646484375">
        <ele>285</ele>
        <time>2020-11-25T15:43:59.000Z</time>
      </trkpt>
      <trkpt lat="41.422155797481536865234375" lon="-8.4625945799052715301513671875">
        <ele>284</ele>
        <time>2020-11-25T15:44:02.000Z</time>
      </trkpt>
      <trkpt lat="41.42212470062077045440673828125" lon="-8.462642021477222442626953125">
        <ele>283.20001220703125</ele>
        <time>2020-11-25T15:44:06.000Z</time>
      </trkpt>
      <trkpt lat="41.4221187494695186614990234375" lon="-8.46264797262847423553466796875">
        <ele>283</ele>
        <time>2020-11-25T15:44:07.000Z</time>
      </trkpt>
      <trkpt lat="41.4221117086708545684814453125" lon="-8.46265316940844058990478515625">
        <ele>282.79998779296875</ele>
        <time>2020-11-25T15:44:08.000Z</time>
      </trkpt>
      <trkpt lat="41.422104500234127044677734375" lon="-8.46265316940844058990478515625">
        <ele>282.600006103515625</ele>
        <time>2020-11-25T15:44:09.000Z</time>
      </trkpt>
      <trkpt lat="41.422078348696231842041015625" lon="-8.4626408480107784271240234375">
        <ele>281.600006103515625</ele>
        <time>2020-11-25T15:44:11.000Z</time>
      </trkpt>
      <trkpt lat="41.422068290412425994873046875" lon="-8.462640009820461273193359375">
        <ele>281.399993896484375</ele>
        <time>2020-11-25T15:44:12.000Z</time>
      </trkpt>
      <trkpt lat="41.4220563881099224090576171875" lon="-8.46264746971428394317626953125">
        <ele>281.20001220703125</ele>
        <time>2020-11-25T15:44:14.000Z</time>
      </trkpt>
      <trkpt lat="41.42204356379806995391845703125" lon="-8.4626710228621959686279296875">
        <ele>281</ele>
        <time>2020-11-25T15:44:18.000Z</time>
      </trkpt>
      <trkpt lat="41.4220396243035793304443359375" lon="-8.462673537433147430419921875">
        <ele>280.79998779296875</ele>
        <time>2020-11-25T15:44:19.000Z</time>
      </trkpt>
      <trkpt lat="41.422038115561008453369140625" lon="-8.4626800753176212310791015625">
        <ele>280.399993896484375</ele>
        <time>2020-11-25T15:44:20.000Z</time>
      </trkpt>
      <trkpt lat="41.42203434370458126068115234375" lon="-8.462684936821460723876953125">
        <ele>280.20001220703125</ele>
        <time>2020-11-25T15:44:21.000Z</time>
      </trkpt>
      <trkpt lat="41.4220299012959003448486328125" lon="-8.46269692294299602508544921875">
        <ele>279.79998779296875</ele>
        <time>2020-11-25T15:44:23.000Z</time>
      </trkpt>
      <trkpt lat="41.4220262132585048675537109375" lon="-8.46270480193197727203369140625">
        <ele>279.600006103515625</ele>
        <time>2020-11-25T15:44:25.000Z</time>
      </trkpt>
      <trkpt lat="41.42202294431626796722412109375" lon="-8.4627102501690387725830078125">
        <ele>279.399993896484375</ele>
        <time>2020-11-25T15:44:26.000Z</time>
      </trkpt>
      <trkpt lat="41.42202093265950679779052734375" lon="-8.4627149440348148345947265625">
        <ele>278.79998779296875</ele>
        <time>2020-11-25T15:44:27.000Z</time>
      </trkpt>
      <trkpt lat="41.42201774753630161285400390625" lon="-8.462721146643161773681640625">
        <ele>278.79998779296875</ele>
        <time>2020-11-25T15:44:28.000Z</time>
      </trkpt>
      <trkpt lat="41.422007940709590911865234375" lon="-8.462742604315280914306640625">
        <ele>277.79998779296875</ele>
        <time>2020-11-25T15:44:30.000Z</time>
      </trkpt>
      <trkpt lat="41.4219916798174381256103515625" lon="-8.46279247663915157318115234375">
        <ele>277.399993896484375</ele>
        <time>2020-11-25T15:44:41.000Z</time>
      </trkpt>
      <trkpt lat="41.42198874615132808685302734375" lon="-8.46279633231461048126220703125">
        <ele>277.600006103515625</ele>
        <time>2020-11-25T15:44:43.000Z</time>
      </trkpt>
      <trkpt lat="41.4219653606414794921875" lon="-8.4627972543239593505859375">
        <ele>276.79998779296875</ele>
        <time>2020-11-25T15:44:50.000Z</time>
      </trkpt>
      <trkpt lat="41.42196259461343288421630859375" lon="-8.46280395984649658203125">
        <ele>276.600006103515625</ele>
        <time>2020-11-25T15:44:52.000Z</time>
      </trkpt>
      <trkpt lat="41.42196745611727237701416015625" lon="-8.46281108446419239044189453125">
        <ele>276.20001220703125</ele>
        <time>2020-11-25T15:44:55.000Z</time>
      </trkpt>
      <trkpt lat="41.42199092544615268707275390625" lon="-8.4628299437463283538818359375">
        <ele>276.79998779296875</ele>
        <time>2020-11-25T15:44:59.000Z</time>
      </trkpt>
      <trkpt lat="41.42199360765516757965087890625" lon="-8.4628457017242908477783203125">
        <ele>276.399993896484375</ele>
        <time>2020-11-25T15:45:02.000Z</time>
      </trkpt>
      <trkpt lat="41.4219826273620128631591796875" lon="-8.4628594480454921722412109375">
        <ele>275.79998779296875</ele>
        <time>2020-11-25T15:45:05.000Z</time>
      </trkpt>
      <trkpt lat="41.42197248525917530059814453125" lon="-8.4628669917583465576171875">
        <ele>275.399993896484375</ele>
        <time>2020-11-25T15:45:07.000Z</time>
      </trkpt>
      <trkpt lat="41.42194029875099658966064453125" lon="-8.4629144333302974700927734375">
        <ele>274.20001220703125</ele>
        <time>2020-11-25T15:45:13.000Z</time>
      </trkpt>
      <trkpt lat="41.42192604951560497283935546875" lon="-8.46293874084949493408203125">
        <ele>273.20001220703125</ele>
        <time>2020-11-25T15:45:18.000Z</time>
      </trkpt>
      <trkpt lat="41.42189470119774341583251953125" lon="-8.46295776776969432830810546875">
        <ele>272.20001220703125</ele>
        <time>2020-11-25T15:45:24.000Z</time>
      </trkpt>
      <trkpt lat="41.42187810502946376800537109375" lon="-8.46297872252762317657470703125">
        <ele>271.20001220703125</ele>
        <time>2020-11-25T15:45:29.000Z</time>
      </trkpt>
      <trkpt lat="41.42187215387821197509765625" lon="-8.4629938937723636627197265625">
        <ele>271</ele>
        <time>2020-11-25T15:45:31.000Z</time>
      </trkpt>
      <trkpt lat="41.42186838202178478240966796875" lon="-8.46301359124481678009033203125">
        <ele>270.20001220703125</ele>
        <time>2020-11-25T15:45:34.000Z</time>
      </trkpt>
      <trkpt lat="41.42187215387821197509765625" lon="-8.46302851103246212005615234375">
        <ele>270</ele>
        <time>2020-11-25T15:45:36.000Z</time>
      </trkpt>
      <trkpt lat="41.421866118907928466796875" lon="-8.4630508907139301300048828125">
        <ele>269.600006103515625</ele>
        <time>2020-11-25T15:45:38.000Z</time>
      </trkpt>
      <trkpt lat="41.42185748554766178131103515625" lon="-8.4630710072815418243408203125">
        <ele>269</ele>
        <time>2020-11-25T15:45:41.000Z</time>
      </trkpt>
      <trkpt lat="41.42182982526719570159912109375" lon="-8.46317133866250514984130859375">
        <ele>267.79998779296875</ele>
        <time>2020-11-25T15:45:52.000Z</time>
      </trkpt>
      <trkpt lat="41.4218273945152759552001953125" lon="-8.4631833247840404510498046875">
        <ele>267.79998779296875</ele>
        <time>2020-11-25T15:45:54.000Z</time>
      </trkpt>
      <trkpt lat="41.4218166656792163848876953125" lon="-8.46321660093963146209716796875">
        <ele>267.20001220703125</ele>
        <time>2020-11-25T15:45:58.000Z</time>
      </trkpt>
      <trkpt lat="41.42181222327053546905517578125" lon="-8.463225066661834716796875">
        <ele>266.79998779296875</ele>
        <time>2020-11-25T15:45:59.000Z</time>
      </trkpt>
      <trkpt lat="41.421808116137981414794921875" lon="-8.46323470585048198699951171875">
        <ele>266.399993896484375</ele>
        <time>2020-11-25T15:46:00.000Z</time>
      </trkpt>
      <trkpt lat="41.42178858630359172821044921875" lon="-8.46325633116066455841064453125">
        <ele>265.600006103515625</ele>
        <time>2020-11-25T15:46:03.000Z</time>
      </trkpt>
      <trkpt lat="41.4217496104538440704345703125" lon="-8.4632845781743526458740234375">
        <ele>264.399993896484375</ele>
        <time>2020-11-25T15:46:10.000Z</time>
      </trkpt>
      <trkpt lat="41.42174365930259227752685546875" lon="-8.46335389651358127593994140625">
        <ele>263.79998779296875</ele>
        <time>2020-11-25T15:46:16.000Z</time>
      </trkpt>
      <trkpt lat="41.42180912196636199951171875" lon="-8.46349420957267284393310546875">
        <ele>265.20001220703125</ele>
        <time>2020-11-25T15:46:23.000Z</time>
      </trkpt>
      <trkpt lat="41.4218176715075969696044921875" lon="-8.463513739407062530517578125">
        <ele>265.399993896484375</ele>
        <time>2020-11-25T15:46:24.000Z</time>
      </trkpt>
      <trkpt lat="41.42182446084916591644287109375" lon="-8.46356109715998172760009765625">
        <ele>265.79998779296875</ele>
        <time>2020-11-25T15:46:26.000Z</time>
      </trkpt>
      <trkpt lat="41.421824879944324493408203125" lon="-8.4636141546070575714111328125">
        <ele>265.600006103515625</ele>
        <time>2020-11-25T15:46:28.000Z</time>
      </trkpt>
      <trkpt lat="41.42179763875901699066162109375" lon="-8.46370451152324676513671875">
        <ele>264.600006103515625</ele>
        <time>2020-11-25T15:46:31.000Z</time>
      </trkpt>
      <trkpt lat="41.42178204841911792755126953125" lon="-8.46373577602207660675048828125">
        <ele>264.399993896484375</ele>
        <time>2020-11-25T15:46:32.000Z</time>
      </trkpt>
      <trkpt lat="41.4216895960271358489990234375" lon="-8.46386049874126911163330078125">
        <ele>263.399993896484375</ele>
        <time>2020-11-25T15:46:38.000Z</time>
      </trkpt>
      <trkpt lat="41.42166428267955780029296875" lon="-8.46388698555529117584228515625">
        <ele>263.399993896484375</ele>
        <time>2020-11-25T15:46:40.000Z</time>
      </trkpt>
      <trkpt lat="41.42161072231829166412353515625" lon="-8.463973067700862884521484375">
        <ele>262.600006103515625</ele>
        <time>2020-11-25T15:46:45.000Z</time>
      </trkpt>
      <trkpt lat="41.421599574387073516845703125" lon="-8.46398455090820789337158203125">
        <ele>262.20001220703125</ele>
        <time>2020-11-25T15:46:46.000Z</time>
      </trkpt>
      <trkpt lat="41.4215336926281452178955078125" lon="-8.46403165720403194427490234375">
        <ele>260.79998779296875</ele>
        <time>2020-11-25T15:46:51.000Z</time>
      </trkpt>
      <trkpt lat="41.421474851667881011962890625" lon="-8.4640594013035297393798828125">
        <ele>259.600006103515625</ele>
        <time>2020-11-25T15:46:56.000Z</time>
      </trkpt>
      <trkpt lat="41.42137485556304454803466796875" lon="-8.46414439380168914794921875">
        <ele>258.600006103515625</ele>
        <time>2020-11-25T15:47:02.000Z</time>
      </trkpt>
      <trkpt lat="41.42129606567323207855224609375" lon="-8.464284874498844146728515625">
        <ele>257.79998779296875</ele>
        <time>2020-11-25T15:47:08.000Z</time>
      </trkpt>
      <trkpt lat="41.4211870171129703521728515625" lon="-8.464473970234394073486328125">
        <ele>258.600006103515625</ele>
        <time>2020-11-25T15:47:16.000Z</time>
      </trkpt>
      <trkpt lat="41.42113463021814823150634765625" lon="-8.464603722095489501953125">
        <ele>259.20001220703125</ele>
        <time>2020-11-25T15:47:23.000Z</time>
      </trkpt>
      <trkpt lat="41.42111241817474365234375" lon="-8.4646159596741199493408203125">
        <ele>258</ele>
        <time>2020-11-25T15:47:26.000Z</time>
      </trkpt>
      <trkpt lat="41.42107696272432804107666015625" lon="-8.46462341956794261932373046875">
        <ele>257.399993896484375</ele>
        <time>2020-11-25T15:47:29.000Z</time>
      </trkpt>
      <trkpt lat="41.42102658748626708984375" lon="-8.46461520530283451080322265625">
        <ele>256.20001220703125</ele>
        <time>2020-11-25T15:47:32.000Z</time>
      </trkpt>
      <trkpt lat="41.4209930598735809326171875" lon="-8.4645968489348888397216796875">
        <ele>255.399993896484375</ele>
        <time>2020-11-25T15:47:34.000Z</time>
      </trkpt>
      <trkpt lat="41.42097587697207927703857421875" lon="-8.46458268351852893829345703125">
        <ele>255</ele>
        <time>2020-11-25T15:47:35.000Z</time>
      </trkpt>
      <trkpt lat="41.42092541791498661041259765625" lon="-8.46454764716327190399169921875">
        <ele>253.399993896484375</ele>
        <time>2020-11-25T15:47:38.000Z</time>
      </trkpt>
      <trkpt lat="41.4208785630762577056884765625" lon="-8.46452032215893268585205078125">
        <ele>252.1999969482421875</ele>
        <time>2020-11-25T15:47:41.000Z</time>
      </trkpt>
      <trkpt lat="41.42081201076507568359375" lon="-8.46453507430851459503173828125">
        <ele>251</ele>
        <time>2020-11-25T15:47:45.000Z</time>
      </trkpt>
      <trkpt lat="41.4207330532371997833251953125" lon="-8.4645438753068447113037109375">
        <ele>249.600006103515625</ele>
        <time>2020-11-25T15:47:50.000Z</time>
      </trkpt>
      <trkpt lat="41.4206720329821109771728515625" lon="-8.46453457139432430267333984375">
        <ele>248.399993896484375</ele>
        <time>2020-11-25T15:47:54.000Z</time>
      </trkpt>
      <trkpt lat="41.4205915667116641998291015625" lon="-8.464542366564273834228515625">
        <ele>247.1999969482421875</ele>
        <time>2020-11-25T15:47:58.000Z</time>
      </trkpt>
      <trkpt lat="41.42047874629497528076171875" lon="-8.46458067186176776885986328125">
        <ele>246.1999969482421875</ele>
        <time>2020-11-25T15:48:03.000Z</time>
      </trkpt>
      <trkpt lat="41.42035980708897113800048828125" lon="-8.464687876403331756591796875">
        <ele>245</ele>
        <time>2020-11-25T15:48:09.000Z</time>
      </trkpt>
      <trkpt lat="41.4202878065407276153564453125" lon="-8.46476876176893711090087890625">
        <ele>243.8000030517578125</ele>
        <time>2020-11-25T15:48:14.000Z</time>
      </trkpt>
      <trkpt lat="41.4202120341360569000244140625" lon="-8.4648037143051624298095703125">
        <ele>242.8000030517578125</ele>
        <time>2020-11-25T15:48:18.000Z</time>
      </trkpt>
      <trkpt lat="41.42012343741953372955322265625" lon="-8.46487705595791339874267578125">
        <ele>241.600006103515625</ele>
        <time>2020-11-25T15:48:22.000Z</time>
      </trkpt>
      <trkpt lat="41.42004816792905330657958984375" lon="-8.46494578756392002105712890625">
        <ele>240.399993896484375</ele>
        <time>2020-11-25T15:48:26.000Z</time>
      </trkpt>
      <trkpt lat="41.41997608356177806854248046875" lon="-8.46499725244939327239990234375">
        <ele>239.399993896484375</ele>
        <time>2020-11-25T15:48:30.000Z</time>
      </trkpt>
      <trkpt lat="41.41989804804325103759765625" lon="-8.46499356441199779510498046875">
        <ele>238.1999969482421875</ele>
        <time>2020-11-25T15:48:34.000Z</time>
      </trkpt>
      <trkpt lat="41.4198459126055240631103515625" lon="-8.46498124301433563232421875">
        <ele>237.600006103515625</ele>
        <time>2020-11-25T15:48:37.000Z</time>
      </trkpt>
      <trkpt lat="41.419779695570468902587890625" lon="-8.46497093327343463897705078125">
        <ele>237</ele>
        <time>2020-11-25T15:48:40.000Z</time>
      </trkpt>
      <trkpt lat="41.41971976496279239654541015625" lon="-8.46494905650615692138671875">
        <ele>236.600006103515625</ele>
        <time>2020-11-25T15:48:44.000Z</time>
      </trkpt>
      <trkpt lat="41.4196876622736454010009765625" lon="-8.46490706317126750946044921875">
        <ele>235.8000030517578125</ele>
        <time>2020-11-25T15:48:47.000Z</time>
      </trkpt>
      <trkpt lat="41.41959118656814098358154296875" lon="-8.46473070792853832244873046875">
        <ele>235</ele>
        <time>2020-11-25T15:48:54.000Z</time>
      </trkpt>
      <trkpt lat="41.419529579579830169677734375" lon="-8.46475384198129177093505859375">
        <ele>234.600006103515625</ele>
        <time>2020-11-25T15:48:57.000Z</time>
      </trkpt>
      <trkpt lat="41.41946294344961643218994140625" lon="-8.4648925624787807464599609375">
        <ele>233.600006103515625</ele>
        <time>2020-11-25T15:49:02.000Z</time>
      </trkpt>
      <trkpt lat="41.4194060303270816802978515625" lon="-8.4649770520627498626708984375">
        <ele>232.1999969482421875</ele>
        <time>2020-11-25T15:49:06.000Z</time>
      </trkpt>
      <trkpt lat="41.41930167563259601593017578125" lon="-8.46501720137894153594970703125">
        <ele>231.600006103515625</ele>
        <time>2020-11-25T15:49:11.000Z</time>
      </trkpt>
      <trkpt lat="41.41927309334278106689453125" lon="-8.46500806510448455810546875">
        <ele>231.399993896484375</ele>
        <time>2020-11-25T15:49:13.000Z</time>
      </trkpt>
      <trkpt lat="41.41926144249737262725830078125" lon="-8.46500261686742305755615234375">
        <ele>231</ele>
        <time>2020-11-25T15:49:14.000Z</time>
      </trkpt>
      <trkpt lat="41.4192434214055538177490234375" lon="-8.46498752944171428680419921875">
        <ele>230.600006103515625</ele>
        <time>2020-11-25T15:49:17.000Z</time>
      </trkpt>
      <trkpt lat="41.41924560070037841796875" lon="-8.46498769707977771759033203125">
        <ele>230.8000030517578125</ele>
        <time>2020-11-25T15:49:18.000Z</time>
      </trkpt>
      <trkpt lat="41.4192549884319305419921875" lon="-8.46499306149780750274658203125">
        <ele>230.8000030517578125</ele>
        <time>2020-11-25T15:49:19.000Z</time>
      </trkpt>
      <trkpt lat="41.41926638782024383544921875" lon="-8.4649993479251861572265625">
        <ele>231.1999969482421875</ele>
        <time>2020-11-25T15:49:20.000Z</time>
      </trkpt>
      <trkpt lat="41.419276781380176544189453125" lon="-8.46500546671450138092041015625">
        <ele>231.399993896484375</ele>
        <time>2020-11-25T15:49:21.000Z</time>
      </trkpt>
      <trkpt lat="41.41930469311773777008056640625" lon="-8.46502306871116161346435546875">
        <ele>231.8000030517578125</ele>
        <time>2020-11-25T15:49:23.000Z</time>
      </trkpt>
      <trkpt lat="41.41931332647800445556640625" lon="-8.46504016779363155364990234375">
        <ele>231.8000030517578125</ele>
        <time>2020-11-25T15:49:24.000Z</time>
      </trkpt>
      <trkpt lat="41.4193165116012096405029296875" lon="-8.4650870226323604583740234375">
        <ele>231.399993896484375</ele>
        <time>2020-11-25T15:49:26.000Z</time>
      </trkpt>
      <trkpt lat="41.4193064533174037933349609375" lon="-8.4651141799986362457275390625">
        <ele>231.1999969482421875</ele>
        <time>2020-11-25T15:49:27.000Z</time>
      </trkpt>
      <trkpt lat="41.41928440891206264495849609375" lon="-8.46515835262835025787353515625">
        <ele>230.600006103515625</ele>
        <time>2020-11-25T15:49:29.000Z</time>
      </trkpt>
      <trkpt lat="41.41928021796047687530517578125" lon="-8.46518148668110370635986328125">
        <ele>230.399993896484375</ele>
        <time>2020-11-25T15:49:30.000Z</time>
      </trkpt>
      <trkpt lat="41.419276781380176544189453125" lon="-8.465206213295459747314453125">
        <ele>229.8000030517578125</ele>
        <time>2020-11-25T15:49:31.000Z</time>
      </trkpt>
      <trkpt lat="41.4192269928753376007080078125" lon="-8.465332277119159698486328125">
        <ele>228.8000030517578125</ele>
        <time>2020-11-25T15:49:36.000Z</time>
      </trkpt>
      <trkpt lat="41.41922472976148128509521484375" lon="-8.46542187966406345367431640625">
        <ele>227.399993896484375</ele>
        <time>2020-11-25T15:49:40.000Z</time>
      </trkpt>
      <trkpt lat="41.4192370511591434478759765625" lon="-8.46549077890813350677490234375">
        <ele>226.399993896484375</ele>
        <time>2020-11-25T15:49:43.000Z</time>
      </trkpt>
      <trkpt lat="41.4192925393581390380859375" lon="-8.46561432816088199615478515625">
        <ele>225</ele>
        <time>2020-11-25T15:49:48.000Z</time>
      </trkpt>
      <trkpt lat="41.4193171821534633636474609375" lon="-8.46564366482198238372802734375">
        <ele>224</ele>
        <time>2020-11-25T15:49:50.000Z</time>
      </trkpt>
      <trkpt lat="41.41933503560721874237060546875" lon="-8.4656777791678905487060546875">
        <ele>223.600006103515625</ele>
        <time>2020-11-25T15:49:52.000Z</time>
      </trkpt>
      <trkpt lat="41.419360935688018798828125" lon="-8.4657391346991062164306640625">
        <ele>223</ele>
        <time>2020-11-25T15:49:55.000Z</time>
      </trkpt>
      <trkpt lat="41.419378034770488739013671875" lon="-8.46583292819559574127197265625">
        <ele>221.8000030517578125</ele>
        <time>2020-11-25T15:49:59.000Z</time>
      </trkpt>
      <trkpt lat="41.41937158070504665374755859375" lon="-8.46588690765202045440673828125">
        <ele>221.1999969482421875</ele>
        <time>2020-11-25T15:50:01.000Z</time>
      </trkpt>
      <trkpt lat="41.4193597622215747833251953125" lon="-8.46591188572347164154052734375">
        <ele>220.8000030517578125</ele>
        <time>2020-11-25T15:50:02.000Z</time>
      </trkpt>
      <trkpt lat="41.41931525431573390960693359375" lon="-8.4659622609615325927734375">
        <ele>219.600006103515625</ele>
        <time>2020-11-25T15:50:05.000Z</time>
      </trkpt>
      <trkpt lat="41.41924970783293247222900390625" lon="-8.46612528897821903228759765625">
        <ele>218.8000030517578125</ele>
        <time>2020-11-25T15:50:11.000Z</time>
      </trkpt>
      <trkpt lat="41.41923277638852596282958984375" lon="-8.4661877341568470001220703125">
        <ele>218.600006103515625</ele>
        <time>2020-11-25T15:50:13.000Z</time>
      </trkpt>
      <trkpt lat="41.41914677806198596954345703125" lon="-8.4664356708526611328125">
        <ele>218</ele>
        <time>2020-11-25T15:50:20.000Z</time>
      </trkpt>
      <trkpt lat="41.4191046170890331268310546875" lon="-8.466621078550815582275390625">
        <ele>217.600006103515625</ele>
        <time>2020-11-25T15:50:25.000Z</time>
      </trkpt>
      <trkpt lat="41.41912129707634449005126953125" lon="-8.4668636508285999298095703125">
        <ele>216.8000030517578125</ele>
        <time>2020-11-25T15:50:31.000Z</time>
      </trkpt>
      <trkpt lat="41.41914024017751216888427734375" lon="-8.46696934662759304046630859375">
        <ele>216.8000030517578125</ele>
        <time>2020-11-25T15:50:34.000Z</time>
      </trkpt>
      <trkpt lat="41.41914208419620990753173828125" lon="-8.4671814925968647003173828125">
        <ele>217</ele>
        <time>2020-11-25T15:50:40.000Z</time>
      </trkpt>
      <trkpt lat="41.4191015996038913726806640625" lon="-8.46735357306897640228271484375">
        <ele>216.600006103515625</ele>
        <time>2020-11-25T15:50:45.000Z</time>
      </trkpt>
      <trkpt lat="41.4190124161541461944580078125" lon="-8.46757234074175357818603515625">
        <ele>216.600006103515625</ele>
        <time>2020-11-25T15:50:51.000Z</time>
      </trkpt>
      <trkpt lat="41.41892130486667156219482421875" lon="-8.46782245673239231109619140625">
        <ele>216.399993896484375</ele>
        <time>2020-11-25T15:50:58.000Z</time>
      </trkpt>
      <trkpt lat="41.41884620301425457000732421875" lon="-8.46803435124456882476806640625">
        <ele>216.8000030517578125</ele>
        <time>2020-11-25T15:51:04.000Z</time>
      </trkpt>
      <trkpt lat="41.41876406036317348480224609375" lon="-8.46828580833971500396728515625">
        <ele>217.1999969482421875</ele>
        <time>2020-11-25T15:51:12.000Z</time>
      </trkpt>
      <trkpt lat="41.4187398366630077362060546875" lon="-8.4683521091938018798828125">
        <ele>217</ele>
        <time>2020-11-25T15:51:14.000Z</time>
      </trkpt>
      <trkpt lat="41.4187244139611721038818359375" lon="-8.468612618744373321533203125">
        <ele>215.399993896484375</ele>
        <time>2020-11-25T15:51:21.000Z</time>
      </trkpt>
      <trkpt lat="41.41870773397386074066162109375" lon="-8.46874237060546875">
        <ele>214.1999969482421875</ele>
        <time>2020-11-25T15:51:25.000Z</time>
      </trkpt>
      <trkpt lat="41.41866230405867099761962890625" lon="-8.46891948021948337554931640625">
        <ele>213</ele>
        <time>2020-11-25T15:51:30.000Z</time>
      </trkpt>
      <trkpt lat="41.4186171256005764007568359375" lon="-8.46907555125653743743896484375">
        <ele>212.1999969482421875</ele>
        <time>2020-11-25T15:51:34.000Z</time>
      </trkpt>
      <trkpt lat="41.4186211489140987396240234375" lon="-8.46911251544952392578125">
        <ele>212.1999969482421875</ele>
        <time>2020-11-25T15:51:35.000Z</time>
      </trkpt>
      <trkpt lat="41.41864813864231109619140625" lon="-8.4691824205219745635986328125">
        <ele>212</ele>
        <time>2020-11-25T15:51:37.000Z</time>
      </trkpt>
      <trkpt lat="41.41878182999789714813232421875" lon="-8.4693507291376590728759765625">
        <ele>211.8000030517578125</ele>
        <time>2020-11-25T15:51:43.000Z</time>
      </trkpt>
      <trkpt lat="41.41890638507902622222900390625" lon="-8.4694613702595233917236328125">
        <ele>211.1999969482421875</ele>
        <time>2020-11-25T15:51:48.000Z</time>
      </trkpt>
      <trkpt lat="41.41904451884329319000244140625" lon="-8.46965222619473934173583984375">
        <ele>211.1999969482421875</ele>
        <time>2020-11-25T15:51:55.000Z</time>
      </trkpt>
      <trkpt lat="41.41908357851207256317138671875" lon="-8.46975012682378292083740234375">
        <ele>211.399993896484375</ele>
        <time>2020-11-25T15:51:58.000Z</time>
      </trkpt>
      <trkpt lat="41.4191505499184131622314453125" lon="-8.46997878514230251312255859375">
        <ele>211.600006103515625</ele>
        <time>2020-11-25T15:52:04.000Z</time>
      </trkpt>
      <trkpt lat="41.419178880751132965087890625" lon="-8.4700853191316127777099609375">
        <ele>211</ele>
        <time>2020-11-25T15:52:07.000Z</time>
      </trkpt>
      <trkpt lat="41.4192249812185764312744140625" lon="-8.47032881341874599456787109375">
        <ele>209.8000030517578125</ele>
        <time>2020-11-25T15:52:13.000Z</time>
      </trkpt>
      <trkpt lat="41.41938700340688228607177734375" lon="-8.47045705653727054595947265625">
        <ele>209.8000030517578125</ele>
        <time>2020-11-25T15:52:20.000Z</time>
      </trkpt>
      <trkpt lat="41.41955112107098102569580078125" lon="-8.47057054750621318817138671875">
        <ele>208.8000030517578125</ele>
        <time>2020-11-25T15:52:27.000Z</time>
      </trkpt>
      <trkpt lat="41.4196242950856685638427734375" lon="-8.47066693939268589019775390625">
        <ele>207.600006103515625</ele>
        <time>2020-11-25T15:52:31.000Z</time>
      </trkpt>
      <trkpt lat="41.41965203918516635894775390625" lon="-8.47071957774460315704345703125">
        <ele>206.600006103515625</ele>
        <time>2020-11-25T15:52:33.000Z</time>
      </trkpt>
      <trkpt lat="41.41970694065093994140625" lon="-8.47079283557832241058349609375">
        <ele>205.1999969482421875</ele>
        <time>2020-11-25T15:52:36.000Z</time>
      </trkpt>
      <trkpt lat="41.41976988874375820159912109375" lon="-8.4708718769252300262451171875">
        <ele>203.8000030517578125</ele>
        <time>2020-11-25T15:52:39.000Z</time>
      </trkpt>
      <trkpt lat="41.41985714435577392578125" lon="-8.470971286296844482421875">
        <ele>202.8000030517578125</ele>
        <time>2020-11-25T15:52:43.000Z</time>
      </trkpt>
      <trkpt lat="41.41993425786495208740234375" lon="-8.47105720080435276031494140625">
        <ele>201.600006103515625</ele>
        <time>2020-11-25T15:52:47.000Z</time>
      </trkpt>
      <trkpt lat="41.42005026340484619140625" lon="-8.47116172313690185546875">
        <ele>200.8000030517578125</ele>
        <time>2020-11-25T15:52:52.000Z</time>
      </trkpt>
      <trkpt lat="41.42020172439515590667724609375" lon="-8.4713000245392322540283203125">
        <ele>201.399993896484375</ele>
        <time>2020-11-25T15:52:59.000Z</time>
      </trkpt>
      <trkpt lat="41.4202552847564220428466796875" lon="-8.471377305686473846435546875">
        <ele>202.600006103515625</ele>
        <time>2020-11-25T15:53:03.000Z</time>
      </trkpt>
      <trkpt lat="41.4202636666595935821533203125" lon="-8.4713992662727832794189453125">
        <ele>203</ele>
        <time>2020-11-25T15:53:04.000Z</time>
      </trkpt>
      <trkpt lat="41.42027355730533599853515625" lon="-8.4714482165873050689697265625">
        <ele>203.8000030517578125</ele>
        <time>2020-11-25T15:53:06.000Z</time>
      </trkpt>
      <trkpt lat="41.42030197195708751678466796875" lon="-8.47151300869882106781005859375">
        <ele>204.399993896484375</ele>
        <time>2020-11-25T15:53:09.000Z</time>
      </trkpt>
      <trkpt lat="41.42031353898346424102783203125" lon="-8.47153664566576480865478515625">
        <ele>204.8000030517578125</ele>
        <time>2020-11-25T15:53:10.000Z</time>
      </trkpt>
      <trkpt lat="41.4203464798629283905029296875" lon="-8.4716202132403850555419921875">
        <ele>206</ele>
        <time>2020-11-25T15:53:14.000Z</time>
      </trkpt>
      <trkpt lat="41.42039551399648189544677734375" lon="-8.4716986678540706634521484375">
        <ele>207.1999969482421875</ele>
        <time>2020-11-25T15:53:19.000Z</time>
      </trkpt>
      <trkpt lat="41.42041915096342563629150390625" lon="-8.47175440751016139984130859375">
        <ele>208.1999969482421875</ele>
        <time>2020-11-25T15:53:22.000Z</time>
      </trkpt>
      <trkpt lat="41.42046223394572734832763671875" lon="-8.47182347439229488372802734375">
        <ele>209</ele>
        <time>2020-11-25T15:53:26.000Z</time>
      </trkpt>
      <trkpt lat="41.420475058257579803466796875" lon="-8.47184233367443084716796875">
        <ele>209.399993896484375</ele>
        <time>2020-11-25T15:53:27.000Z</time>
      </trkpt>
      <trkpt lat="41.42051956616342067718505859375" lon="-8.4719112329185009002685546875">
        <ele>210.399993896484375</ele>
        <time>2020-11-25T15:53:31.000Z</time>
      </trkpt>
      <trkpt lat="41.4205308817327022552490234375" lon="-8.4719269908964633941650390625">
        <ele>210.600006103515625</ele>
        <time>2020-11-25T15:53:32.000Z</time>
      </trkpt>
      <trkpt lat="41.42057756893336772918701171875" lon="-8.4719779528677463531494140625">
        <ele>211.600006103515625</ele>
        <time>2020-11-25T15:53:36.000Z</time>
      </trkpt>
      <trkpt lat="41.4206140302121639251708984375" lon="-8.4720523841679096221923828125">
        <ele>212.8000030517578125</ele>
        <time>2020-11-25T15:53:40.000Z</time>
      </trkpt>
      <trkpt lat="41.4206321351230144500732421875" lon="-8.47216914407908916473388671875">
        <ele>213.8000030517578125</ele>
        <time>2020-11-25T15:53:45.000Z</time>
      </trkpt>
      <trkpt lat="41.42063439823687076568603515625" lon="-8.47241288982331752777099609375">
        <ele>215</ele>
        <time>2020-11-25T15:53:53.000Z</time>
      </trkpt>
      <trkpt lat="41.42065434716641902923583984375" lon="-8.47259511239826679229736328125">
        <ele>216</ele>
        <time>2020-11-25T15:54:00.000Z</time>
      </trkpt>
      <trkpt lat="41.42066407017409801483154296875" lon="-8.4728030674159526824951171875">
        <ele>217.1999969482421875</ele>
        <time>2020-11-25T15:54:08.000Z</time>
      </trkpt>
      <trkpt lat="41.4206854440271854400634765625" lon="-8.4729475714266300201416015625">
        <ele>218.399993896484375</ele>
        <time>2020-11-25T15:54:14.000Z</time>
      </trkpt>
      <trkpt lat="41.42070002853870391845703125" lon="-8.47304404713213443756103515625">
        <ele>219.600006103515625</ele>
        <time>2020-11-25T15:54:18.000Z</time>
      </trkpt>
      <trkpt lat="41.4207226596772670745849609375" lon="-8.47316524945199489593505859375">
        <ele>220.8000030517578125</ele>
        <time>2020-11-25T15:54:23.000Z</time>
      </trkpt>
      <trkpt lat="41.42075174488127231597900390625" lon="-8.4732684306800365447998046875">
        <ele>221.600006103515625</ele>
        <time>2020-11-25T15:54:27.000Z</time>
      </trkpt>
      <trkpt lat="41.42075861804187297821044921875" lon="-8.473291061818599700927734375">
        <ele>222</ele>
        <time>2020-11-25T15:54:28.000Z</time>
      </trkpt>
      <trkpt lat="41.420792229473590850830078125" lon="-8.4734112583100795745849609375">
        <ele>223</ele>
        <time>2020-11-25T15:54:33.000Z</time>
      </trkpt>
      <trkpt lat="41.42086255364120006561279296875" lon="-8.47360613755881786346435546875">
        <ele>224</ele>
        <time>2020-11-25T15:54:41.000Z</time>
      </trkpt>
      <trkpt lat="41.42092256806790828704833984375" lon="-8.4737741947174072265625">
        <ele>224.600006103515625</ele>
        <time>2020-11-25T15:54:48.000Z</time>
      </trkpt>
      <trkpt lat="41.42095592804253101348876953125" lon="-8.4738377295434474945068359375">
        <ele>225.1999969482421875</ele>
        <time>2020-11-25T15:54:51.000Z</time>
      </trkpt>
      <trkpt lat="41.42099850811064243316650390625" lon="-8.47393353469669818878173828125">
        <ele>226.1999969482421875</ele>
        <time>2020-11-25T15:54:56.000Z</time>
      </trkpt>
      <trkpt lat="41.42109070904552936553955078125" lon="-8.47404216416180133819580078125">
        <ele>227.399993896484375</ele>
        <time>2020-11-25T15:55:03.000Z</time>
      </trkpt>
      <trkpt lat="41.421154327690601348876953125" lon="-8.4740321896970272064208984375">
        <ele>228.600006103515625</ele>
        <time>2020-11-25T15:55:08.000Z</time>
      </trkpt>
      <trkpt lat="41.42119623720645904541015625" lon="-8.4739780426025390625">
        <ele>229.8000030517578125</ele>
        <time>2020-11-25T15:55:13.000Z</time>
      </trkpt>
      <trkpt lat="41.4212503843009471893310546875" lon="-8.47392599098384380340576171875">
        <ele>231</ele>
        <time>2020-11-25T15:55:18.000Z</time>
      </trkpt>
      <trkpt lat="41.42131165601313114166259765625" lon="-8.47387687303125858306884765625">
        <ele>232</ele>
        <time>2020-11-25T15:55:23.000Z</time>
      </trkpt>
      <trkpt lat="41.42136521637439727783203125" lon="-8.473834209144115447998046875">
        <ele>233.1999969482421875</ele>
        <time>2020-11-25T15:55:28.000Z</time>
      </trkpt>
      <trkpt lat="41.4214275777339935302734375" lon="-8.47376422025263309478759765625">
        <ele>234.1999969482421875</ele>
        <time>2020-11-25T15:55:34.000Z</time>
      </trkpt>
      <trkpt lat="41.42146739177405834197998046875" lon="-8.473704792559146881103515625">
        <ele>235.399993896484375</ele>
        <time>2020-11-25T15:55:38.000Z</time>
      </trkpt>
      <trkpt lat="41.42151198349893093109130859375" lon="-8.4736258350312709808349609375">
        <ele>236.600006103515625</ele>
        <time>2020-11-25T15:55:43.000Z</time>
      </trkpt>
      <trkpt lat="41.4215665496885776519775390625" lon="-8.47355450503528118133544921875">
        <ele>238</ele>
        <time>2020-11-25T15:55:48.000Z</time>
      </trkpt>
      <trkpt lat="41.42162044532597064971923828125" lon="-8.47348543815314769744873046875">
        <ele>239.1999969482421875</ele>
        <time>2020-11-25T15:55:53.000Z</time>
      </trkpt>
      <trkpt lat="41.42167635262012481689453125" lon="-8.47341871820390224456787109375">
        <ele>240.399993896484375</ele>
        <time>2020-11-25T15:55:58.000Z</time>
      </trkpt>
      <trkpt lat="41.4217548072338104248046875" lon="-8.47334395162761211395263671875">
        <ele>241.399993896484375</ele>
        <time>2020-11-25T15:56:03.000Z</time>
      </trkpt>
      <trkpt lat="41.4218458347022533416748046875" lon="-8.473247475922107696533203125">
        <ele>242.399993896484375</ele>
        <time>2020-11-25T15:56:09.000Z</time>
      </trkpt>
      <trkpt lat="41.421977095305919647216796875" lon="-8.4730940870940685272216796875">
        <ele>243.600006103515625</ele>
        <time>2020-11-25T15:56:18.000Z</time>
      </trkpt>
      <trkpt lat="41.42207474447786808013916015625" lon="-8.47294882871210575103759765625">
        <ele>244.600006103515625</ele>
        <time>2020-11-25T15:56:25.000Z</time>
      </trkpt>
      <trkpt lat="41.42218303866684436798095703125" lon="-8.47282226197421550750732421875">
        <ele>245.600006103515625</ele>
        <time>2020-11-25T15:56:32.000Z</time>
      </trkpt>
      <trkpt lat="41.422256715595722198486328125" lon="-8.4727402031421661376953125">
        <ele>246.8000030517578125</ele>
        <time>2020-11-25T15:56:37.000Z</time>
      </trkpt>
      <trkpt lat="41.42232787795364856719970703125" lon="-8.472662083804607391357421875">
        <ele>248</ele>
        <time>2020-11-25T15:56:42.000Z</time>
      </trkpt>
      <trkpt lat="41.42239786684513092041015625" lon="-8.47258639521896839141845703125">
        <ele>249.1999969482421875</ele>
        <time>2020-11-25T15:56:47.000Z</time>
      </trkpt>
      <trkpt lat="41.42245427705347537994384765625" lon="-8.4725137241184711456298828125">
        <ele>250.399993896484375</ele>
        <time>2020-11-25T15:56:52.000Z</time>
      </trkpt>
      <trkpt lat="41.42252099700272083282470703125" lon="-8.472435772418975830078125">
        <ele>251.399993896484375</ele>
        <time>2020-11-25T15:56:57.000Z</time>
      </trkpt>
      <trkpt lat="41.42253558151423931121826171875" lon="-8.472419343888759613037109375">
        <ele>251.600006103515625</ele>
        <time>2020-11-25T15:56:58.000Z</time>
      </trkpt>
      <trkpt lat="41.42259098589420318603515625" lon="-8.47235153429210186004638671875">
        <ele>252.600006103515625</ele>
        <time>2020-11-25T15:57:02.000Z</time>
      </trkpt>
      <trkpt lat="41.4226407743990421295166015625" lon="-8.4722833894193172454833984375">
        <ele>253.8000030517578125</ele>
        <time>2020-11-25T15:57:06.000Z</time>
      </trkpt>
      <trkpt lat="41.42267882823944091796875" lon="-8.47223527729511260986328125">
        <ele>254.8000030517578125</ele>
        <time>2020-11-25T15:57:09.000Z</time>
      </trkpt>
      <trkpt lat="41.42270958982408046722412109375" lon="-8.47219361923635005950927734375">
        <ele>255.8000030517578125</ele>
        <time>2020-11-25T15:57:12.000Z</time>
      </trkpt>
      <trkpt lat="41.422752253711223602294921875" lon="-8.4721382148563861846923828125">
        <ele>257.20001220703125</ele>
        <time>2020-11-25T15:57:16.000Z</time>
      </trkpt>
      <trkpt lat="41.42279793508350849151611328125" lon="-8.47209353931248188018798828125">
        <ele>258.20001220703125</ele>
        <time>2020-11-25T15:57:20.000Z</time>
      </trkpt>
      <trkpt lat="41.422839425504207611083984375" lon="-8.4720562398433685302734375">
        <ele>259.20001220703125</ele>
        <time>2020-11-25T15:57:24.000Z</time>
      </trkpt>
      <trkpt lat="41.42287530004978179931640625" lon="-8.47200653515756130218505859375">
        <ele>260.399993896484375</ele>
        <time>2020-11-25T15:57:28.000Z</time>
      </trkpt>
      <trkpt lat="41.42293791286647319793701171875" lon="-8.4719447605311870574951171875">
        <ele>261.600006103515625</ele>
        <time>2020-11-25T15:57:34.000Z</time>
      </trkpt>
      <trkpt lat="41.4229913055896759033203125" lon="-8.47189405001699924468994140625">
        <ele>262.79998779296875</ele>
        <time>2020-11-25T15:57:39.000Z</time>
      </trkpt>
      <trkpt lat="41.423039250075817108154296875" lon="-8.47183487378060817718505859375">
        <ele>263.79998779296875</ele>
        <time>2020-11-25T15:57:44.000Z</time>
      </trkpt>
      <trkpt lat="41.4230897091329097747802734375" lon="-8.4717791341245174407958984375">
        <ele>264.79998779296875</ele>
        <time>2020-11-25T15:57:49.000Z</time>
      </trkpt>
      <trkpt lat="41.42313471995294094085693359375" lon="-8.471725322306156158447265625">
        <ele>266</ele>
        <time>2020-11-25T15:57:54.000Z</time>
      </trkpt>
      <trkpt lat="41.4231822453439235687255859375" lon="-8.47167511470615863800048828125">
        <ele>267</ele>
        <time>2020-11-25T15:57:59.000Z</time>
      </trkpt>
      <trkpt lat="41.42329364083707332611083984375" lon="-8.4715514816343784332275390625">
        <ele>268</ele>
        <time>2020-11-25T15:58:08.000Z</time>
      </trkpt>
      <trkpt lat="41.42330939881503582000732421875" lon="-8.47154066897928714752197265625">
        <ele>268.399993896484375</ele>
        <time>2020-11-25T15:58:09.000Z</time>
      </trkpt>
      <trkpt lat="41.42337276600301265716552734375" lon="-8.4714850969612598419189453125">
        <ele>269.399993896484375</ele>
        <time>2020-11-25T15:58:13.000Z</time>
      </trkpt>
      <trkpt lat="41.4234635420143604278564453125" lon="-8.47135777585208415985107421875">
        <ele>270.399993896484375</ele>
        <time>2020-11-25T15:58:20.000Z</time>
      </trkpt>
      <trkpt lat="41.4235389791429042816162109375" lon="-8.4711551852524280548095703125">
        <ele>271.600006103515625</ele>
        <time>2020-11-25T15:58:29.000Z</time>
      </trkpt>
      <trkpt lat="41.4236204512417316436767578125" lon="-8.4710328094661235809326171875">
        <ele>272.79998779296875</ele>
        <time>2020-11-25T15:58:36.000Z</time>
      </trkpt>
      <trkpt lat="41.4237101376056671142578125" lon="-8.47087397240102291107177734375">
        <ele>273.79998779296875</ele>
        <time>2020-11-25T15:58:44.000Z</time>
      </trkpt>
      <trkpt lat="41.42378817312419414520263671875" lon="-8.47073935903608798980712890625">
        <ele>274.79998779296875</ele>
        <time>2020-11-25T15:58:51.000Z</time>
      </trkpt>
      <trkpt lat="41.42387308180332183837890625" lon="-8.4706552885472774505615234375">
        <ele>275.399993896484375</ele>
        <time>2020-11-25T15:58:56.000Z</time>
      </trkpt>
      <trkpt lat="41.42391608096659183502197265625" lon="-8.4706046618521213531494140625">
        <ele>276</ele>
        <time>2020-11-25T15:58:59.000Z</time>
      </trkpt>
      <trkpt lat="41.4240167476236820220947265625" lon="-8.47051799297332763671875">
        <ele>277</ele>
        <time>2020-11-25T15:59:05.000Z</time>
      </trkpt>
      <trkpt lat="41.424097716808319091796875" lon="-8.47043124027550220489501953125">
        <ele>278</ele>
        <time>2020-11-25T15:59:10.000Z</time>
      </trkpt>
      <trkpt lat="41.42418346367776393890380859375" lon="-8.47033836878836154937744140625">
        <ele>279.20001220703125</ele>
        <time>2020-11-25T15:59:16.000Z</time>
      </trkpt>
      <trkpt lat="41.424246914684772491455078125" lon="-8.47030006349086761474609375">
        <ele>280.399993896484375</ele>
        <time>2020-11-25T15:59:20.000Z</time>
      </trkpt>
      <trkpt lat="41.4243537001311779022216796875" lon="-8.47028137184679508209228515625">
        <ele>281.399993896484375</ele>
        <time>2020-11-25T15:59:25.000Z</time>
      </trkpt>
      <trkpt lat="41.424483619630336761474609375" lon="-8.47024164162576198577880859375">
        <ele>282.79998779296875</ele>
        <time>2020-11-25T15:59:31.000Z</time>
      </trkpt>
      <trkpt lat="41.424538604915142059326171875" lon="-8.4701785258948802947998046875">
        <ele>284</ele>
        <time>2020-11-25T15:59:36.000Z</time>
      </trkpt>
      <trkpt lat="41.4245642535388469696044921875" lon="-8.47012479789555072784423828125">
        <ele>285</ele>
        <time>2020-11-25T15:59:40.000Z</time>
      </trkpt>
      <trkpt lat="41.424585543572902679443359375" lon="-8.4700356982648372650146484375">
        <ele>286.20001220703125</ele>
        <time>2020-11-25T15:59:45.000Z</time>
      </trkpt>
      <trkpt lat="41.42460272647440433502197265625" lon="-8.46998800523579120635986328125">
        <ele>287.20001220703125</ele>
        <time>2020-11-25T15:59:48.000Z</time>
      </trkpt>
      <trkpt lat="41.4246085099875926971435546875" lon="-8.46997828222811222076416015625">
        <ele>287.399993896484375</ele>
        <time>2020-11-25T15:59:49.000Z</time>
      </trkpt>
      <trkpt lat="41.4246229268610477447509765625" lon="-8.46990485675632953643798828125">
        <ele>288.600006103515625</ele>
        <time>2020-11-25T15:59:53.000Z</time>
      </trkpt>
      <trkpt lat="41.42465385608375072479248046875" lon="-8.46984006464481353759765625">
        <ele>289.79998779296875</ele>
        <time>2020-11-25T15:59:57.000Z</time>
      </trkpt>
      <trkpt lat="41.42468042671680450439453125" lon="-8.4697932936251163482666015625">
        <ele>290.79998779296875</ele>
        <time>2020-11-25T16:00:01.000Z</time>
      </trkpt>
      <trkpt lat="41.42469383776187896728515625" lon="-8.46975264139473438262939453125">
        <ele>292</ele>
        <time>2020-11-25T16:00:05.000Z</time>
      </trkpt>
      <trkpt lat="41.42472200095653533935546875" lon="-8.46970997750759124755859375">
        <ele>293.20001220703125</ele>
        <time>2020-11-25T16:00:09.000Z</time>
      </trkpt>
      <trkpt lat="41.424759887158870697021484375" lon="-8.4696502983570098876953125">
        <ele>294.20001220703125</ele>
        <time>2020-11-25T16:00:13.000Z</time>
      </trkpt>
      <trkpt lat="41.424787044525146484375" lon="-8.4695948101580142974853515625">
        <ele>295.20001220703125</ele>
        <time>2020-11-25T16:00:17.000Z</time>
      </trkpt>
      <trkpt lat="41.42480070702731609344482421875" lon="-8.4695244021713733673095703125">
        <ele>296.20001220703125</ele>
        <time>2020-11-25T16:00:21.000Z</time>
      </trkpt>
      <trkpt lat="41.424815542995929718017578125" lon="-8.469458855688571929931640625">
        <ele>297.399993896484375</ele>
        <time>2020-11-25T16:00:26.000Z</time>
      </trkpt>
      <trkpt lat="41.42482384108006954193115234375" lon="-8.46943597309291362762451171875">
        <ele>298</ele>
        <time>2020-11-25T16:00:28.000Z</time>
      </trkpt>
      <trkpt lat="41.424832642078399658203125" lon="-8.4694020263850688934326171875">
        <ele>298.600006103515625</ele>
        <time>2020-11-25T16:00:30.000Z</time>
      </trkpt>
      <trkpt lat="41.4248663373291492462158203125" lon="-8.46931359730660915374755859375">
        <ele>299.600006103515625</ele>
        <time>2020-11-25T16:00:35.000Z</time>
      </trkpt>
      <trkpt lat="41.42490665428340435028076171875" lon="-8.46920949406921863555908203125">
        <ele>300.79998779296875</ele>
        <time>2020-11-25T16:00:43.000Z</time>
      </trkpt>
      <trkpt lat="41.4249374158680438995361328125" lon="-8.46912391483783721923828125">
        <ele>301.79998779296875</ele>
        <time>2020-11-25T16:00:48.000Z</time>
      </trkpt>
      <trkpt lat="41.42495443113148212432861328125" lon="-8.46903313882648944854736328125">
        <ele>303</ele>
        <time>2020-11-25T16:00:52.000Z</time>
      </trkpt>
      <trkpt lat="41.424953676760196685791015625" lon="-8.46885410137474536895751953125">
        <ele>304</ele>
        <time>2020-11-25T16:00:59.000Z</time>
      </trkpt>
      <trkpt lat="41.42494487576186656951904296875" lon="-8.46869233064353466033935546875">
        <ele>305.20001220703125</ele>
        <time>2020-11-25T16:01:05.000Z</time>
      </trkpt>
      <trkpt lat="41.424945294857025146484375" lon="-8.4685645066201686859130859375">
        <ele>306.399993896484375</ele>
        <time>2020-11-25T16:01:10.000Z</time>
      </trkpt>
      <trkpt lat="41.42493481747806072235107421875" lon="-8.4684106148779392242431640625">
        <ele>307.399993896484375</ele>
        <time>2020-11-25T16:01:16.000Z</time>
      </trkpt>
      <trkpt lat="41.42492392100393772125244140625" lon="-8.4683573059737682342529296875">
        <ele>308.20001220703125</ele>
        <time>2020-11-25T16:01:19.000Z</time>
      </trkpt>
      <trkpt lat="41.424889974296092987060546875" lon="-8.46833777613937854766845703125">
        <ele>308.600006103515625</ele>
        <time>2020-11-25T16:01:21.000Z</time>
      </trkpt>
      <trkpt lat="41.42476969398558139801025390625" lon="-8.4683311544358730316162109375">
        <ele>309.600006103515625</ele>
        <time>2020-11-25T16:01:27.000Z</time>
      </trkpt>
      <trkpt lat="41.424645893275737762451171875" lon="-8.46833760850131511688232421875">
        <ele>310.79998779296875</ele>
        <time>2020-11-25T16:01:33.000Z</time>
      </trkpt>
      <trkpt lat="41.424607336521148681640625" lon="-8.46833123825490474700927734375">
        <ele>311</ele>
        <time>2020-11-25T16:01:35.000Z</time>
      </trkpt>
      <trkpt lat="41.42452125437557697296142578125" lon="-8.46831858158111572265625">
        <ele>311.79998779296875</ele>
        <time>2020-11-25T16:01:39.000Z</time>
      </trkpt>
      <trkpt lat="41.42440943978726863861083984375" lon="-8.46825747750699520111083984375">
        <ele>312.79998779296875</ele>
        <time>2020-11-25T16:01:45.000Z</time>
      </trkpt>
      <trkpt lat="41.4242832921445369720458984375" lon="-8.46816360019147396087646484375">
        <ele>314</ele>
        <time>2020-11-25T16:01:52.000Z</time>
      </trkpt>
      <trkpt lat="41.4241367764770984649658203125" lon="-8.46810962073504924774169921875">
        <ele>315</ele>
        <time>2020-11-25T16:01:59.000Z</time>
      </trkpt>
      <trkpt lat="41.424033008515834808349609375" lon="-8.4680304117500782012939453125">
        <ele>316</ele>
        <time>2020-11-25T16:02:05.000Z</time>
      </trkpt>
      <trkpt lat="41.42396804876625537872314453125" lon="-8.4679509513080120086669921875">
        <ele>317.20001220703125</ele>
        <time>2020-11-25T16:02:10.000Z</time>
      </trkpt>
      <trkpt lat="41.423931419849395751953125" lon="-8.46790476702153682708740234375">
        <ele>318</ele>
        <time>2020-11-25T16:02:13.000Z</time>
      </trkpt>
      <trkpt lat="41.4239051006734371185302734375" lon="-8.46786436624825000762939453125">
        <ele>318.399993896484375</ele>
        <time>2020-11-25T16:02:15.000Z</time>
      </trkpt>
      <trkpt lat="41.4238266460597515106201171875" lon="-8.46776093356311321258544921875">
        <ele>319.600006103515625</ele>
        <time>2020-11-25T16:02:20.000Z</time>
      </trkpt>
      <trkpt lat="41.42373251728713512420654296875" lon="-8.46759715117514133453369140625">
        <ele>320</ele>
        <time>2020-11-25T16:02:27.000Z</time>
      </trkpt>
      <trkpt lat="41.4236895181238651275634765625" lon="-8.46757602877914905548095703125">
        <ele>320.20001220703125</ele>
        <time>2020-11-25T16:02:29.000Z</time>
      </trkpt>
      <trkpt lat="41.42362338490784168243408203125" lon="-8.46758189611136913299560546875">
        <ele>320.79998779296875</ele>
        <time>2020-11-25T16:02:32.000Z</time>
      </trkpt>
      <trkpt lat="41.42350872047245502471923828125" lon="-8.467580974102020263671875">
        <ele>321</ele>
        <time>2020-11-25T16:02:37.000Z</time>
      </trkpt>
      <trkpt lat="41.42338357865810394287109375" lon="-8.46749313175678253173828125">
        <ele>321.20001220703125</ele>
        <time>2020-11-25T16:02:45.000Z</time>
      </trkpt>
      <trkpt lat="41.423306800425052642822265625" lon="-8.46728098578751087188720703125">
        <ele>321</ele>
        <time>2020-11-25T16:07:46.000Z</time>
      </trkpt>
      <trkpt lat="41.42330336384475231170654296875" lon="-8.46727947704493999481201171875">
        <ele>321</ele>
        <time>2020-11-25T16:07:47.000Z</time>
      </trkpt>
      <trkpt lat="41.42330713570117950439453125" lon="-8.46723505295813083648681640625">
        <ele>321.399993896484375</ele>
        <time>2020-11-25T16:07:50.000Z</time>
      </trkpt>
      <trkpt lat="41.42331090755760669708251953125" lon="-8.46719699911773204803466796875">
        <ele>321.600006103515625</ele>
        <time>2020-11-25T16:07:52.000Z</time>
      </trkpt>
      <trkpt lat="41.4233146794140338897705078125" lon="-8.4671818278729915618896484375">
        <ele>321.79998779296875</ele>
        <time>2020-11-25T16:07:53.000Z</time>
      </trkpt>
      <trkpt lat="41.42332297749817371368408203125" lon="-8.46712969243526458740234375">
        <ele>321</ele>
        <time>2020-11-25T16:07:56.000Z</time>
      </trkpt>
      <trkpt lat="41.42332767136394977569580078125" lon="-8.46708887256681919097900390625">
        <ele>320.600006103515625</ele>
        <time>2020-11-25T16:07:58.000Z</time>
      </trkpt>
      <trkpt lat="41.42333387397229671478271484375" lon="-8.46707814373075962066650390625">
        <ele>320.600006103515625</ele>
        <time>2020-11-25T16:07:59.000Z</time>
      </trkpt>
      <trkpt lat="41.42335315234959125518798828125" lon="-8.4670678339898586273193359375">
        <ele>320.399993896484375</ele>
        <time>2020-11-25T16:08:01.000Z</time>
      </trkpt>
      <trkpt lat="41.42337393946945667266845703125" lon="-8.4670326299965381622314453125">
        <ele>320.399993896484375</ele>
        <time>2020-11-25T16:08:03.000Z</time>
      </trkpt>
      <trkpt lat="41.42340394668281078338623046875" lon="-8.46696699969470500946044921875">
        <ele>319.79998779296875</ele>
        <time>2020-11-25T16:08:06.000Z</time>
      </trkpt>
      <trkpt lat="41.42342724837362766265869140625" lon="-8.466899357736110687255859375">
        <ele>319.399993896484375</ele>
        <time>2020-11-25T16:08:09.000Z</time>
      </trkpt>
      <trkpt lat="41.423457674682140350341796875" lon="-8.46671453677117824554443359375">
        <ele>318.600006103515625</ele>
        <time>2020-11-25T16:08:18.000Z</time>
      </trkpt>
      <trkpt lat="41.42345733940601348876953125" lon="-8.4666703641414642333984375">
        <ele>318.20001220703125</ele>
        <time>2020-11-25T16:08:20.000Z</time>
      </trkpt>
      <trkpt lat="41.42347234301269054412841796875" lon="-8.46661160700023174285888671875">
        <ele>317.79998779296875</ele>
        <time>2020-11-25T16:08:23.000Z</time>
      </trkpt>
      <trkpt lat="41.4235250651836395263671875" lon="-8.4666162170469760894775390625">
        <ele>318.399993896484375</ele>
        <time>2020-11-25T16:08:27.000Z</time>
      </trkpt>
      <trkpt lat="41.42353856004774570465087890625" lon="-8.46661210991442203521728515625">
        <ele>318.399993896484375</ele>
        <time>2020-11-25T16:08:29.000Z</time>
      </trkpt>
      <trkpt lat="41.4235961437225341796875" lon="-8.4665595553815364837646484375">
        <ele>318</ele>
        <time>2020-11-25T16:08:36.000Z</time>
      </trkpt>
      <trkpt lat="41.42367166467010974884033203125" lon="-8.4663661010563373565673828125">
        <ele>318.399993896484375</ele>
        <time>2020-11-25T16:08:43.000Z</time>
      </trkpt>
      <trkpt lat="41.4237502031028270721435546875" lon="-8.46623140387237071990966796875">
        <ele>318.20001220703125</ele>
        <time>2020-11-25T16:08:48.000Z</time>
      </trkpt>
      <trkpt lat="41.4238092117011547088623046875" lon="-8.4661521948873996734619140625">
        <ele>318</ele>
        <time>2020-11-25T16:08:51.000Z</time>
      </trkpt>
      <trkpt lat="41.42394860275089740753173828125" lon="-8.46601129509508609771728515625">
        <ele>317.20001220703125</ele>
        <time>2020-11-25T16:08:58.000Z</time>
      </trkpt>
      <trkpt lat="41.42408120445907115936279296875" lon="-8.465841226279735565185546875">
        <ele>316.600006103515625</ele>
        <time>2020-11-25T16:09:04.000Z</time>
      </trkpt>
      <trkpt lat="41.42411640845239162445068359375" lon="-8.4657817147672176361083984375">
        <ele>316.20001220703125</ele>
        <time>2020-11-25T16:09:06.000Z</time>
      </trkpt>
      <trkpt lat="41.424194276332855224609375" lon="-8.46565808169543743133544921875">
        <ele>315</ele>
        <time>2020-11-25T16:09:10.000Z</time>
      </trkpt>
      <trkpt lat="41.42428656108677387237548828125" lon="-8.46551089547574520111083984375">
        <ele>313.79998779296875</ele>
        <time>2020-11-25T16:09:15.000Z</time>
      </trkpt>
      <trkpt lat="41.42436484806239604949951171875" lon="-8.46530771814286708831787109375">
        <ele>312.79998779296875</ele>
        <time>2020-11-25T16:09:21.000Z</time>
      </trkpt>
      <trkpt lat="41.4244396984577178955078125" lon="-8.46510328352451324462890625">
        <ele>312</ele>
        <time>2020-11-25T16:09:27.000Z</time>
      </trkpt>
      <trkpt lat="41.42447121441364288330078125" lon="-8.4650461189448833465576171875">
        <ele>311.399993896484375</ele>
        <time>2020-11-25T16:09:29.000Z</time>
      </trkpt>
      <trkpt lat="41.4245498366653919219970703125" lon="-8.4649203903973102569580078125">
        <ele>310.79998779296875</ele>
        <time>2020-11-25T16:09:34.000Z</time>
      </trkpt>
      <trkpt lat="41.42458747141063213348388671875" lon="-8.46488409675657749176025390625">
        <ele>310.600006103515625</ele>
        <time>2020-11-25T16:09:36.000Z</time>
      </trkpt>
      <trkpt lat="41.424628458917140960693359375" lon="-8.46483984030783176422119140625">
        <ele>310.399993896484375</ele>
        <time>2020-11-25T16:09:38.000Z</time>
      </trkpt>
      <trkpt lat="41.42466701567173004150390625" lon="-8.464699946343898773193359375">
        <ele>309</ele>
        <time>2020-11-25T16:09:43.000Z</time>
      </trkpt>
      <trkpt lat="41.42467212863266468048095703125" lon="-8.4646400995552539825439453125">
        <ele>308.399993896484375</ele>
        <time>2020-11-25T16:09:45.000Z</time>
      </trkpt>
      <trkpt lat="41.424674727022647857666015625" lon="-8.464608080685138702392578125">
        <ele>308</ele>
        <time>2020-11-25T16:09:46.000Z</time>
      </trkpt>
      <trkpt lat="41.4246839471161365509033203125" lon="-8.46450791694223880767822265625">
        <ele>307</ele>
        <time>2020-11-25T16:09:49.000Z</time>
      </trkpt>
      <trkpt lat="41.42469442449510097503662109375" lon="-8.464388139545917510986328125">
        <ele>305.79998779296875</ele>
        <time>2020-11-25T16:09:53.000Z</time>
      </trkpt>
      <trkpt lat="41.4247057400643825531005859375" lon="-8.4642753191292285919189453125">
        <ele>304.399993896484375</ele>
        <time>2020-11-25T16:09:57.000Z</time>
      </trkpt>
      <trkpt lat="41.42470724880695343017578125" lon="-8.4642134606838226318359375">
        <ele>303.399993896484375</ele>
        <time>2020-11-25T16:09:59.000Z</time>
      </trkpt>
      <trkpt lat="41.424702219665050506591796875" lon="-8.46410759724676609039306640625">
        <ele>302.399993896484375</ele>
        <time>2020-11-25T16:10:02.000Z</time>
      </trkpt>
      <trkpt lat="41.42470632679760456085205078125" lon="-8.46407608129084110260009765625">
        <ele>302.20001220703125</ele>
        <time>2020-11-25T16:10:03.000Z</time>
      </trkpt>
      <trkpt lat="41.424726359546184539794921875" lon="-8.46399108879268169403076171875">
        <ele>301.79998779296875</ele>
        <time>2020-11-25T16:10:06.000Z</time>
      </trkpt>
      <trkpt lat="41.42479634843766689300537109375" lon="-8.4639112092554569244384765625">
        <ele>301.399993896484375</ele>
        <time>2020-11-25T16:10:10.000Z</time>
      </trkpt>
      <trkpt lat="41.42483222298324108123779296875" lon="-8.4639148972928524017333984375">
        <ele>301.79998779296875</ele>
        <time>2020-11-25T16:10:12.000Z</time>
      </trkpt>
      <trkpt lat="41.42486742697656154632568359375" lon="-8.4639531187713146209716796875">
        <ele>302.399993896484375</ele>
        <time>2020-11-25T16:10:14.000Z</time>
      </trkpt>
      <trkpt lat="41.42489240504801273345947265625" lon="-8.46398706547915935516357421875">
        <ele>303</ele>
        <time>2020-11-25T16:10:16.000Z</time>
      </trkpt>
      <trkpt lat="41.42490631900727748870849609375" lon="-8.46399645321071147918701171875">
        <ele>303.20001220703125</ele>
        <time>2020-11-25T16:10:17.000Z</time>
      </trkpt>
      <trkpt lat="41.4249216578900814056396484375" lon="-8.463997878134250640869140625">
        <ele>303.399993896484375</ele>
        <time>2020-11-25T16:10:18.000Z</time>
      </trkpt>
      <trkpt lat="41.4249917306005954742431640625" lon="-8.463982455432415008544921875">
        <ele>303.600006103515625</ele>
        <time>2020-11-25T16:10:22.000Z</time>
      </trkpt>
      <trkpt lat="41.4251462928950786590576171875" lon="-8.463908694684505462646484375">
        <ele>303.600006103515625</ele>
        <time>2020-11-25T16:10:28.000Z</time>
      </trkpt>
      <trkpt lat="41.425294987857341766357421875" lon="-8.46383057534694671630859375">
        <ele>304.20001220703125</ele>
        <time>2020-11-25T16:10:35.000Z</time>
      </trkpt>
      <trkpt lat="41.4253382384777069091796875" lon="-8.4638012386858463287353515625">
        <ele>304.399993896484375</ele>
        <time>2020-11-25T16:10:37.000Z</time>
      </trkpt>
      <trkpt lat="41.425432451069355010986328125" lon="-8.4637606702744960784912109375">
        <ele>305.399993896484375</ele>
        <time>2020-11-25T16:10:42.000Z</time>
      </trkpt>
      <trkpt lat="41.42561526037752628326416015625" lon="-8.4636755101382732391357421875">
        <ele>306.600006103515625</ele>
        <time>2020-11-25T16:10:50.000Z</time>
      </trkpt>
      <trkpt lat="41.425795219838619232177734375" lon="-8.4635846503078937530517578125">
        <ele>306.79998779296875</ele>
        <time>2020-11-25T16:10:58.000Z</time>
      </trkpt>
      <trkpt lat="41.425948776304721832275390625" lon="-8.46344073303043842315673828125">
        <ele>305.79998779296875</ele>
        <time>2020-11-25T16:11:06.000Z</time>
      </trkpt>
      <trkpt lat="41.4259895123541355133056640625" lon="-8.46339932642877101898193359375">
        <ele>305.600006103515625</ele>
        <time>2020-11-25T16:11:08.000Z</time>
      </trkpt>
      <trkpt lat="41.42611582763493061065673828125" lon="-8.4632071293890476226806640625">
        <ele>305.399993896484375</ele>
        <time>2020-11-25T16:11:15.000Z</time>
      </trkpt>
      <trkpt lat="41.42617869190871715545654296875" lon="-8.4629539959132671356201171875">
        <ele>306</ele>
        <time>2020-11-25T16:11:23.000Z</time>
      </trkpt>
      <trkpt lat="41.4262354373931884765625" lon="-8.46278325654566287994384765625">
        <ele>306.79998779296875</ele>
        <time>2020-11-25T16:11:29.000Z</time>
      </trkpt>
      <trkpt lat="41.42629151232540607452392578125" lon="-8.4625355713069438934326171875">
        <ele>307.399993896484375</ele>
        <time>2020-11-25T16:11:37.000Z</time>
      </trkpt>
      <trkpt lat="41.42640282399952411651611328125" lon="-8.46234194934368133544921875">
        <ele>307.600006103515625</ele>
        <time>2020-11-25T16:20:11.000Z</time>
      </trkpt>
      <trkpt lat="41.4264029078185558319091796875" lon="-8.46232979558408260345458984375">
        <ele>308</ele>
        <time>2020-11-25T16:20:12.000Z</time>
      </trkpt>
      <trkpt lat="41.42640349455177783966064453125" lon="-8.46231386996805667877197265625">
        <ele>307.79998779296875</ele>
        <time>2020-11-25T16:20:13.000Z</time>
      </trkpt>
      <trkpt lat="41.42640198580920696258544921875" lon="-8.46229040063917636871337890625">
        <ele>307.600006103515625</ele>
        <time>2020-11-25T16:20:14.000Z</time>
      </trkpt>
      <trkpt lat="41.426401399075984954833984375" lon="-8.46227221190929412841796875">
        <ele>307.600006103515625</ele>
        <time>2020-11-25T16:20:15.000Z</time>
      </trkpt>
      <trkpt lat="41.42640776932239532470703125" lon="-8.46215151250362396240234375">
        <ele>307.399993896484375</ele>
        <time>2020-11-25T16:20:20.000Z</time>
      </trkpt>
      <trkpt lat="41.42641405574977397918701171875" lon="-8.4620973654091358184814453125">
        <ele>307.20001220703125</ele>
        <time>2020-11-25T16:20:22.000Z</time>
      </trkpt>
      <trkpt lat="41.4264280535280704498291015625" lon="-8.4620464034378528594970703125">
        <ele>307</ele>
        <time>2020-11-25T16:20:24.000Z</time>
      </trkpt>
      <trkpt lat="41.426432244479656219482421875" lon="-8.46202008426189422607421875">
        <ele>306.79998779296875</ele>
        <time>2020-11-25T16:20:25.000Z</time>
      </trkpt>
      <trkpt lat="41.42643970437347888946533203125" lon="-8.4619686193764209747314453125">
        <ele>306.79998779296875</ele>
        <time>2020-11-25T16:20:27.000Z</time>
      </trkpt>
      <trkpt lat="41.4264728128910064697265625" lon="-8.46187256276607513427734375">
        <ele>306.20001220703125</ele>
        <time>2020-11-25T16:20:31.000Z</time>
      </trkpt>
      <trkpt lat="41.42650390975177288055419921875" lon="-8.46180659718811511993408203125">
        <ele>305.600006103515625</ele>
        <time>2020-11-25T16:20:34.000Z</time>
      </trkpt>
      <trkpt lat="41.42656057141721248626708984375" lon="-8.4617124684154987335205078125">
        <ele>304.600006103515625</ele>
        <time>2020-11-25T16:20:38.000Z</time>
      </trkpt>
      <trkpt lat="41.426725946366786956787109375" lon="-8.4615874104201793670654296875">
        <ele>304</ele>
        <time>2020-11-25T16:20:47.000Z</time>
      </trkpt>
      <trkpt lat="41.42683231271803379058837890625" lon="-8.46147417090833187103271484375">
        <ele>303.79998779296875</ele>
        <time>2020-11-25T16:20:53.000Z</time>
      </trkpt>
      <trkpt lat="41.42684421502053737640380859375" lon="-8.46144785173237323760986328125">
        <ele>303.600006103515625</ele>
        <time>2020-11-25T16:20:54.000Z</time>
      </trkpt>
      <trkpt lat="41.426872126758098602294921875" lon="-8.4613309241831302642822265625">
        <ele>303.20001220703125</ele>
        <time>2020-11-25T16:20:58.000Z</time>
      </trkpt>
      <trkpt lat="41.42689752392470836639404296875" lon="-8.46109807491302490234375">
        <ele>302.79998779296875</ele>
        <time>2020-11-25T16:21:07.000Z</time>
      </trkpt>
      <trkpt lat="41.42693708650767803192138671875" lon="-8.46104853786528110504150390625">
        <ele>302.79998779296875</ele>
        <time>2020-11-25T16:21:18.000Z</time>
      </trkpt>
      <trkpt lat="41.42694530077278614044189453125" lon="-8.46104350872337818145751953125">
        <ele>303.20001220703125</ele>
        <time>2020-11-25T16:21:19.000Z</time>
      </trkpt>
      <trkpt lat="41.42698000185191631317138671875" lon="-8.46104317344725131988525390625">
        <ele>303.79998779296875</ele>
        <time>2020-11-25T16:21:21.000Z</time>
      </trkpt>
      <trkpt lat="41.4270248450338840484619140625" lon="-8.46107594668865203857421875">
        <ele>304.79998779296875</ele>
        <time>2020-11-25T16:21:24.000Z</time>
      </trkpt>
      <trkpt lat="41.42706985585391521453857421875" lon="-8.46112280152738094329833984375">
        <ele>305.79998779296875</ele>
        <time>2020-11-25T16:21:27.000Z</time>
      </trkpt>
      <trkpt lat="41.42709500156342983245849609375" lon="-8.46115482039749622344970703125">
        <ele>306.20001220703125</ele>
        <time>2020-11-25T16:21:29.000Z</time>
      </trkpt>
      <trkpt lat="41.42712132073938846588134765625" lon="-8.4611880965530872344970703125">
        <ele>307</ele>
        <time>2020-11-25T16:21:31.000Z</time>
      </trkpt>
      <trkpt lat="41.42714763991534709930419921875" lon="-8.461224138736724853515625">
        <ele>307.399993896484375</ele>
        <time>2020-11-25T16:21:33.000Z</time>
      </trkpt>
      <trkpt lat="41.427186615765094757080078125" lon="-8.46128457225859165191650390625">
        <ele>308</ele>
        <time>2020-11-25T16:21:36.000Z</time>
      </trkpt>
      <trkpt lat="41.42719767987728118896484375" lon="-8.46130401827394962310791015625">
        <ele>308.20001220703125</ele>
        <time>2020-11-25T16:21:37.000Z</time>
      </trkpt>
      <trkpt lat="41.4272384159266948699951171875" lon="-8.4613634459674358367919921875">
        <ele>309.20001220703125</ele>
        <time>2020-11-25T16:21:40.000Z</time>
      </trkpt>
      <trkpt lat="41.427279822528362274169921875" lon="-8.46141851507127285003662109375">
        <ele>309.79998779296875</ele>
        <time>2020-11-25T16:21:43.000Z</time>
      </trkpt>
      <trkpt lat="41.4273272641003131866455078125" lon="-8.46146486699581146240234375">
        <ele>310.20001220703125</ele>
        <time>2020-11-25T16:21:46.000Z</time>
      </trkpt>
      <trkpt lat="41.427444107830524444580078125" lon="-8.46160434186458587646484375">
        <ele>311.20001220703125</ele>
        <time>2020-11-25T16:21:54.000Z</time>
      </trkpt>
      <trkpt lat="41.427526585757732391357421875" lon="-8.46170702017843723297119140625">
        <ele>311.79998779296875</ele>
        <time>2020-11-25T16:21:59.000Z</time>
      </trkpt>
      <trkpt lat="41.4275911264121532440185546875" lon="-8.4617868997156620025634765625">
        <ele>312.399993896484375</ele>
        <time>2020-11-25T16:22:03.000Z</time>
      </trkpt>
      <trkpt lat="41.427669413387775421142578125" lon="-8.46188890747725963592529296875">
        <ele>313.399993896484375</ele>
        <time>2020-11-25T16:22:08.000Z</time>
      </trkpt>
      <trkpt lat="41.42774174921214580535888671875" lon="-8.4619887359440326690673828125">
        <ele>314.600006103515625</ele>
        <time>2020-11-25T16:22:13.000Z</time>
      </trkpt>
      <trkpt lat="41.42782892100512981414794921875" lon="-8.462081439793109893798828125">
        <ele>315.600006103515625</ele>
        <time>2020-11-25T16:22:18.000Z</time>
      </trkpt>
      <trkpt lat="41.4278452657163143157958984375" lon="-8.4620987065136432647705078125">
        <ele>315.79998779296875</ele>
        <time>2020-11-25T16:22:19.000Z</time>
      </trkpt>
      <trkpt lat="41.42798163928091526031494140625" lon="-8.46226642839610576629638671875">
        <ele>316.79998779296875</ele>
        <time>2020-11-25T16:22:28.000Z</time>
      </trkpt>
      <trkpt lat="41.428008042275905609130859375" lon="-8.46230439841747283935546875">
        <ele>317.20001220703125</ele>
        <time>2020-11-25T16:22:30.000Z</time>
      </trkpt>
      <trkpt lat="41.42806612886488437652587890625" lon="-8.462414033710956573486328125">
        <ele>318.20001220703125</ele>
        <time>2020-11-25T16:22:35.000Z</time>
      </trkpt>
      <trkpt lat="41.4281409792602062225341796875" lon="-8.46250028349459171295166015625">
        <ele>319.20001220703125</ele>
        <time>2020-11-25T16:22:40.000Z</time>
      </trkpt>
      <trkpt lat="41.4282033406198024749755859375" lon="-8.46256901510059833526611328125">
        <ele>320.399993896484375</ele>
        <time>2020-11-25T16:22:44.000Z</time>
      </trkpt>
      <trkpt lat="41.4282752573490142822265625" lon="-8.4626586176455020904541015625">
        <ele>321.600006103515625</ele>
        <time>2020-11-25T16:22:49.000Z</time>
      </trkpt>
      <trkpt lat="41.42832362093031406402587890625" lon="-8.4627226553857326507568359375">
        <ele>323</ele>
        <time>2020-11-25T16:22:53.000Z</time>
      </trkpt>
      <trkpt lat="41.42836485989391803741455078125" lon="-8.462778814136981964111328125">
        <ele>324.20001220703125</ele>
        <time>2020-11-25T16:22:56.000Z</time>
      </trkpt>
      <trkpt lat="41.42841531895101070404052734375" lon="-8.46284192986786365509033203125">
        <ele>325.600006103515625</ele>
        <time>2020-11-25T16:23:00.000Z</time>
      </trkpt>
      <trkpt lat="41.4284561388194561004638671875" lon="-8.46287864260375499725341796875">
        <ele>326.79998779296875</ele>
        <time>2020-11-25T16:23:03.000Z</time>
      </trkpt>
      <trkpt lat="41.42852981574833393096923828125" lon="-8.4628906287252902984619140625">
        <ele>327.79998779296875</ele>
        <time>2020-11-25T16:23:08.000Z</time>
      </trkpt>
      <trkpt lat="41.42871824093163013458251953125" lon="-8.46279867924749851226806640625">
        <ele>326.600006103515625</ele>
        <time>2020-11-25T16:23:17.000Z</time>
      </trkpt>
      <trkpt lat="41.42878915183246135711669921875" lon="-8.4627377428114414215087890625">
        <ele>326.399993896484375</ele>
        <time>2020-11-25T16:23:21.000Z</time>
      </trkpt>
      <trkpt lat="41.42885687761008739471435546875" lon="-8.46264629624783992767333984375">
        <ele>326.20001220703125</ele>
        <time>2020-11-25T16:23:26.000Z</time>
      </trkpt>
      <trkpt lat="41.42888420261442661285400390625" lon="-8.46261293627321720123291015625">
        <ele>326</ele>
        <time>2020-11-25T16:23:28.000Z</time>
      </trkpt>
      <trkpt lat="41.42893667332828044891357421875" lon="-8.46253506839275360107421875">
        <ele>326.20001220703125</ele>
        <time>2020-11-25T16:23:32.000Z</time>
      </trkpt>
      <trkpt lat="41.428987719118595123291015625" lon="-8.46245183609426021575927734375">
        <ele>326</ele>
        <time>2020-11-25T16:23:36.000Z</time>
      </trkpt>
      <trkpt lat="41.42906676046550273895263671875" lon="-8.4623347409069538116455078125">
        <ele>325.79998779296875</ele>
        <time>2020-11-25T16:23:41.000Z</time>
      </trkpt>
      <trkpt lat="41.42908461391925811767578125" lon="-8.46231043338775634765625">
        <ele>325.399993896484375</ele>
        <time>2020-11-25T16:23:42.000Z</time>
      </trkpt>
      <trkpt lat="41.42911403439939022064208984375" lon="-8.462257795035839080810546875">
        <ele>325</ele>
        <time>2020-11-25T16:23:44.000Z</time>
      </trkpt>
      <trkpt lat="41.4291528426110744476318359375" lon="-8.46220809035003185272216796875">
        <ele>324.20001220703125</ele>
        <time>2020-11-25T16:23:46.000Z</time>
      </trkpt>
      <trkpt lat="41.42928821034729480743408203125" lon="-8.4620460681617259979248046875">
        <ele>323.79998779296875</ele>
        <time>2020-11-25T16:23:54.000Z</time>
      </trkpt>
      <trkpt lat="41.42931402660906314849853515625" lon="-8.46200306899845600128173828125">
        <ele>323.79998779296875</ele>
        <time>2020-11-25T16:23:56.000Z</time>
      </trkpt>
      <trkpt lat="41.42936297692358493804931640625" lon="-8.461935929954051971435546875">
        <ele>323.79998779296875</ele>
        <time>2020-11-25T16:23:59.000Z</time>
      </trkpt>
      <trkpt lat="41.429501362144947052001953125" lon="-8.46176871098577976226806640625">
        <ele>324</ele>
        <time>2020-11-25T16:24:07.000Z</time>
      </trkpt>
      <trkpt lat="41.42961326055228710174560546875" lon="-8.46173434518277645111083984375">
        <ele>325.399993896484375</ele>
        <time>2020-11-25T16:24:13.000Z</time>
      </trkpt>
      <trkpt lat="41.42964913509786128997802734375" lon="-8.4617121331393718719482421875">
        <ele>325.79998779296875</ele>
        <time>2020-11-25T16:24:15.000Z</time>
      </trkpt>
      <trkpt lat="41.4298012666404247283935546875" lon="-8.46152764745056629180908203125">
        <ele>326.20001220703125</ele>
        <time>2020-11-25T16:24:23.000Z</time>
      </trkpt>
      <trkpt lat="41.4299611933529376983642578125" lon="-8.46134726889431476593017578125">
        <ele>325.399993896484375</ele>
        <time>2020-11-25T16:24:31.000Z</time>
      </trkpt>
      <trkpt lat="41.4300406537950038909912109375" lon="-8.461253643035888671875">
        <ele>324.79998779296875</ele>
        <time>2020-11-25T16:24:35.000Z</time>
      </trkpt>
      <trkpt lat="41.43011231906712055206298828125" lon="-8.4611988253891468048095703125">
        <ele>324.399993896484375</ele>
        <time>2020-11-25T16:24:39.000Z</time>
      </trkpt>
      <trkpt lat="41.4301663823425769805908203125" lon="-8.46122371964156627655029296875">
        <ele>323.79998779296875</ele>
        <time>2020-11-25T16:26:35.000Z</time>
      </trkpt>
      <trkpt lat="41.43018155358731746673583984375" lon="-8.46123109571635723114013671875">
        <ele>324</ele>
        <time>2020-11-25T16:26:37.000Z</time>
      </trkpt>
      <trkpt lat="41.430203430354595184326171875" lon="-8.4612474404275417327880859375">
        <ele>323.600006103515625</ele>
        <time>2020-11-25T16:26:39.000Z</time>
      </trkpt>
      <trkpt lat="41.430216841399669647216796875" lon="-8.46125657670199871063232421875">
        <ele>323.20001220703125</ele>
        <time>2020-11-25T16:26:40.000Z</time>
      </trkpt>
      <trkpt lat="41.4302290789783000946044921875" lon="-8.46127308905124664306640625">
        <ele>322.79998779296875</ele>
        <time>2020-11-25T16:26:41.000Z</time>
      </trkpt>
      <trkpt lat="41.43024609424173831939697265625" lon="-8.46128842793405055999755859375">
        <ele>322.600006103515625</ele>
        <time>2020-11-25T16:26:42.000Z</time>
      </trkpt>
      <trkpt lat="41.43026403151452541351318359375" lon="-8.4613010846078395843505859375">
        <ele>322.399993896484375</ele>
        <time>2020-11-25T16:26:43.000Z</time>
      </trkpt>
      <trkpt lat="41.430324800312519073486328125" lon="-8.4613342769443988800048828125">
        <ele>321.20001220703125</ele>
        <time>2020-11-25T16:26:46.000Z</time>
      </trkpt>
      <trkpt lat="41.43039898015558719635009765625" lon="-8.4613550640642642974853515625">
        <ele>320.79998779296875</ele>
        <time>2020-11-25T16:26:50.000Z</time>
      </trkpt>
      <trkpt lat="41.43045312725007534027099609375" lon="-8.461363278329372406005859375">
        <ele>320.399993896484375</ele>
        <time>2020-11-25T16:26:52.000Z</time>
      </trkpt>
      <trkpt lat="41.43048061989247798919677734375" lon="-8.46136805601418018341064453125">
        <ele>320.20001220703125</ele>
        <time>2020-11-25T16:26:53.000Z</time>
      </trkpt>
      <trkpt lat="41.43053359352052211761474609375" lon="-8.461374007165431976318359375">
        <ele>320</ele>
        <time>2020-11-25T16:26:55.000Z</time>
      </trkpt>
      <trkpt lat="41.4305965416133403778076171875" lon="-8.4613523818552494049072265625">
        <ele>320.399993896484375</ele>
        <time>2020-11-25T16:26:58.000Z</time>
      </trkpt>
      <trkpt lat="41.43062344752252101898193359375" lon="-8.46132346428930759429931640625">
        <ele>321.600006103515625</ele>
        <time>2020-11-25T16:27:00.000Z</time>
      </trkpt>
      <trkpt lat="41.430649347603321075439453125" lon="-8.46127736382186412811279296875">
        <ele>322.79998779296875</ele>
        <time>2020-11-25T16:27:03.000Z</time>
      </trkpt>
      <trkpt lat="41.43067474476993083953857421875" lon="-8.46121567301452159881591796875">
        <ele>324.20001220703125</ele>
        <time>2020-11-25T16:27:06.000Z</time>
      </trkpt>
      <trkpt lat="41.43068044446408748626708984375" lon="-8.46118231303989887237548828125">
        <ele>325</ele>
        <time>2020-11-25T16:27:08.000Z</time>
      </trkpt>
      <trkpt lat="41.4306850545108318328857421875" lon="-8.46117141656577587127685546875">
        <ele>325.399993896484375</ele>
        <time>2020-11-25T16:27:09.000Z</time>
      </trkpt>
      <trkpt lat="41.430698968470096588134765625" lon="-8.46116554923355579376220703125">
        <ele>325.600006103515625</ele>
        <time>2020-11-25T16:27:11.000Z</time>
      </trkpt>
      <trkpt lat="41.43072352744638919830322265625" lon="-8.46115750260651111602783203125">
        <ele>324.79998779296875</ele>
        <time>2020-11-25T16:27:14.000Z</time>
      </trkpt>
      <trkpt lat="41.4307373575866222381591796875" lon="-8.46115649677813053131103515625">
        <ele>324.79998779296875</ele>
        <time>2020-11-25T16:27:16.000Z</time>
      </trkpt>
      <trkpt lat="41.4307604916393756866455078125" lon="-8.46115917898714542388916015625">
        <ele>324.600006103515625</ele>
        <time>2020-11-25T16:27:21.000Z</time>
      </trkpt>
      <trkpt lat="41.430769376456737518310546875" lon="-8.461133278906345367431640625">
        <ele>324.20001220703125</ele>
        <time>2020-11-25T16:27:22.000Z</time>
      </trkpt>
      <trkpt lat="41.43078505061566829681396484375" lon="-8.4611170180141925811767578125">
        <ele>324</ele>
        <time>2020-11-25T16:27:23.000Z</time>
      </trkpt>
      <trkpt lat="41.43085093237459659576416015625" lon="-8.46101827919483184814453125">
        <ele>324.399993896484375</ele>
        <time>2020-11-25T16:27:33.000Z</time>
      </trkpt>
      <trkpt lat="41.4308635890483856201171875" lon="-8.460990451276302337646484375">
        <ele>324.20001220703125</ele>
        <time>2020-11-25T16:27:38.000Z</time>
      </trkpt>
      <trkpt lat="41.43086954019963741302490234375" lon="-8.4609854221343994140625">
        <ele>324.600006103515625</ele>
        <time>2020-11-25T16:27:40.000Z</time>
      </trkpt>
      <trkpt lat="41.43092863261699676513671875" lon="-8.4609497152268886566162109375">
        <ele>323.79998779296875</ele>
        <time>2020-11-25T16:27:46.000Z</time>
      </trkpt>
      <trkpt lat="41.4309697039425373077392578125" lon="-8.46094912849366664886474609375">
        <ele>322.79998779296875</ele>
        <time>2020-11-25T16:27:49.000Z</time>
      </trkpt>
      <trkpt lat="41.4309945143759250640869140625" lon="-8.46096337772905826568603515625">
        <ele>321.79998779296875</ele>
        <time>2020-11-25T16:27:51.000Z</time>
      </trkpt>
      <trkpt lat="41.43101991154253482818603515625" lon="-8.460998833179473876953125">
        <ele>320.600006103515625</ele>
        <time>2020-11-25T16:27:53.000Z</time>
      </trkpt>
      <trkpt lat="41.4310662634670734405517578125" lon="-8.4611052833497524261474609375">
        <ele>319.600006103515625</ele>
        <time>2020-11-25T16:27:57.000Z</time>
      </trkpt>
      <trkpt lat="41.4311246015131473541259765625" lon="-8.46127786673605442047119140625">
        <ele>318.600006103515625</ele>
        <time>2020-11-25T16:28:06.000Z</time>
      </trkpt>
      <trkpt lat="41.43112041056156158447265625" lon="-8.46129194833338260650634765625">
        <ele>318.20001220703125</ele>
        <time>2020-11-25T16:28:07.000Z</time>
      </trkpt>
      <trkpt lat="41.43112015910446643829345703125" lon="-8.46131055615842342376708984375">
        <ele>317.79998779296875</ele>
        <time>2020-11-25T16:28:08.000Z</time>
      </trkpt>
      <trkpt lat="41.4311360009014606475830078125" lon="-8.46136922948062419891357421875">
        <ele>317.79998779296875</ele>
        <time>2020-11-25T16:28:12.000Z</time>
      </trkpt>
      <trkpt lat="41.4311517588794231414794921875" lon="-8.4613872505724430084228515625">
        <ele>317.79998779296875</ele>
        <time>2020-11-25T16:28:14.000Z</time>
      </trkpt>
      <trkpt lat="41.43117732368409633636474609375" lon="-8.4614070318639278411865234375">
        <ele>318</ele>
        <time>2020-11-25T16:28:16.000Z</time>
      </trkpt>
      <trkpt lat="41.43130682408809661865234375" lon="-8.46150635741651058197021484375">
        <ele>317.600006103515625</ele>
        <time>2020-11-25T16:28:24.000Z</time>
      </trkpt>
      <trkpt lat="41.43131763674318790435791015625" lon="-8.4615173377096652984619140625">
        <ele>317.20001220703125</ele>
        <time>2020-11-25T16:28:25.000Z</time>
      </trkpt>
      <trkpt lat="41.4313361607491970062255859375" lon="-8.461540304124355316162109375">
        <ele>315.79998779296875</ele>
        <time>2020-11-25T16:28:27.000Z</time>
      </trkpt>
      <trkpt lat="41.4313572831451892852783203125" lon="-8.46157676540315151214599609375">
        <ele>315</ele>
        <time>2020-11-25T16:28:29.000Z</time>
      </trkpt>
      <trkpt lat="41.43136742524802684783935546875" lon="-8.46163426525890827178955078125">
        <ele>314.600006103515625</ele>
        <time>2020-11-25T16:28:31.000Z</time>
      </trkpt>
      <trkpt lat="41.43137924373149871826171875" lon="-8.46175898797810077667236328125">
        <ele>313.600006103515625</ele>
        <time>2020-11-25T16:28:36.000Z</time>
      </trkpt>
      <trkpt lat="41.43141889013350009918212890625" lon="-8.4618200920522212982177734375">
        <ele>312.79998779296875</ele>
        <time>2020-11-25T16:28:39.000Z</time>
      </trkpt>
      <trkpt lat="41.431433893740177154541015625" lon="-8.46183576621115207672119140625">
        <ele>312.399993896484375</ele>
        <time>2020-11-25T16:28:40.000Z</time>
      </trkpt>
      <trkpt lat="41.431482844054698944091796875" lon="-8.46188253723084926605224609375">
        <ele>311</ele>
        <time>2020-11-25T16:28:43.000Z</time>
      </trkpt>
      <trkpt lat="41.43155668862164020538330078125" lon="-8.4619257040321826934814453125">
        <ele>309.79998779296875</ele>
        <time>2020-11-25T16:28:47.000Z</time>
      </trkpt>
      <trkpt lat="41.43161117099225521087646484375" lon="-8.46195965074002742767333984375">
        <ele>308.600006103515625</ele>
        <time>2020-11-25T16:28:50.000Z</time>
      </trkpt>
      <trkpt lat="41.43168258480727672576904296875" lon="-8.46200524829328060150146484375">
        <ele>307.600006103515625</ele>
        <time>2020-11-25T16:28:54.000Z</time>
      </trkpt>
      <trkpt lat="41.43174880184233188629150390625" lon="-8.4620339982211589813232421875">
        <ele>306.79998779296875</ele>
        <time>2020-11-25T16:29:10.000Z</time>
      </trkpt>
      <trkpt lat="41.4317572675645351409912109375" lon="-8.46203751862049102783203125">
        <ele>306.600006103515625</ele>
        <time>2020-11-25T16:29:11.000Z</time>
      </trkpt>
      <trkpt lat="41.4317656494677066802978515625" lon="-8.46205101348459720611572265625">
        <ele>306.399993896484375</ele>
        <time>2020-11-25T16:29:12.000Z</time>
      </trkpt>
      <trkpt lat="41.43178786151111125946044921875" lon="-8.46208973787724971771240234375">
        <ele>305.399993896484375</ele>
        <time>2020-11-25T16:29:14.000Z</time>
      </trkpt>
      <trkpt lat="41.431803368031978607177734375" lon="-8.4621114470064640045166015625">
        <ele>304.79998779296875</ele>
        <time>2020-11-25T16:29:15.000Z</time>
      </trkpt>
      <trkpt lat="41.43185793422162532806396484375" lon="-8.462178669869899749755859375">
        <ele>303.600006103515625</ele>
        <time>2020-11-25T16:29:18.000Z</time>
      </trkpt>
      <trkpt lat="41.43189917318522930145263671875" lon="-8.46219987608492374420166015625">
        <ele>302.600006103515625</ele>
        <time>2020-11-25T16:29:20.000Z</time>
      </trkpt>
      <trkpt lat="41.43195885233581066131591796875" lon="-8.46222401596605777740478515625">
        <ele>301.399993896484375</ele>
        <time>2020-11-25T16:29:23.000Z</time>
      </trkpt>
      <trkpt lat="41.4320196211338043212890625" lon="-8.4622442163527011871337890625">
        <ele>300.399993896484375</ele>
        <time>2020-11-25T16:29:26.000Z</time>
      </trkpt>
      <trkpt lat="41.4320811443030834197998046875" lon="-8.4622297994792461395263671875">
        <ele>299.20001220703125</ele>
        <time>2020-11-25T16:29:29.000Z</time>
      </trkpt>
      <trkpt lat="41.4321622811257839202880859375" lon="-8.46213282085955142974853515625">
        <ele>299.399993896484375</ele>
        <time>2020-11-25T16:29:34.000Z</time>
      </trkpt>
      <trkpt lat="41.432231180369853973388671875" lon="-8.4619981236755847930908203125">
        <ele>300.20001220703125</ele>
        <time>2020-11-25T16:29:40.000Z</time>
      </trkpt>
      <trkpt lat="41.43225925974547863006591796875" lon="-8.46195210702717304229736328125">
        <ele>300.79998779296875</ele>
        <time>2020-11-25T16:29:42.000Z</time>
      </trkpt>
      <trkpt lat="41.43227241933345794677734375" lon="-8.46192997880280017852783203125">
        <ele>301.20001220703125</ele>
        <time>2020-11-25T16:29:43.000Z</time>
      </trkpt>
      <trkpt lat="41.4323409833014011383056640625" lon="-8.4618182480335235595703125">
        <ele>302</ele>
        <time>2020-11-25T16:29:48.000Z</time>
      </trkpt>
      <trkpt lat="41.432352550327777862548828125" lon="-8.46180014312267303466796875">
        <ele>302.399993896484375</ele>
        <time>2020-11-25T16:29:49.000Z</time>
      </trkpt>
      <trkpt lat="41.432382725179195404052734375" lon="-8.46175546757876873016357421875">
        <ele>303.600006103515625</ele>
        <time>2020-11-25T16:29:52.000Z</time>
      </trkpt>
      <trkpt lat="41.4324006624519824981689453125" lon="-8.46171741373836994171142578125">
        <ele>304.399993896484375</ele>
        <time>2020-11-25T16:29:54.000Z</time>
      </trkpt>
      <trkpt lat="41.4324192702770233154296875" lon="-8.46167785115540027618408203125">
        <ele>305</ele>
        <time>2020-11-25T16:29:56.000Z</time>
      </trkpt>
      <trkpt lat="41.43243745900690555572509765625" lon="-8.46163728274405002593994140625">
        <ele>305.600006103515625</ele>
        <time>2020-11-25T16:29:58.000Z</time>
      </trkpt>
      <trkpt lat="41.43245338462293148040771484375" lon="-8.46160325221717357635498046875">
        <ele>306.399993896484375</ele>
        <time>2020-11-25T16:30:00.000Z</time>
      </trkpt>
      <trkpt lat="41.43248842097818851470947265625" lon="-8.461553715169429779052734375">
        <ele>307.20001220703125</ele>
        <time>2020-11-25T16:30:03.000Z</time>
      </trkpt>
      <trkpt lat="41.43249562941491603851318359375" lon="-8.4615339338779449462890625">
        <ele>307.399993896484375</ele>
        <time>2020-11-25T16:30:04.000Z</time>
      </trkpt>
      <trkpt lat="41.4325146563351154327392578125" lon="-8.46142572350800037384033203125">
        <ele>308.600006103515625</ele>
        <time>2020-11-25T16:30:09.000Z</time>
      </trkpt>
      <trkpt lat="41.4325158298015594482421875" lon="-8.4613406471908092498779296875">
        <ele>309.399993896484375</ele>
        <time>2020-11-25T16:30:13.000Z</time>
      </trkpt>
      <trkpt lat="41.4324891753494739532470703125" lon="-8.46129513345658779144287109375">
        <ele>309.600006103515625</ele>
        <time>2020-11-25T16:30:35.000Z</time>
      </trkpt>
      <trkpt lat="41.4324782788753509521484375" lon="-8.46127501688897609710693359375">
        <ele>310</ele>
        <time>2020-11-25T16:30:36.000Z</time>
      </trkpt>
      <trkpt lat="41.4324541389942169189453125" lon="-8.4612085483968257904052734375">
        <ele>310.79998779296875</ele>
        <time>2020-11-25T16:30:39.000Z</time>
      </trkpt>
      <trkpt lat="41.43243360333144664764404296875" lon="-8.46106521785259246826171875">
        <ele>312</ele>
        <time>2020-11-25T16:30:45.000Z</time>
      </trkpt>
      <trkpt lat="41.43243142403662204742431640625" lon="-8.460944853723049163818359375">
        <ele>313.20001220703125</ele>
        <time>2020-11-25T16:30:50.000Z</time>
      </trkpt>
      <trkpt lat="41.432425640523433685302734375" lon="-8.46085038967430591583251953125">
        <ele>314.20001220703125</ele>
        <time>2020-11-25T16:30:54.000Z</time>
      </trkpt>
      <trkpt lat="41.43242958001792430877685546875" lon="-8.460771180689334869384765625">
        <ele>315</ele>
        <time>2020-11-25T16:30:58.000Z</time>
      </trkpt>
      <trkpt lat="41.43243603408336639404296875" lon="-8.4607606194913387298583984375">
        <ele>315.20001220703125</ele>
        <time>2020-11-25T16:30:59.000Z</time>
      </trkpt>
      <trkpt lat="41.43244550563395023345947265625" lon="-8.460753746330738067626953125">
        <ele>315.399993896484375</ele>
        <time>2020-11-25T16:31:00.000Z</time>
      </trkpt>
      <trkpt lat="41.4324898459017276763916015625" lon="-8.4607525728642940521240234375">
        <ele>315.79998779296875</ele>
        <time>2020-11-25T16:31:03.000Z</time>
      </trkpt>
      <trkpt lat="41.43265320919454097747802734375" lon="-8.46085198223590850830078125">
        <ele>315.600006103515625</ele>
        <time>2020-11-25T16:31:11.000Z</time>
      </trkpt>
      <trkpt lat="41.43271724693477153778076171875" lon="-8.46092171967029571533203125">
        <ele>315.399993896484375</ele>
        <time>2020-11-25T16:31:15.000Z</time>
      </trkpt>
      <trkpt lat="41.43282788805663585662841796875" lon="-8.46112045459449291229248046875">
        <ele>315.20001220703125</ele>
        <time>2020-11-25T16:31:23.000Z</time>
      </trkpt>
      <trkpt lat="41.4328532852232456207275390625" lon="-8.4611602686345577239990234375">
        <ele>315.20001220703125</ele>
        <time>2020-11-25T16:31:25.000Z</time>
      </trkpt>
      <trkpt lat="41.43290315754711627960205078125" lon="-8.4612055309116840362548828125">
        <ele>315.399993896484375</ele>
        <time>2020-11-25T16:31:28.000Z</time>
      </trkpt>
      <trkpt lat="41.432954706251621246337890625" lon="-8.4611337818205356597900390625">
        <ele>316.399993896484375</ele>
        <time>2020-11-25T16:31:33.000Z</time>
      </trkpt>
      <trkpt lat="41.4330011419951915740966796875" lon="-8.46106865443289279937744140625">
        <ele>317.600006103515625</ele>
        <time>2020-11-25T16:31:37.000Z</time>
      </trkpt>
      <trkpt lat="41.4330303110182285308837890625" lon="-8.461040072143077850341796875">
        <ele>318.20001220703125</ele>
        <time>2020-11-25T16:31:39.000Z</time>
      </trkpt>
      <trkpt lat="41.43305336125195026397705078125" lon="-8.4610110707581043243408203125">
        <ele>318.79998779296875</ele>
        <time>2020-11-25T16:31:41.000Z</time>
      </trkpt>
      <trkpt lat="41.4331340789794921875" lon="-8.46092448569834232330322265625">
        <ele>319.79998779296875</ele>
        <time>2020-11-25T16:31:47.000Z</time>
      </trkpt>
      <trkpt lat="41.433214880526065826416015625" lon="-8.46085055731236934661865234375">
        <ele>320.79998779296875</ele>
        <time>2020-11-25T16:31:53.000Z</time>
      </trkpt>
      <trkpt lat="41.43322334624826908111572265625" lon="-8.460834212601184844970703125">
        <ele>320.79998779296875</ele>
        <time>2020-11-25T16:31:54.000Z</time>
      </trkpt>
      <trkpt lat="41.43328419886529445648193359375" lon="-8.46067034639418125152587890625">
        <ele>322.20001220703125</ele>
        <time>2020-11-25T16:32:01.000Z</time>
      </trkpt>
      <trkpt lat="41.43334086053073406219482421875" lon="-8.46051746048033237457275390625">
        <ele>323.399993896484375</ele>
        <time>2020-11-25T16:32:07.000Z</time>
      </trkpt>
      <trkpt lat="41.4334229193627834320068359375" lon="-8.4603331424295902252197265625">
        <ele>324.399993896484375</ele>
        <time>2020-11-25T16:32:15.000Z</time>
      </trkpt>
      <trkpt lat="41.433506570756435394287109375" lon="-8.4601675160229206085205078125">
        <ele>325.399993896484375</ele>
        <time>2020-11-25T16:32:23.000Z</time>
      </trkpt>
      <trkpt lat="41.4335369132459163665771484375" lon="-8.46010423265397548675537109375">
        <ele>325.79998779296875</ele>
        <time>2020-11-25T16:32:27.000Z</time>
      </trkpt>
      <trkpt lat="41.43357865512371063232421875" lon="-8.46010230481624603271484375">
        <ele>325.20001220703125</ele>
        <time>2020-11-25T16:32:31.000Z</time>
      </trkpt>
      <trkpt lat="41.43365836702287197113037109375" lon="-8.4600734710693359375">
        <ele>324.600006103515625</ele>
        <time>2020-11-25T16:33:05.000Z</time>
      </trkpt>
      <trkpt lat="41.43365736119449138641357421875" lon="-8.46006969921290874481201171875">
        <ele>324.600006103515625</ele>
        <time>2020-11-25T16:33:06.000Z</time>
      </trkpt>
      <trkpt lat="41.43366037867963314056396484375" lon="-8.46001907251775264739990234375">
        <ele>325.399993896484375</ele>
        <time>2020-11-25T16:33:09.000Z</time>
      </trkpt>
      <trkpt lat="41.43366205506026744842529296875" lon="-8.459944389760494232177734375">
        <ele>326</ele>
        <time>2020-11-25T16:33:12.000Z</time>
      </trkpt>
      <trkpt lat="41.43366490490734577178955078125" lon="-8.459825031459331512451171875">
        <ele>326.79998779296875</ele>
        <time>2020-11-25T16:33:16.000Z</time>
      </trkpt>
      <trkpt lat="41.43365635536611080169677734375" lon="-8.45975889824330806732177734375">
        <ele>327.399993896484375</ele>
        <time>2020-11-25T16:33:18.000Z</time>
      </trkpt>
      <trkpt lat="41.43365551717579364776611328125" lon="-8.45972553826868534088134765625">
        <ele>327.79998779296875</ele>
        <time>2020-11-25T16:33:19.000Z</time>
      </trkpt>
      <trkpt lat="41.43364998511970043182373046875" lon="-8.45962512306869029998779296875">
        <ele>328.20001220703125</ele>
        <time>2020-11-25T16:33:22.000Z</time>
      </trkpt>
      <trkpt lat="41.433644033968448638916015625" lon="-8.459523282945156097412109375">
        <ele>328.79998779296875</ele>
        <time>2020-11-25T16:33:25.000Z</time>
      </trkpt>
      <trkpt lat="41.4336428605020046234130859375" lon="-8.45949050970375537872314453125">
        <ele>329</ele>
        <time>2020-11-25T16:33:26.000Z</time>
      </trkpt>
      <trkpt lat="41.4336557686328887939453125" lon="-8.4593923576176166534423828125">
        <ele>329.399993896484375</ele>
        <time>2020-11-25T16:33:29.000Z</time>
      </trkpt>
      <trkpt lat="41.4336864463984966278076171875" lon="-8.45926788635551929473876953125">
        <ele>329.79998779296875</ele>
        <time>2020-11-25T16:33:33.000Z</time>
      </trkpt>
      <trkpt lat="41.43370027653872966766357421875" lon="-8.4592069499194622039794921875">
        <ele>330</ele>
        <time>2020-11-25T16:33:35.000Z</time>
      </trkpt>
      <trkpt lat="41.433746628463268280029296875" lon="-8.4590456821024417877197265625">
        <ele>330.79998779296875</ele>
        <time>2020-11-25T16:33:40.000Z</time>
      </trkpt>
      <trkpt lat="41.4337732829153537750244140625" lon="-8.45892481505870819091796875">
        <ele>331.20001220703125</ele>
        <time>2020-11-25T16:33:44.000Z</time>
      </trkpt>
      <trkpt lat="41.433809660375118255615234375" lon="-8.4587342105805873870849609375">
        <ele>331.600006103515625</ele>
        <time>2020-11-25T16:33:51.000Z</time>
      </trkpt>
      <trkpt lat="41.4338140189647674560546875" lon="-8.4586527384817600250244140625">
        <ele>331.600006103515625</ele>
        <time>2020-11-25T16:33:55.000Z</time>
      </trkpt>
      <trkpt lat="41.433768086135387420654296875" lon="-8.45861895941197872161865234375">
        <ele>331.399993896484375</ele>
        <time>2020-11-25T16:34:36.000Z</time>
      </trkpt>
      <trkpt lat="41.43376984633505344390869140625" lon="-8.458595909178256988525390625">
        <ele>331.79998779296875</ele>
        <time>2020-11-25T16:34:37.000Z</time>
      </trkpt>
      <trkpt lat="41.43376816995441913604736328125" lon="-8.4585712663829326629638671875">
        <ele>331.79998779296875</ele>
        <time>2020-11-25T16:34:38.000Z</time>
      </trkpt>
      <trkpt lat="41.43377001397311687469482421875" lon="-8.458541594445705413818359375">
        <ele>331.79998779296875</ele>
        <time>2020-11-25T16:34:39.000Z</time>
      </trkpt>
      <trkpt lat="41.433785520493984222412109375" lon="-8.4584783948957920074462890625">
        <ele>331.600006103515625</ele>
        <time>2020-11-25T16:34:41.000Z</time>
      </trkpt>
      <trkpt lat="41.43390320241451263427734375" lon="-8.45829022116959095001220703125">
        <ele>331.20001220703125</ele>
        <time>2020-11-25T16:34:48.000Z</time>
      </trkpt>
      <trkpt lat="41.43393949605524539947509765625" lon="-8.45823355950415134429931640625">
        <ele>330.79998779296875</ele>
        <time>2020-11-25T16:34:50.000Z</time>
      </trkpt>
      <trkpt lat="41.43401275388896465301513671875" lon="-8.45810137689113616943359375">
        <ele>330.600006103515625</ele>
        <time>2020-11-25T16:34:55.000Z</time>
      </trkpt>
      <trkpt lat="41.4340190403163433074951171875" lon="-8.45800079405307769775390625">
        <ele>330.79998779296875</ele>
        <time>2020-11-25T16:34:58.000Z</time>
      </trkpt>
      <trkpt lat="41.434045694768428802490234375" lon="-8.45775537192821502685546875">
        <ele>330.399993896484375</ele>
        <time>2020-11-25T16:35:06.000Z</time>
      </trkpt>
      <trkpt lat="41.43407209776341915130615234375" lon="-8.457571975886821746826171875">
        <ele>330</ele>
        <time>2020-11-25T16:35:11.000Z</time>
      </trkpt>
      <trkpt lat="41.4341243170201778411865234375" lon="-8.45732999034225940704345703125">
        <ele>329.79998779296875</ele>
        <time>2020-11-25T16:35:19.000Z</time>
      </trkpt>
      <trkpt lat="41.4341360516846179962158203125" lon="-8.457085825502872467041015625">
        <ele>329.399993896484375</ele>
        <time>2020-11-25T16:35:25.000Z</time>
      </trkpt>
      <trkpt lat="41.4341640472412109375" lon="-8.45683797262609004974365234375">
        <ele>329.600006103515625</ele>
        <time>2020-11-25T16:35:32.000Z</time>
      </trkpt>
      <trkpt lat="41.43424308858811855316162109375" lon="-8.45661769621074199676513671875">
        <ele>329.79998779296875</ele>
        <time>2020-11-25T16:35:40.000Z</time>
      </trkpt>
      <trkpt lat="41.4343724213540554046630859375" lon="-8.45644502900540828704833984375">
        <ele>329.79998779296875</ele>
        <time>2020-11-25T16:35:47.000Z</time>
      </trkpt>
      <trkpt lat="41.4344991557300090789794921875" lon="-8.456269092857837677001953125">
        <ele>329.79998779296875</ele>
        <time>2020-11-25T16:35:54.000Z</time>
      </trkpt>
      <trkpt lat="41.43453829921782016754150390625" lon="-8.4561938233673572540283203125">
        <ele>329.79998779296875</ele>
        <time>2020-11-25T16:35:57.000Z</time>
      </trkpt>
      <trkpt lat="41.4345856569707393646240234375" lon="-8.456138335168361663818359375">
        <ele>329.79998779296875</ele>
        <time>2020-11-25T16:39:39.000Z</time>
      </trkpt>
      <trkpt lat="41.4345836453139781951904296875" lon="-8.456138335168361663818359375">
        <ele>329.600006103515625</ele>
        <time>2020-11-25T16:39:40.000Z</time>
      </trkpt>
      <trkpt lat="41.4345816336572170257568359375" lon="-8.45613489858806133270263671875">
        <ele>329.600006103515625</ele>
        <time>2020-11-25T16:39:41.000Z</time>
      </trkpt>
      <trkpt lat="41.434569060802459716796875" lon="-8.456130288541316986083984375">
        <ele>329.399993896484375</ele>
        <time>2020-11-25T16:39:43.000Z</time>
      </trkpt>
      <trkpt lat="41.43452589400112628936767578125" lon="-8.45612936653196811676025390625">
        <ele>329.20001220703125</ele>
        <time>2020-11-25T16:39:46.000Z</time>
      </trkpt>
      <trkpt lat="41.43450628034770488739013671875" lon="-8.45612869597971439361572265625">
        <ele>329</ele>
        <time>2020-11-25T16:39:47.000Z</time>
      </trkpt>
      <trkpt lat="41.43443427979946136474609375" lon="-8.4561210684478282928466796875">
        <ele>328.399993896484375</ele>
        <time>2020-11-25T16:39:50.000Z</time>
      </trkpt>
      <trkpt lat="41.4343781210482120513916015625" lon="-8.45611042343080043792724609375">
        <ele>328</ele>
        <time>2020-11-25T16:39:52.000Z</time>
      </trkpt>
      <trkpt lat="41.4342228882014751434326171875" lon="-8.4560828469693660736083984375">
        <ele>327</ele>
        <time>2020-11-25T16:39:57.000Z</time>
      </trkpt>
      <trkpt lat="41.43419262953102588653564453125" lon="-8.4560836851596832275390625">
        <ele>326.79998779296875</ele>
        <time>2020-11-25T16:39:58.000Z</time>
      </trkpt>
      <trkpt lat="41.43402381800115108489990234375" lon="-8.4560597129166126251220703125">
        <ele>325.79998779296875</ele>
        <time>2020-11-25T16:40:04.000Z</time>
      </trkpt>
      <trkpt lat="41.43392289988696575164794921875" lon="-8.45605761744081974029541015625">
        <ele>325.20001220703125</ele>
        <time>2020-11-25T16:40:08.000Z</time>
      </trkpt>
      <trkpt lat="41.433843858540058135986328125" lon="-8.456051163375377655029296875">
        <ele>324.79998779296875</ele>
        <time>2020-11-25T16:40:11.000Z</time>
      </trkpt>
      <trkpt lat="41.43373950384557247161865234375" lon="-8.45604051835834980010986328125">
        <ele>323.600006103515625</ele>
        <time>2020-11-25T16:40:15.000Z</time>
      </trkpt>
      <trkpt lat="41.43357588909566402435302734375" lon="-8.45603783614933490753173828125">
        <ele>322.399993896484375</ele>
        <time>2020-11-25T16:40:21.000Z</time>
      </trkpt>
      <trkpt lat="41.43348419107496738433837890625" lon="-8.45602945424616336822509765625">
        <ele>321.600006103515625</ele>
        <time>2020-11-25T16:40:24.000Z</time>
      </trkpt>
      <trkpt lat="41.43345871008932590484619140625" lon="-8.45602492801845073699951171875">
        <ele>321.399993896484375</ele>
        <time>2020-11-25T16:40:25.000Z</time>
      </trkpt>
      <trkpt lat="41.43326642923057079315185546875" lon="-8.45601554028689861297607421875">
        <ele>320.600006103515625</ele>
        <time>2020-11-25T16:40:32.000Z</time>
      </trkpt>
      <trkpt lat="41.433168947696685791015625" lon="-8.45601034350693225860595703125">
        <ele>320.20001220703125</ele>
        <time>2020-11-25T16:40:35.000Z</time>
      </trkpt>
      <trkpt lat="41.432981528341770172119140625" lon="-8.456000871956348419189453125">
        <ele>320</ele>
        <time>2020-11-25T16:40:42.000Z</time>
      </trkpt>
      <trkpt lat="41.43279318697750568389892578125" lon="-8.45603364519774913787841796875">
        <ele>319.600006103515625</ele>
        <time>2020-11-25T16:40:48.000Z</time>
      </trkpt>
      <trkpt lat="41.4326256327331066131591796875" lon="-8.456101454794406890869140625">
        <ele>319.399993896484375</ele>
        <time>2020-11-25T16:40:54.000Z</time>
      </trkpt>
      <trkpt lat="41.43253116868436336517333984375" lon="-8.456128276884555816650390625">
        <ele>319.399993896484375</ele>
        <time>2020-11-25T16:40:57.000Z</time>
      </trkpt>
      <trkpt lat="41.43241189420223236083984375" lon="-8.45616440288722515106201171875">
        <ele>319.20001220703125</ele>
        <time>2020-11-25T16:41:02.000Z</time>
      </trkpt>
      <trkpt lat="41.4323134906589984893798828125" lon="-8.4562005288898944854736328125">
        <ele>319.20001220703125</ele>
        <time>2020-11-25T16:41:06.000Z</time>
      </trkpt>
      <trkpt lat="41.4321300946176052093505859375" lon="-8.45624939538538455963134765625">
        <ele>319.20001220703125</ele>
        <time>2020-11-25T16:41:13.000Z</time>
      </trkpt>
      <trkpt lat="41.4319493807852268218994140625" lon="-8.456205390393733978271484375">
        <ele>319.20001220703125</ele>
        <time>2020-11-25T16:41:20.000Z</time>
      </trkpt>
      <trkpt lat="41.431780569255352020263671875" lon="-8.456078656017780303955078125">
        <ele>319</ele>
        <time>2020-11-25T16:41:27.000Z</time>
      </trkpt>
      <trkpt lat="41.43162324093282222747802734375" lon="-8.45596491359174251556396484375">
        <ele>318</ele>
        <time>2020-11-25T16:41:34.000Z</time>
      </trkpt>
      <trkpt lat="41.43153506331145763397216796875" lon="-8.4559066593647003173828125">
        <ele>316.79998779296875</ele>
        <time>2020-11-25T16:41:38.000Z</time>
      </trkpt>
      <trkpt lat="41.43142484128475189208984375" lon="-8.4558297134935855865478515625">
        <ele>315.79998779296875</ele>
        <time>2020-11-25T16:41:43.000Z</time>
      </trkpt>
      <trkpt lat="41.43132182769477367401123046875" lon="-8.45575670711696147918701171875">
        <ele>315.20001220703125</ele>
        <time>2020-11-25T16:41:48.000Z</time>
      </trkpt>
      <trkpt lat="41.43127597868442535400390625" lon="-8.45573030412197113037109375">
        <ele>314.79998779296875</ele>
        <time>2020-11-25T16:41:50.000Z</time>
      </trkpt>
      <trkpt lat="41.43114530481398105621337890625" lon="-8.45566467382013797760009765625">
        <ele>313.600006103515625</ele>
        <time>2020-11-25T16:41:56.000Z</time>
      </trkpt>
      <trkpt lat="41.4310548640787601470947265625" lon="-8.45561270602047443389892578125">
        <ele>312.600006103515625</ele>
        <time>2020-11-25T16:42:00.000Z</time>
      </trkpt>
      <trkpt lat="41.4309871383011341094970703125" lon="-8.455568365752696990966796875">
        <ele>311.79998779296875</ele>
        <time>2020-11-25T16:42:03.000Z</time>
      </trkpt>
      <trkpt lat="41.430965848267078399658203125" lon="-8.45555352978408336639404296875">
        <ele>311.399993896484375</ele>
        <time>2020-11-25T16:42:04.000Z</time>
      </trkpt>
      <trkpt lat="41.43087741918861865997314453125" lon="-8.455513380467891693115234375">
        <ele>310.79998779296875</ele>
        <time>2020-11-25T16:42:08.000Z</time>
      </trkpt>
      <trkpt lat="41.43063400872051715850830078125" lon="-8.45558010041713714599609375">
        <ele>308.600006103515625</ele>
        <time>2020-11-25T16:43:50.000Z</time>
      </trkpt>
      <trkpt lat="41.4306273870170116424560546875" lon="-8.45558890141546726226806640625">
        <ele>308.79998779296875</ele>
        <time>2020-11-25T16:43:51.000Z</time>
      </trkpt>
      <trkpt lat="41.430605091154575347900390625" lon="-8.45560683868825435638427734375">
        <ele>308.79998779296875</ele>
        <time>2020-11-25T16:43:53.000Z</time>
      </trkpt>
      <trkpt lat="41.430560834705829620361328125" lon="-8.4556583873927593231201171875">
        <ele>308</ele>
        <time>2020-11-25T16:43:57.000Z</time>
      </trkpt>
      <trkpt lat="41.4305439032614231109619140625" lon="-8.45566861331462860107421875">
        <ele>307.79998779296875</ele>
        <time>2020-11-25T16:43:58.000Z</time>
      </trkpt>
      <trkpt lat="41.43045530654489994049072265625" lon="-8.45576777122914791107177734375">
        <ele>306.600006103515625</ele>
        <time>2020-11-25T16:44:04.000Z</time>
      </trkpt>
      <trkpt lat="41.43041708506643772125244140625" lon="-8.4558012150228023529052734375">
        <ele>305.79998779296875</ele>
        <time>2020-11-25T16:44:06.000Z</time>
      </trkpt>
      <trkpt lat="41.4303993992507457733154296875" lon="-8.45581353642046451568603515625">
        <ele>305.399993896484375</ele>
        <time>2020-11-25T16:44:07.000Z</time>
      </trkpt>
      <trkpt lat="41.43031666986644268035888671875" lon="-8.45587707124650478363037109375">
        <ele>304.399993896484375</ele>
        <time>2020-11-25T16:44:11.000Z</time>
      </trkpt>
      <trkpt lat="41.43021055497229099273681640625" lon="-8.455992825329303741455078125">
        <ele>303.399993896484375</ele>
        <time>2020-11-25T16:44:17.000Z</time>
      </trkpt>
      <trkpt lat="41.43019245006144046783447265625" lon="-8.45600816421210765838623046875">
        <ele>303.20001220703125</ele>
        <time>2020-11-25T16:44:18.000Z</time>
      </trkpt>
      <trkpt lat="41.4301301725208759307861328125" lon="-8.45606692135334014892578125">
        <ele>302.399993896484375</ele>
        <time>2020-11-25T16:44:21.000Z</time>
      </trkpt>
      <trkpt lat="41.43008717335760593414306640625" lon="-8.45610707066953182220458984375">
        <ele>302</ele>
        <time>2020-11-25T16:44:23.000Z</time>
      </trkpt>
      <trkpt lat="41.4299558289349079132080078125" lon="-8.45624101348221302032470703125">
        <ele>300.600006103515625</ele>
        <time>2020-11-25T16:44:30.000Z</time>
      </trkpt>
      <trkpt lat="41.42989606596529483795166015625" lon="-8.45633036457002162933349609375">
        <ele>299.600006103515625</ele>
        <time>2020-11-25T16:44:34.000Z</time>
      </trkpt>
      <trkpt lat="41.42984929494559764862060546875" lon="-8.456391133368015289306640625">
        <ele>298.399993896484375</ele>
        <time>2020-11-25T16:44:37.000Z</time>
      </trkpt>
      <trkpt lat="41.42980118282139301300048828125" lon="-8.45644754357635974884033203125">
        <ele>297.20001220703125</ele>
        <time>2020-11-25T16:44:40.000Z</time>
      </trkpt>
      <trkpt lat="41.42970512621104717254638671875" lon="-8.4565347991883754730224609375">
        <ele>295.600006103515625</ele>
        <time>2020-11-25T16:44:45.000Z</time>
      </trkpt>
      <trkpt lat="41.4295816607773303985595703125" lon="-8.4565477073192596435546875">
        <ele>294.399993896484375</ele>
        <time>2020-11-25T16:44:51.000Z</time>
      </trkpt>
      <trkpt lat="41.4294676668941974639892578125" lon="-8.456450812518596649169921875">
        <ele>293</ele>
        <time>2020-11-25T16:44:57.000Z</time>
      </trkpt>
      <trkpt lat="41.42943003214895725250244140625" lon="-8.4564104117453098297119140625">
        <ele>291.79998779296875</ele>
        <time>2020-11-25T16:44:59.000Z</time>
      </trkpt>
      <trkpt lat="41.42935023643076419830322265625" lon="-8.45632173120975494384765625">
        <ele>291</ele>
        <time>2020-11-25T16:45:03.000Z</time>
      </trkpt>
      <trkpt lat="41.429331712424755096435546875" lon="-8.45629616640508174896240234375">
        <ele>290.600006103515625</ele>
        <time>2020-11-25T16:45:04.000Z</time>
      </trkpt>
      <trkpt lat="41.4292936585843563079833984375" lon="-8.4562454558908939361572265625">
        <ele>290.399993896484375</ele>
        <time>2020-11-25T16:45:06.000Z</time>
      </trkpt>
      <trkpt lat="41.42926122061908245086669921875" lon="-8.45620413310825824737548828125">
        <ele>289.600006103515625</ele>
        <time>2020-11-25T16:45:08.000Z</time>
      </trkpt>
      <trkpt lat="41.429205648601055145263671875" lon="-8.4561458788812160491943359375">
        <ele>288.399993896484375</ele>
        <time>2020-11-25T16:45:11.000Z</time>
      </trkpt>
      <trkpt lat="41.42913649789988994598388671875" lon="-8.456070609390735626220703125">
        <ele>287.399993896484375</ele>
        <time>2020-11-25T16:45:15.000Z</time>
      </trkpt>
      <trkpt lat="41.4291216619312763214111328125" lon="-8.45606164075434207916259765625">
        <ele>287.20001220703125</ele>
        <time>2020-11-25T16:45:16.000Z</time>
      </trkpt>
      <trkpt lat="41.42903155647218227386474609375" lon="-8.45600950531661510467529296875">
        <ele>285.79998779296875</ele>
        <time>2020-11-25T16:45:43.000Z</time>
      </trkpt>
      <trkpt lat="41.429030634462833404541015625" lon="-8.45600548200309276580810546875">
        <ele>285.79998779296875</ele>
        <time>2020-11-25T16:45:44.000Z</time>
      </trkpt>
      <trkpt lat="41.42901663668453693389892578125" lon="-8.45597446896135807037353515625">
        <ele>284.79998779296875</ele>
        <time>2020-11-25T16:45:47.000Z</time>
      </trkpt>
      <trkpt lat="41.42900942824780941009521484375" lon="-8.45596038736402988433837890625">
        <ele>284.399993896484375</ele>
        <time>2020-11-25T16:45:48.000Z</time>
      </trkpt>
      <trkpt lat="41.4289902336895465850830078125" lon="-8.45593038015067577362060546875">
        <ele>283.600006103515625</ele>
        <time>2020-11-25T16:45:50.000Z</time>
      </trkpt>
      <trkpt lat="41.42895041964948177337646484375" lon="-8.455887548625469207763671875">
        <ele>282.20001220703125</ele>
        <time>2020-11-25T16:45:53.000Z</time>
      </trkpt>
      <trkpt lat="41.42891806550323963165283203125" lon="-8.45585578121244907379150390625">
        <ele>281.20001220703125</ele>
        <time>2020-11-25T16:45:55.000Z</time>
      </trkpt>
      <trkpt lat="41.4289013855159282684326171875" lon="-8.4558370895683765411376953125">
        <ele>280.79998779296875</ele>
        <time>2020-11-25T16:45:56.000Z</time>
      </trkpt>
      <trkpt lat="41.428867690265178680419921875" lon="-8.4558015502989292144775390625">
        <ele>279.79998779296875</ele>
        <time>2020-11-25T16:45:58.000Z</time>
      </trkpt>
      <trkpt lat="41.42880658619105815887451171875" lon="-8.4557435475289821624755859375">
        <ele>278.399993896484375</ele>
        <time>2020-11-25T16:46:01.000Z</time>
      </trkpt>
      <trkpt lat="41.4287595637142658233642578125" lon="-8.4557100199162960052490234375">
        <ele>277.79998779296875</ele>
        <time>2020-11-25T16:46:03.000Z</time>
      </trkpt>
      <trkpt lat="41.42873349599540233612060546875" lon="-8.45569074153900146484375">
        <ele>277.399993896484375</ele>
        <time>2020-11-25T16:46:04.000Z</time>
      </trkpt>
      <trkpt lat="41.42864280380308628082275390625" lon="-8.45563064329326152801513671875">
        <ele>276.20001220703125</ele>
        <time>2020-11-25T16:46:08.000Z</time>
      </trkpt>
      <trkpt lat="41.42858429811894893646240234375" lon="-8.45558437518775463104248046875">
        <ele>275</ele>
        <time>2020-11-25T16:46:11.000Z</time>
      </trkpt>
      <trkpt lat="41.42853149212896823883056640625" lon="-8.45553777180612087249755859375">
        <ele>273.600006103515625</ele>
        <time>2020-11-25T16:46:14.000Z</time>
      </trkpt>
      <trkpt lat="41.42849461175501346588134765625" lon="-8.45552117563784122467041015625">
        <ele>272.600006103515625</ele>
        <time>2020-11-25T16:46:16.000Z</time>
      </trkpt>
      <trkpt lat="41.42843677662312984466552734375" lon="-8.4555075131356716156005859375">
        <ele>272.20001220703125</ele>
        <time>2020-11-25T16:46:21.000Z</time>
      </trkpt>
      <trkpt lat="41.42842889763414859771728515625" lon="-8.45550491474568843841552734375">
        <ele>272.399993896484375</ele>
        <time>2020-11-25T16:46:22.000Z</time>
      </trkpt>
      <trkpt lat="41.4283156581223011016845703125" lon="-8.4554696269333362579345703125">
        <ele>271</ele>
        <time>2020-11-25T16:46:45.000Z</time>
      </trkpt>
      <trkpt lat="41.4283069409430027008056640625" lon="-8.45546920783817768096923828125">
        <ele>271.20001220703125</ele>
        <time>2020-11-25T16:46:46.000Z</time>
      </trkpt>
      <trkpt lat="41.42829746939241886138916015625" lon="-8.45546652562916278839111328125">
        <ele>271</ele>
        <time>2020-11-25T16:46:47.000Z</time>
      </trkpt>
      <trkpt lat="41.42828858457505702972412109375" lon="-8.45546619035303592681884765625">
        <ele>270.79998779296875</ele>
        <time>2020-11-25T16:46:48.000Z</time>
      </trkpt>
      <trkpt lat="41.4282794483006000518798828125" lon="-8.45546434633433818817138671875">
        <ele>270.20001220703125</ele>
        <time>2020-11-25T16:46:49.000Z</time>
      </trkpt>
      <trkpt lat="41.42826947383582592010498046875" lon="-8.45545948483049869537353515625">
        <ele>270</ele>
        <time>2020-11-25T16:46:50.000Z</time>
      </trkpt>
      <trkpt lat="41.428256146609783172607421875" lon="-8.45545244403183460235595703125">
        <ele>269.79998779296875</ele>
        <time>2020-11-25T16:46:51.000Z</time>
      </trkpt>
      <trkpt lat="41.4282412268221378326416015625" lon="-8.4554478339850902557373046875">
        <ele>269.399993896484375</ele>
        <time>2020-11-25T16:46:52.000Z</time>
      </trkpt>
      <trkpt lat="41.4282100461423397064208984375" lon="-8.45544330775737762451171875">
        <ele>269.20001220703125</ele>
        <time>2020-11-25T16:46:54.000Z</time>
      </trkpt>
      <trkpt lat="41.4281758479773998260498046875" lon="-8.45544020645320415496826171875">
        <ele>268.79998779296875</ele>
        <time>2020-11-25T16:46:56.000Z</time>
      </trkpt>
      <trkpt lat="41.42814307473599910736083984375" lon="-8.45543266274034976959228515625">
        <ele>268.399993896484375</ele>
        <time>2020-11-25T16:46:58.000Z</time>
      </trkpt>
      <trkpt lat="41.4280551485717296600341796875" lon="-8.4553730674088001251220703125">
        <ele>267</ele>
        <time>2020-11-25T16:48:00.000Z</time>
      </trkpt>
      <trkpt lat="41.4280548132956027984619140625" lon="-8.4553573094308376312255859375">
        <ele>267.20001220703125</ele>
        <time>2020-11-25T16:48:02.000Z</time>
      </trkpt>
      <trkpt lat="41.42805338837206363677978515625" lon="-8.4553408809006214141845703125">
        <ele>267</ele>
        <time>2020-11-25T16:48:03.000Z</time>
      </trkpt>
      <trkpt lat="41.4280526340007781982421875" lon="-8.45532034523785114288330078125">
        <ele>266.600006103515625</ele>
        <time>2020-11-25T16:48:04.000Z</time>
      </trkpt>
      <trkpt lat="41.42805464565753936767578125" lon="-8.45530056394636631011962890625">
        <ele>266.20001220703125</ele>
        <time>2020-11-25T16:48:05.000Z</time>
      </trkpt>
      <trkpt lat="41.428058333694934844970703125" lon="-8.45527692697942256927490234375">
        <ele>266</ele>
        <time>2020-11-25T16:48:06.000Z</time>
      </trkpt>
      <trkpt lat="41.4280638657510280609130859375" lon="-8.45522604882717132568359375">
        <ele>265.79998779296875</ele>
        <time>2020-11-25T16:48:08.000Z</time>
      </trkpt>
      <trkpt lat="41.4280782826244831085205078125" lon="-8.45514751039445400238037109375">
        <ele>264.79998779296875</ele>
        <time>2020-11-25T16:48:11.000Z</time>
      </trkpt>
      <trkpt lat="41.42808171920478343963623046875" lon="-8.45505782403051853179931640625">
        <ele>263.600006103515625</ele>
        <time>2020-11-25T16:48:14.000Z</time>
      </trkpt>
      <trkpt lat="41.4280799590051174163818359375" lon="-8.45492606051266193389892578125">
        <ele>263.20001220703125</ele>
        <time>2020-11-25T16:48:18.000Z</time>
      </trkpt>
      <trkpt lat="41.42807601951062679290771484375" lon="-8.4548795409500598907470703125">
        <ele>262.79998779296875</ele>
        <time>2020-11-25T16:48:20.000Z</time>
      </trkpt>
      <trkpt lat="41.4280742593109607696533203125" lon="-8.45485858619213104248046875">
        <ele>262.399993896484375</ele>
        <time>2020-11-25T16:48:21.000Z</time>
      </trkpt>
      <trkpt lat="41.4280648715794086456298828125" lon="-8.454846180975437164306640625">
        <ele>262.20001220703125</ele>
        <time>2020-11-25T16:48:22.000Z</time>
      </trkpt>
      <trkpt lat="41.42803209833800792694091796875" lon="-8.4548121504485607147216796875">
        <ele>261</ele>
        <time>2020-11-25T16:48:25.000Z</time>
      </trkpt>
      <trkpt lat="41.42800242640078067779541015625" lon="-8.4547747671604156494140625">
        <ele>259.79998779296875</ele>
        <time>2020-11-25T16:48:28.000Z</time>
      </trkpt>
      <trkpt lat="41.42795532010495662689208984375" lon="-8.45474836416542530059814453125">
        <ele>259.20001220703125</ele>
        <time>2020-11-25T16:48:31.000Z</time>
      </trkpt>
      <trkpt lat="41.42790419049561023712158203125" lon="-8.4547209553420543670654296875">
        <ele>258.79998779296875</ele>
        <time>2020-11-25T16:48:34.000Z</time>
      </trkpt>
      <trkpt lat="41.427849791944026947021484375" lon="-8.454671166837215423583984375">
        <ele>258</ele>
        <time>2020-11-25T16:48:37.000Z</time>
      </trkpt>
      <trkpt lat="41.42780478112399578094482421875" lon="-8.45462649129331111907958984375">
        <ele>257.79998779296875</ele>
        <time>2020-11-25T16:48:39.000Z</time>
      </trkpt>
      <trkpt lat="41.42771400511264801025390625" lon="-8.4545601904392242431640625">
        <ele>256.79998779296875</ele>
        <time>2020-11-25T16:48:43.000Z</time>
      </trkpt>
      <trkpt lat="41.4276028610765933990478515625" lon="-8.45448249019682407379150390625">
        <ele>255.600006103515625</ele>
        <time>2020-11-25T16:48:48.000Z</time>
      </trkpt>
      <trkpt lat="41.427515186369419097900390625" lon="-8.454427421092987060546875">
        <ele>254.1999969482421875</ele>
        <time>2020-11-25T16:48:52.000Z</time>
      </trkpt>
      <trkpt lat="41.427454166114330291748046875" lon="-8.4544104896485805511474609375">
        <ele>253.399993896484375</ele>
        <time>2020-11-25T16:48:55.000Z</time>
      </trkpt>
      <trkpt lat="41.4274357259273529052734375" lon="-8.45440738834440708160400390625">
        <ele>253</ele>
        <time>2020-11-25T16:48:56.000Z</time>
      </trkpt>
      <trkpt lat="41.4273822493851184844970703125" lon="-8.4543719328939914703369140625">
        <ele>252</ele>
        <time>2020-11-25T16:48:59.000Z</time>
      </trkpt>
      <trkpt lat="41.42736523412168025970458984375" lon="-8.45435156486928462982177734375">
        <ele>251.1999969482421875</ele>
        <time>2020-11-25T16:49:00.000Z</time>
      </trkpt>
      <trkpt lat="41.4273296110332012176513671875" lon="-8.45431216992437839508056640625">
        <ele>250</ele>
        <time>2020-11-25T16:49:02.000Z</time>
      </trkpt>
      <trkpt lat="41.4272840134799480438232421875" lon="-8.4542639739811420440673828125">
        <ele>249</ele>
        <time>2020-11-25T16:49:04.000Z</time>
      </trkpt>
      <trkpt lat="41.4272307045757770538330078125" lon="-8.454183675348758697509765625">
        <ele>247.8000030517578125</ele>
        <time>2020-11-25T16:49:07.000Z</time>
      </trkpt>
      <trkpt lat="41.4271804131567478179931640625" lon="-8.45410220324993133544921875">
        <ele>246.8000030517578125</ele>
        <time>2020-11-25T16:49:10.000Z</time>
      </trkpt>
      <trkpt lat="41.42711830325424671173095703125" lon="-8.454019725322723388671875">
        <ele>245.600006103515625</ele>
        <time>2020-11-25T16:49:13.000Z</time>
      </trkpt>
      <trkpt lat="41.42707136459648609161376953125" lon="-8.45393146388232707977294921875">
        <ele>244.399993896484375</ele>
        <time>2020-11-25T16:49:16.000Z</time>
      </trkpt>
      <trkpt lat="41.4270379208028316497802734375" lon="-8.45387999899685382843017578125">
        <ele>243.600006103515625</ele>
        <time>2020-11-25T16:49:18.000Z</time>
      </trkpt>
      <trkpt lat="41.42701000906527042388916015625" lon="-8.45382702536880970001220703125">
        <ele>243.1999969482421875</ele>
        <time>2020-11-25T16:49:20.000Z</time>
      </trkpt>
      <trkpt lat="41.426959298551082611083984375" lon="-8.45375075004994869232177734375">
        <ele>242.1999969482421875</ele>
        <time>2020-11-25T16:49:23.000Z</time>
      </trkpt>
      <trkpt lat="41.4269306324422359466552734375" lon="-8.4537027217447757720947265625">
        <ele>241</ele>
        <time>2020-11-25T16:49:25.000Z</time>
      </trkpt>
      <trkpt lat="41.42690657638013362884521484375" lon="-8.45364983193576335906982421875">
        <ele>239.8000030517578125</ele>
        <time>2020-11-25T16:49:27.000Z</time>
      </trkpt>
      <trkpt lat="41.42688042484223842620849609375" lon="-8.45359652303159236907958984375">
        <ele>238.600006103515625</ele>
        <time>2020-11-25T16:49:29.000Z</time>
      </trkpt>
      <trkpt lat="41.4268461428582668304443359375" lon="-8.4535270370543003082275390625">
        <ele>237.399993896484375</ele>
        <time>2020-11-25T16:49:32.000Z</time>
      </trkpt>
      <trkpt lat="41.42682552337646484375" lon="-8.45348336733877658843994140625">
        <ele>236.1999969482421875</ele>
        <time>2020-11-25T16:49:34.000Z</time>
      </trkpt>
      <trkpt lat="41.42677783034741878509521484375" lon="-8.45343207009136676788330078125">
        <ele>235</ele>
        <time>2020-11-25T16:49:37.000Z</time>
      </trkpt>
      <trkpt lat="41.42671848647296428680419921875" lon="-8.45339217223227024078369140625">
        <ele>233.8000030517578125</ele>
        <time>2020-11-25T16:49:40.000Z</time>
      </trkpt>
      <trkpt lat="41.42666132189333438873291015625" lon="-8.45334908924996852874755859375">
        <ele>232.600006103515625</ele>
        <time>2020-11-25T16:49:43.000Z</time>
      </trkpt>
      <trkpt lat="41.42660516314208507537841796875" lon="-8.45329754054546356201171875">
        <ele>231.1999969482421875</ele>
        <time>2020-11-25T16:49:46.000Z</time>
      </trkpt>
      <trkpt lat="41.426550261676311492919921875" lon="-8.45322838984429836273193359375">
        <ele>229.8000030517578125</ele>
        <time>2020-11-25T16:49:49.000Z</time>
      </trkpt>
      <trkpt lat="41.42649636603891849517822265625" lon="-8.4531511925160884857177734375">
        <ele>228.600006103515625</ele>
        <time>2020-11-25T16:49:52.000Z</time>
      </trkpt>
      <trkpt lat="41.426457725465297698974609375" lon="-8.45309612341225147247314453125">
        <ele>227.399993896484375</ele>
        <time>2020-11-25T16:49:54.000Z</time>
      </trkpt>
      <trkpt lat="41.426409445703029632568359375" lon="-8.45301993191242218017578125">
        <ele>226.399993896484375</ele>
        <time>2020-11-25T16:49:57.000Z</time>
      </trkpt>
      <trkpt lat="41.42635001800954341888427734375" lon="-8.45292605459690093994140625">
        <ele>225.399993896484375</ele>
        <time>2020-11-25T16:50:01.000Z</time>
      </trkpt>
      <trkpt lat="41.4263304881751537322998046875" lon="-8.45289948396384716033935546875">
        <ele>225</ele>
        <time>2020-11-25T16:50:02.000Z</time>
      </trkpt>
      <trkpt lat="41.42631364054977893829345703125" lon="-8.45287534408271312713623046875">
        <ele>224.600006103515625</ele>
        <time>2020-11-25T16:50:03.000Z</time>
      </trkpt>
      <trkpt lat="41.4262969605624675750732421875" lon="-8.45285505987703800201416015625">
        <ele>224.399993896484375</ele>
        <time>2020-11-25T16:50:04.000Z</time>
      </trkpt>
      <trkpt lat="41.42623786814510822296142578125" lon="-8.45278699882328510284423828125">
        <ele>223.8000030517578125</ele>
        <time>2020-11-25T16:50:07.000Z</time>
      </trkpt>
      <trkpt lat="41.42620283178985118865966796875" lon="-8.45273201353847980499267578125">
        <ele>223.600006103515625</ele>
        <time>2020-11-25T16:50:09.000Z</time>
      </trkpt>
      <trkpt lat="41.426119096577167510986328125" lon="-8.45250385813415050506591796875">
        <ele>222.8000030517578125</ele>
        <time>2020-11-25T16:50:16.000Z</time>
      </trkpt>
      <trkpt lat="41.426097638905048370361328125" lon="-8.45242992974817752838134765625">
        <ele>222.600006103515625</ele>
        <time>2020-11-25T16:50:18.000Z</time>
      </trkpt>
      <trkpt lat="41.42608146183192729949951171875" lon="-8.452358432114124298095703125">
        <ele>222.600006103515625</ele>
        <time>2020-11-25T16:50:20.000Z</time>
      </trkpt>
      <trkpt lat="41.426045335829257965087890625" lon="-8.45222289673984050750732421875">
        <ele>222.399993896484375</ele>
        <time>2020-11-25T16:50:24.000Z</time>
      </trkpt>
      <trkpt lat="41.42600954510271549224853515625" lon="-8.45200337469577789306640625">
        <ele>222.1999969482421875</ele>
        <time>2020-11-25T16:50:31.000Z</time>
      </trkpt>
      <trkpt lat="41.4260129816830158233642578125" lon="-8.451735489070415496826171875">
        <ele>221.8000030517578125</ele>
        <time>2020-11-25T16:50:39.000Z</time>
      </trkpt>
      <trkpt lat="41.426010467112064361572265625" lon="-8.45160984434187412261962890625">
        <ele>221.8000030517578125</ele>
        <time>2020-11-25T16:50:43.000Z</time>
      </trkpt>
      <trkpt lat="41.426013819873332977294921875" lon="-8.45142963342368602752685546875">
        <ele>221.600006103515625</ele>
        <time>2020-11-25T16:50:49.000Z</time>
      </trkpt>
      <trkpt lat="41.4260324276983737945556640625" lon="-8.4513844549655914306640625">
        <ele>221.399993896484375</ele>
        <time>2020-11-25T16:51:43.000Z</time>
      </trkpt>
      <trkpt lat="41.4260324276983737945556640625" lon="-8.45137280412018299102783203125">
        <ele>221.399993896484375</ele>
        <time>2020-11-25T16:51:44.000Z</time>
      </trkpt>
      <trkpt lat="41.42603636719286441802978515625" lon="-8.45134313218295574188232421875">
        <ele>220.8000030517578125</ele>
        <time>2020-11-25T16:51:46.000Z</time>
      </trkpt>
      <trkpt lat="41.42603653483092784881591796875" lon="-8.45132418908178806304931640625">
        <ele>220.600006103515625</ele>
        <time>2020-11-25T16:51:47.000Z</time>
      </trkpt>
      <trkpt lat="41.42604139633476734161376953125" lon="-8.45125545747578144073486328125">
        <ele>219.8000030517578125</ele>
        <time>2020-11-25T16:51:50.000Z</time>
      </trkpt>
      <trkpt lat="41.42604340799152851104736328125" lon="-8.45122964121401309967041015625">
        <ele>219.399993896484375</ele>
        <time>2020-11-25T16:51:51.000Z</time>
      </trkpt>
      <trkpt lat="41.4260475151240825653076171875" lon="-8.4511405415832996368408203125">
        <ele>218.600006103515625</ele>
        <time>2020-11-25T16:51:54.000Z</time>
      </trkpt>
      <trkpt lat="41.42605304718017578125" lon="-8.45110877417027950286865234375">
        <ele>218.1999969482421875</ele>
        <time>2020-11-25T16:51:55.000Z</time>
      </trkpt>
      <trkpt lat="41.4260585792362689971923828125" lon="-8.451003916561603546142578125">
        <ele>217.1999969482421875</ele>
        <time>2020-11-25T16:51:59.000Z</time>
      </trkpt>
      <trkpt lat="41.42605396918952465057373046875" lon="-8.45095789991319179534912109375">
        <ele>216.600006103515625</ele>
        <time>2020-11-25T16:52:01.000Z</time>
      </trkpt>
      <trkpt lat="41.42603888176381587982177734375" lon="-8.45090827904641628265380859375">
        <ele>215.8000030517578125</ele>
        <time>2020-11-25T16:52:03.000Z</time>
      </trkpt>
      <trkpt lat="41.42602966167032718658447265625" lon="-8.45088212750852108001708984375">
        <ele>215.399993896484375</ele>
        <time>2020-11-25T16:52:04.000Z</time>
      </trkpt>
      <trkpt lat="41.42600904218852519989013671875" lon="-8.45080308616161346435546875">
        <ele>214.8000030517578125</ele>
        <time>2020-11-25T16:52:07.000Z</time>
      </trkpt>
      <trkpt lat="41.4260072819888591766357421875" lon="-8.45077986828982830047607421875">
        <ele>214.600006103515625</ele>
        <time>2020-11-25T16:52:08.000Z</time>
      </trkpt>
      <trkpt lat="41.425993703305721282958984375" lon="-8.45062178559601306915283203125">
        <ele>213.600006103515625</ele>
        <time>2020-11-25T16:53:52.000Z</time>
      </trkpt>
      <trkpt lat="41.4259921945631504058837890625" lon="-8.45062061212956905364990234375">
        <ele>213.8000030517578125</ele>
        <time>2020-11-25T16:53:53.000Z</time>
      </trkpt>
      <trkpt lat="41.425986997783184051513671875" lon="-8.4506178461015224456787109375">
        <ele>213.600006103515625</ele>
        <time>2020-11-25T16:53:54.000Z</time>
      </trkpt>
      <trkpt lat="41.42596964724361896514892578125" lon="-8.45060770399868488311767578125">
        <ele>212.8000030517578125</ele>
        <time>2020-11-25T16:53:56.000Z</time>
      </trkpt>
      <trkpt lat="41.425959505140781402587890625" lon="-8.45059630461037158966064453125">
        <ele>212.399993896484375</ele>
        <time>2020-11-25T16:53:57.000Z</time>
      </trkpt>
      <trkpt lat="41.425944752991199493408203125" lon="-8.450582139194011688232421875">
        <ele>211.8000030517578125</ele>
        <time>2020-11-25T16:53:58.000Z</time>
      </trkpt>
      <trkpt lat="41.4259368740022182464599609375" lon="-8.4505688957870006561279296875">
        <ele>211.1999969482421875</ele>
        <time>2020-11-25T16:53:59.000Z</time>
      </trkpt>
      <trkpt lat="41.425922624766826629638671875" lon="-8.45053679309785366058349609375">
        <ele>210</ele>
        <time>2020-11-25T16:54:01.000Z</time>
      </trkpt>
      <trkpt lat="41.42590192146599292755126953125" lon="-8.45049371011555194854736328125">
        <ele>208.8000030517578125</ele>
        <time>2020-11-25T16:54:03.000Z</time>
      </trkpt>
      <trkpt lat="41.425875686109066009521484375" lon="-8.4504465200006961822509765625">
        <ele>207.8000030517578125</ele>
        <time>2020-11-25T16:54:05.000Z</time>
      </trkpt>
      <trkpt lat="41.42585313878953456878662109375" lon="-8.4503741003572940826416015625">
        <ele>206.600006103515625</ele>
        <time>2020-11-25T16:54:08.000Z</time>
      </trkpt>
      <trkpt lat="41.42584048211574554443359375" lon="-8.45033126883208751678466796875">
        <ele>205.600006103515625</ele>
        <time>2020-11-25T16:54:10.000Z</time>
      </trkpt>
      <trkpt lat="41.4258376322686672210693359375" lon="-8.45030813477933406829833984375">
        <ele>205.1999969482421875</ele>
        <time>2020-11-25T16:54:11.000Z</time>
      </trkpt>
      <trkpt lat="41.4258279092609882354736328125" lon="-8.450252898037433624267578125">
        <ele>204.1999969482421875</ele>
        <time>2020-11-25T16:54:13.000Z</time>
      </trkpt>
      <trkpt lat="41.42581508494913578033447265625" lon="-8.45012004487216472625732421875">
        <ele>203.1999969482421875</ele>
        <time>2020-11-25T16:54:17.000Z</time>
      </trkpt>
      <trkpt lat="41.425795890390872955322265625" lon="-8.44999146647751331329345703125">
        <ele>202.1999969482421875</ele>
        <time>2020-11-25T16:54:21.000Z</time>
      </trkpt>
      <trkpt lat="41.4257893525063991546630859375" lon="-8.449964225292205810546875">
        <ele>202.1999969482421875</ele>
        <time>2020-11-25T16:54:22.000Z</time>
      </trkpt>
      <trkpt lat="41.42577946186065673828125" lon="-8.44984897412359714508056640625">
        <ele>200.8000030517578125</ele>
        <time>2020-11-25T16:54:26.000Z</time>
      </trkpt>
      <trkpt lat="41.42576931975781917572021484375" lon="-8.44979298301041126251220703125">
        <ele>199.600006103515625</ele>
        <time>2020-11-25T16:54:28.000Z</time>
      </trkpt>
      <trkpt lat="41.42575037665665149688720703125" lon="-8.44971503131091594696044921875">
        <ele>198.600006103515625</ele>
        <time>2020-11-25T16:54:31.000Z</time>
      </trkpt>
      <trkpt lat="41.4257357083261013031005859375" lon="-8.44967211596667766571044921875">
        <ele>198</ele>
        <time>2020-11-25T16:54:34.000Z</time>
      </trkpt>
      <trkpt lat="41.42570561729371547698974609375" lon="-8.4496128559112548828125">
        <ele>197.399993896484375</ele>
        <time>2020-11-25T16:54:38.000Z</time>
      </trkpt>
      <trkpt lat="41.4256880991160869598388671875" lon="-8.4495667554438114166259765625">
        <ele>196.1999969482421875</ele>
        <time>2020-11-25T16:54:41.000Z</time>
      </trkpt>
      <trkpt lat="41.42567661590874195098876953125" lon="-8.4495211578905582427978515625">
        <ele>195.1999969482421875</ele>
        <time>2020-11-25T16:54:43.000Z</time>
      </trkpt>
      <trkpt lat="41.42565482296049594879150390625" lon="-8.4494604729115962982177734375">
        <ele>194.600006103515625</ele>
        <time>2020-11-25T16:54:45.000Z</time>
      </trkpt>
      <trkpt lat="41.42564442940056324005126953125" lon="-8.449395932257175445556640625">
        <ele>194</ele>
        <time>2020-11-25T16:54:47.000Z</time>
      </trkpt>
      <trkpt lat="41.4256708323955535888671875" lon="-8.4493119455873966217041015625">
        <ele>193</ele>
        <time>2020-11-25T16:54:50.000Z</time>
      </trkpt>
      <trkpt lat="41.42576546408236026763916015625" lon="-8.4490960277616977691650390625">
        <ele>192.399993896484375</ele>
        <time>2020-11-25T16:54:58.000Z</time>
      </trkpt>
      <trkpt lat="41.4257849939167499542236328125" lon="-8.4490400366485118865966796875">
        <ele>192.1999969482421875</ele>
        <time>2020-11-25T16:55:00.000Z</time>
      </trkpt>
      <trkpt lat="41.4257754385471343994140625" lon="-8.448985554277896881103515625">
        <ele>192</ele>
        <time>2020-11-25T16:55:02.000Z</time>
      </trkpt>
      <trkpt lat="41.42576496116816997528076171875" lon="-8.4489629231393337249755859375">
        <ele>191.600006103515625</ele>
        <time>2020-11-25T16:55:03.000Z</time>
      </trkpt>
      <trkpt lat="41.42573093064129352569580078125" lon="-8.4489233605563640594482421875">
        <ele>191</ele>
        <time>2020-11-25T16:55:05.000Z</time>
      </trkpt>
      <trkpt lat="41.42570008523762226104736328125" lon="-8.44888639636337757110595703125">
        <ele>190.600006103515625</ele>
        <time>2020-11-25T16:55:07.000Z</time>
      </trkpt>
      <trkpt lat="41.4256364665925502777099609375" lon="-8.44879872165620326995849609375">
        <ele>189.399993896484375</ele>
        <time>2020-11-25T16:55:11.000Z</time>
      </trkpt>
      <trkpt lat="41.425602771341800689697265625" lon="-8.448705933988094329833984375">
        <ele>188</ele>
        <time>2020-11-25T16:55:14.000Z</time>
      </trkpt>
      <trkpt lat="41.4255640469491481781005859375" lon="-8.4486043453216552734375">
        <ele>187</ele>
        <time>2020-11-25T16:55:17.000Z</time>
      </trkpt>
      <trkpt lat="41.425529010593891143798828125" lon="-8.4484408982098102569580078125">
        <ele>185.600006103515625</ele>
        <time>2020-11-25T16:55:22.000Z</time>
      </trkpt>
      <trkpt lat="41.42551459372043609619140625" lon="-8.44834593124687671661376953125">
        <ele>184.600006103515625</ele>
        <time>2020-11-25T16:55:25.000Z</time>
      </trkpt>
      <trkpt lat="41.4254614524543285369873046875" lon="-8.44810671173036098480224609375">
        <ele>184</ele>
        <time>2020-11-25T16:55:32.000Z</time>
      </trkpt>
      <trkpt lat="41.42536128871142864227294921875" lon="-8.4478855133056640625">
        <ele>184.399993896484375</ele>
        <time>2020-11-25T16:55:40.000Z</time>
      </trkpt>
      <trkpt lat="41.425325833261013031005859375" lon="-8.44769163988530635833740234375">
        <ele>184.1999969482421875</ele>
        <time>2020-11-25T16:55:46.000Z</time>
      </trkpt>
      <trkpt lat="41.42537620849907398223876953125" lon="-8.44752098433673381805419921875">
        <ele>184.600006103515625</ele>
        <time>2020-11-25T16:55:51.000Z</time>
      </trkpt>
      <trkpt lat="41.425464637577533721923828125" lon="-8.447405733168125152587890625">
        <ele>185</ele>
        <time>2020-11-25T16:55:56.000Z</time>
      </trkpt>
      <trkpt lat="41.42563587985932826995849609375" lon="-8.44728243537247180938720703125">
        <ele>185.1999969482421875</ele>
        <time>2020-11-25T16:56:03.000Z</time>
      </trkpt>
      <trkpt lat="41.42580100335180759429931640625" lon="-8.4471386857330799102783203125">
        <ele>184</ele>
        <time>2020-11-25T16:56:10.000Z</time>
      </trkpt>
      <trkpt lat="41.42587660811841487884521484375" lon="-8.4470285475254058837890625">
        <ele>183.399993896484375</ele>
        <time>2020-11-25T16:56:14.000Z</time>
      </trkpt>
      <trkpt lat="41.42590359784662723541259765625" lon="-8.44677650369703769683837890625">
        <ele>182.1999969482421875</ele>
        <time>2020-11-25T16:56:21.000Z</time>
      </trkpt>
      <trkpt lat="41.42585783265531063079833984375" lon="-8.44661842100322246551513671875">
        <ele>181.600006103515625</ele>
        <time>2020-11-25T16:56:25.000Z</time>
      </trkpt>
      <trkpt lat="41.42579547129571437835693359375" lon="-8.4463916905224323272705078125">
        <ele>181.1999969482421875</ele>
        <time>2020-11-25T16:56:31.000Z</time>
      </trkpt>
      <trkpt lat="41.4257752709090709686279296875" lon="-8.4462813846766948699951171875">
        <ele>181</ele>
        <time>2020-11-25T16:56:34.000Z</time>
      </trkpt>
      <trkpt lat="41.42573897726833820343017578125" lon="-8.4460205398499965667724609375">
        <ele>181</ele>
        <time>2020-11-25T16:56:41.000Z</time>
      </trkpt>
      <trkpt lat="41.42567326314747333526611328125" lon="-8.4458160214126110076904296875">
        <ele>179.8000030517578125</ele>
        <time>2020-11-25T16:56:47.000Z</time>
      </trkpt>
      <trkpt lat="41.425611488521099090576171875" lon="-8.4456954896450042724609375">
        <ele>178.399993896484375</ele>
        <time>2020-11-25T16:56:51.000Z</time>
      </trkpt>
      <trkpt lat="41.42556488513946533203125" lon="-8.44560806639492511749267578125">
        <ele>177.399993896484375</ele>
        <time>2020-11-25T16:56:54.000Z</time>
      </trkpt>
      <trkpt lat="41.42550998367369174957275390625" lon="-8.44552257098257541656494140625">
        <ele>176.399993896484375</ele>
        <time>2020-11-25T16:56:57.000Z</time>
      </trkpt>
      <trkpt lat="41.42545013688504695892333984375" lon="-8.44540237449109554290771484375">
        <ele>175.1999969482421875</ele>
        <time>2020-11-25T16:57:01.000Z</time>
      </trkpt>
      <trkpt lat="41.42541962675750255584716796875" lon="-8.445294164121150970458984375">
        <ele>174.1999969482421875</ele>
        <time>2020-11-25T16:57:04.000Z</time>
      </trkpt>
      <trkpt lat="41.4254088141024112701416015625" lon="-8.44525736756622791290283203125">
        <ele>173.8000030517578125</ele>
        <time>2020-11-25T16:57:05.000Z</time>
      </trkpt>
      <trkpt lat="41.4253793098032474517822265625" lon="-8.44515225850045680999755859375">
        <ele>172.8000030517578125</ele>
        <time>2020-11-25T16:57:08.000Z</time>
      </trkpt>
      <trkpt lat="41.4253427647054195404052734375" lon="-8.44499266706407070159912109375">
        <ele>171.600006103515625</ele>
        <time>2020-11-25T16:57:12.000Z</time>
      </trkpt>
      <trkpt lat="41.4252954907715320587158203125" lon="-8.4448023140430450439453125">
        <ele>170.399993896484375</ele>
        <time>2020-11-25T16:57:17.000Z</time>
      </trkpt>
      <trkpt lat="41.42528082244098186492919921875" lon="-8.44460508786141872406005859375">
        <ele>169.399993896484375</ele>
        <time>2020-11-25T16:57:22.000Z</time>
      </trkpt>
      <trkpt lat="41.42526648938655853271484375" lon="-8.44449050724506378173828125">
        <ele>169.1999969482421875</ele>
        <time>2020-11-25T16:57:25.000Z</time>
      </trkpt>
      <trkpt lat="41.42524997703731060028076171875" lon="-8.44423770904541015625">
        <ele>168.1999969482421875</ele>
        <time>2020-11-25T16:57:32.000Z</time>
      </trkpt>
      <trkpt lat="41.4253323711454868316650390625" lon="-8.444091863930225372314453125">
        <ele>168</ele>
        <time>2020-11-25T16:57:37.000Z</time>
      </trkpt>
      <trkpt lat="41.42542180605232715606689453125" lon="-8.443949036300182342529296875">
        <ele>167.1999969482421875</ele>
        <time>2020-11-25T16:57:42.000Z</time>
      </trkpt>
      <trkpt lat="41.4254403300583362579345703125" lon="-8.44391944818198680877685546875">
        <ele>167.1999969482421875</ele>
        <time>2020-11-25T16:57:43.000Z</time>
      </trkpt>
      <trkpt lat="41.42553068697452545166015625" lon="-8.443764634430408477783203125">
        <ele>166.399993896484375</ele>
        <time>2020-11-25T16:57:48.000Z</time>
      </trkpt>
      <trkpt lat="41.42558726482093334197998046875" lon="-8.443671762943267822265625">
        <ele>166</ele>
        <time>2020-11-25T16:57:51.000Z</time>
      </trkpt>
      <trkpt lat="41.42568868584930896759033203125" lon="-8.44344553537666797637939453125">
        <ele>165.399993896484375</ele>
        <time>2020-11-25T16:57:58.000Z</time>
      </trkpt>
      <trkpt lat="41.4257357083261013031005859375" lon="-8.44330840744078159332275390625">
        <ele>165.1999969482421875</ele>
        <time>2020-11-25T16:58:02.000Z</time>
      </trkpt>
      <trkpt lat="41.4257638715207576751708984375" lon="-8.44325409270823001861572265625">
        <ele>165</ele>
        <time>2020-11-25T16:58:04.000Z</time>
      </trkpt>
      <trkpt lat="41.4258134923875331878662109375" lon="-8.443128280341625213623046875">
        <ele>163.8000030517578125</ele>
        <time>2020-11-25T16:58:08.000Z</time>
      </trkpt>
      <trkpt lat="41.42575205303728580474853515625" lon="-8.44290222041308879852294921875">
        <ele>162.8000030517578125</ele>
        <time>2020-11-25T16:58:14.000Z</time>
      </trkpt>
      <trkpt lat="41.42571500502526760101318359375" lon="-8.44281555153429508209228515625">
        <ele>162.399993896484375</ele>
        <time>2020-11-25T16:58:17.000Z</time>
      </trkpt>
      <trkpt lat="41.42573042772710323333740234375" lon="-8.4427599795162677764892578125">
        <ele>161.399993896484375</ele>
        <time>2020-11-25T16:58:19.000Z</time>
      </trkpt>
      <trkpt lat="41.425845511257648468017578125" lon="-8.44259527511894702911376953125">
        <ele>160.1999969482421875</ele>
        <time>2020-11-25T16:58:25.000Z</time>
      </trkpt>
      <trkpt lat="41.4259452559053897857666015625" lon="-8.44246183522045612335205078125">
        <ele>159.1999969482421875</ele>
        <time>2020-11-25T16:58:30.000Z</time>
      </trkpt>
      <trkpt lat="41.4260029233992099761962890625" lon="-8.4423338435590267181396484375">
        <ele>158</ele>
        <time>2020-11-25T16:58:34.000Z</time>
      </trkpt>
      <trkpt lat="41.42604273743927478790283203125" lon="-8.44219663180410861968994140625">
        <ele>157.8000030517578125</ele>
        <time>2020-11-25T16:58:38.000Z</time>
      </trkpt>
      <trkpt lat="41.42780922353267669677734375" lon="-8.4421356953680515289306640625">
        <ele>189.600006103515625</ele>
        <time>2020-11-25T14:35:13.000Z</time>
      </trkpt>
      <trkpt lat="41.4278110675513744354248046875" lon="-8.44214097596704959869384765625">
        <ele>189.600006103515625</ele>
        <time>2020-11-25T14:35:15.000Z</time>
      </trkpt>
      <trkpt lat="41.427808888256549835205078125" lon="-8.442183472216129302978515625">
        <ele>189.8000030517578125</ele>
        <time>2020-11-25T14:35:17.000Z</time>
      </trkpt>
      <trkpt lat="41.4278127439320087432861328125" lon="-8.4422255493700504302978515625">
        <ele>190.8000030517578125</ele>
        <time>2020-11-25T14:35:19.000Z</time>
      </trkpt>
      <trkpt lat="41.42784836702048778533935546875" lon="-8.44233267009258270263671875">
        <ele>191.600006103515625</ele>
        <time>2020-11-25T14:35:24.000Z</time>
      </trkpt>
      <trkpt lat="41.4278514683246612548828125" lon="-8.44235387630760669708251953125">
        <ele>191.8000030517578125</ele>
        <time>2020-11-25T14:35:25.000Z</time>
      </trkpt>
      <trkpt lat="41.42783579416573047637939453125" lon="-8.442462421953678131103515625">
        <ele>192.600006103515625</ele>
        <time>2020-11-25T14:35:29.000Z</time>
      </trkpt>
      <trkpt lat="41.427829004824161529541015625" lon="-8.442488573491573333740234375">
        <ele>193</ele>
        <time>2020-11-25T14:35:30.000Z</time>
      </trkpt>
      <trkpt lat="41.42777376808226108551025390625" lon="-8.44262746162712574005126953125">
        <ele>192.8000030517578125</ele>
        <time>2020-11-25T14:35:36.000Z</time>
      </trkpt>
      <trkpt lat="41.42779178917407989501953125" lon="-8.44268001616001129150390625">
        <ele>194.1999969482421875</ele>
        <time>2020-11-25T14:35:39.000Z</time>
      </trkpt>
      <trkpt lat="41.42782590351998805999755859375" lon="-8.44271513633430004119873046875">
        <ele>195</ele>
        <time>2020-11-25T14:35:42.000Z</time>
      </trkpt>
      <trkpt lat="41.42783830873668193817138671875" lon="-8.44272452406585216522216796875">
        <ele>195.600006103515625</ele>
        <time>2020-11-25T14:35:43.000Z</time>
      </trkpt>
      <trkpt lat="41.42787770368158817291259765625" lon="-8.442742712795734405517578125">
        <ele>196.600006103515625</ele>
        <time>2020-11-25T14:35:46.000Z</time>
      </trkpt>
      <trkpt lat="41.42791944555938243865966796875" lon="-8.44276609830558300018310546875">
        <ele>198</ele>
        <time>2020-11-25T14:35:49.000Z</time>
      </trkpt>
      <trkpt lat="41.4279560744762420654296875" lon="-8.44282812438905239105224609375">
        <ele>199</ele>
        <time>2020-11-25T14:35:53.000Z</time>
      </trkpt>
      <trkpt lat="41.42801030538976192474365234375" lon="-8.4428981132805347442626953125">
        <ele>199.600006103515625</ele>
        <time>2020-11-25T14:35:57.000Z</time>
      </trkpt>
      <trkpt lat="41.4280182681977748870849609375" lon="-8.44290800392627716064453125">
        <ele>200.1999969482421875</ele>
        <time>2020-11-25T14:35:58.000Z</time>
      </trkpt>
      <trkpt lat="41.428051292896270751953125" lon="-8.44294496811926364898681640625">
        <ele>201.600006103515625</ele>
        <time>2020-11-25T14:36:01.000Z</time>
      </trkpt>
      <trkpt lat="41.428079791367053985595703125" lon="-8.44297908246517181396484375">
        <ele>202.600006103515625</ele>
        <time>2020-11-25T14:36:04.000Z</time>
      </trkpt>
      <trkpt lat="41.42809831537306308746337890625" lon="-8.44301554374396800994873046875">
        <ele>203.8000030517578125</ele>
        <time>2020-11-25T14:36:07.000Z</time>
      </trkpt>
      <trkpt lat="41.428147517144680023193359375" lon="-8.4430898912250995635986328125">
        <ele>205</ele>
        <time>2020-11-25T14:36:12.000Z</time>
      </trkpt>
      <trkpt lat="41.4282103814184665679931640625" lon="-8.443140350282192230224609375">
        <ele>205.8000030517578125</ele>
        <time>2020-11-25T14:36:17.000Z</time>
      </trkpt>
      <trkpt lat="41.42824214883148670196533203125" lon="-8.4431715309619903564453125">
        <ele>206.1999969482421875</ele>
        <time>2020-11-25T14:36:19.000Z</time>
      </trkpt>
      <trkpt lat="41.428316496312618255615234375" lon="-8.443223498761653900146484375">
        <ele>207.1999969482421875</ele>
        <time>2020-11-25T14:36:24.000Z</time>
      </trkpt>
      <trkpt lat="41.42836770974099636077880859375" lon="-8.44326968304812908172607421875">
        <ele>208.1999969482421875</ele>
        <time>2020-11-25T14:36:28.000Z</time>
      </trkpt>
      <trkpt lat="41.42842303030192852020263671875" lon="-8.44330421648919582366943359375">
        <ele>209.399993896484375</ele>
        <time>2020-11-25T14:36:32.000Z</time>
      </trkpt>
      <trkpt lat="41.428457982838153839111328125" lon="-8.443329446017742156982421875">
        <ele>210.600006103515625</ele>
        <time>2020-11-25T14:36:35.000Z</time>
      </trkpt>
      <trkpt lat="41.428490169346332550048828125" lon="-8.44336104579269886016845703125">
        <ele>211.600006103515625</ele>
        <time>2020-11-25T14:36:38.000Z</time>
      </trkpt>
      <trkpt lat="41.42853450961410999298095703125" lon="-8.44339557923376560211181640625">
        <ele>212.8000030517578125</ele>
        <time>2020-11-25T14:36:42.000Z</time>
      </trkpt>
      <trkpt lat="41.4285691268742084503173828125" lon="-8.44342173077166080474853515625">
        <ele>214</ele>
        <time>2020-11-25T14:36:45.000Z</time>
      </trkpt>
      <trkpt lat="41.4285825379192829132080078125" lon="-8.4434504806995391845703125">
        <ele>214.600006103515625</ele>
        <time>2020-11-25T14:36:47.000Z</time>
      </trkpt>
      <trkpt lat="41.42859569750726222991943359375" lon="-8.44348358921706676483154296875">
        <ele>215.1999969482421875</ele>
        <time>2020-11-25T14:36:49.000Z</time>
      </trkpt>
      <trkpt lat="41.42861648462712764739990234375" lon="-8.44352717511355876922607421875">
        <ele>216.399993896484375</ele>
        <time>2020-11-25T14:36:52.000Z</time>
      </trkpt>
      <trkpt lat="41.4286422170698642730712890625" lon="-8.4435666538774967193603515625">
        <ele>217.600006103515625</ele>
        <time>2020-11-25T14:36:56.000Z</time>
      </trkpt>
      <trkpt lat="41.42865688540041446685791015625" lon="-8.443595655262470245361328125">
        <ele>218.8000030517578125</ele>
        <time>2020-11-25T14:36:59.000Z</time>
      </trkpt>
      <trkpt lat="41.4286695420742034912109375" lon="-8.4436221420764923095703125">
        <ele>220.1999969482421875</ele>
        <time>2020-11-25T14:37:02.000Z</time>
      </trkpt>
      <trkpt lat="41.42871572636067867279052734375" lon="-8.443649299442768096923828125">
        <ele>221.1999969482421875</ele>
        <time>2020-11-25T14:37:10.000Z</time>
      </trkpt>
      <trkpt lat="41.42873550765216350555419921875" lon="-8.4436518140137195587158203125">
        <ele>221.8000030517578125</ele>
        <time>2020-11-25T14:37:12.000Z</time>
      </trkpt>
      <trkpt lat="41.42875202000141143798828125" lon="-8.44366438686847686767578125">
        <ele>222.399993896484375</ele>
        <time>2020-11-25T14:37:14.000Z</time>
      </trkpt>
      <trkpt lat="41.42878227867186069488525390625" lon="-8.44368995167315006256103515625">
        <ele>223.600006103515625</ele>
        <time>2020-11-25T14:37:17.000Z</time>
      </trkpt>
      <trkpt lat="41.428818404674530029296875" lon="-8.4436891973018646240234375">
        <ele>224.1999969482421875</ele>
        <time>2020-11-25T14:37:21.000Z</time>
      </trkpt>
      <trkpt lat="41.428822763264179229736328125" lon="-8.44368986785411834716796875">
        <ele>224.600006103515625</ele>
        <time>2020-11-25T14:37:22.000Z</time>
      </trkpt>
      <trkpt lat="41.4288269542157649993896484375" lon="-8.4437366388738155364990234375">
        <ele>226.1999969482421875</ele>
        <time>2020-11-25T14:37:27.000Z</time>
      </trkpt>
      <trkpt lat="41.4288304746150970458984375" lon="-8.44377829693257808685302734375">
        <ele>227.399993896484375</ele>
        <time>2020-11-25T14:37:31.000Z</time>
      </trkpt>
      <trkpt lat="41.4288572967052459716796875" lon="-8.44380922615528106689453125">
        <ele>228.8000030517578125</ele>
        <time>2020-11-25T14:37:35.000Z</time>
      </trkpt>
      <trkpt lat="41.4288759045302867889404296875" lon="-8.4438528120517730712890625">
        <ele>229.8000030517578125</ele>
        <time>2020-11-25T14:37:41.000Z</time>
      </trkpt>
      <trkpt lat="41.428897194564342498779296875" lon="-8.44389530830085277557373046875">
        <ele>231.1999969482421875</ele>
        <time>2020-11-25T14:37:45.000Z</time>
      </trkpt>
      <trkpt lat="41.4289151318371295928955078125" lon="-8.4439210407435894012451171875">
        <ele>232</ele>
        <time>2020-11-25T14:37:48.000Z</time>
      </trkpt>
      <trkpt lat="41.42892292700707912445068359375" lon="-8.4439287520945072174072265625">
        <ele>232.1999969482421875</ele>
        <time>2020-11-25T14:37:49.000Z</time>
      </trkpt>
      <trkpt lat="41.4289546944200992584228515625" lon="-8.4439574182033538818359375">
        <ele>233.399993896484375</ele>
        <time>2020-11-25T14:37:53.000Z</time>
      </trkpt>
      <trkpt lat="41.4289667643606662750244140625" lon="-8.4439709968864917755126953125">
        <ele>234.1999969482421875</ele>
        <time>2020-11-25T14:37:55.000Z</time>
      </trkpt>
      <trkpt lat="41.42897606827318668365478515625" lon="-8.44397476874291896820068359375">
        <ele>234.399993896484375</ele>
        <time>2020-11-25T14:37:56.000Z</time>
      </trkpt>
      <trkpt lat="41.42900171689689159393310546875" lon="-8.44400234520435333251953125">
        <ele>235.399993896484375</ele>
        <time>2020-11-25T14:38:00.000Z</time>
      </trkpt>
      <trkpt lat="41.4290056563913822174072265625" lon="-8.444009386003017425537109375">
        <ele>235.8000030517578125</ele>
        <time>2020-11-25T14:38:01.000Z</time>
      </trkpt>
      <trkpt lat="41.4290227554738521575927734375" lon="-8.44402204267680644989013671875">
        <ele>236.600006103515625</ele>
        <time>2020-11-25T14:38:03.000Z</time>
      </trkpt>
      <trkpt lat="41.42902837134897708892822265625" lon="-8.444028832018375396728515625">
        <ele>236.8000030517578125</ele>
        <time>2020-11-25T14:38:04.000Z</time>
      </trkpt>
      <trkpt lat="41.4290512539446353912353515625" lon="-8.44404869712889194488525390625">
        <ele>238.1999969482421875</ele>
        <time>2020-11-25T14:38:08.000Z</time>
      </trkpt>
      <trkpt lat="41.42908905632793903350830078125" lon="-8.44405590556561946868896484375">
        <ele>239.1999969482421875</ele>
        <time>2020-11-25T14:38:13.000Z</time>
      </trkpt>
      <trkpt lat="41.429095007479190826416015625" lon="-8.44406177289783954620361328125">
        <ele>239.399993896484375</ele>
        <time>2020-11-25T14:38:14.000Z</time>
      </trkpt>
      <trkpt lat="41.42910741269588470458984375" lon="-8.44408960081636905670166015625">
        <ele>240.399993896484375</ele>
        <time>2020-11-25T14:38:18.000Z</time>
      </trkpt>
      <trkpt lat="41.42913113348186016082763671875" lon="-8.444114662706851959228515625">
        <ele>241.600006103515625</ele>
        <time>2020-11-25T14:38:22.000Z</time>
      </trkpt>
      <trkpt lat="41.429164409637451171875" lon="-8.44411357305943965911865234375">
        <ele>242.8000030517578125</ele>
        <time>2020-11-25T14:38:26.000Z</time>
      </trkpt>
      <trkpt lat="41.42917455174028873443603515625" lon="-8.44411089085042476654052734375">
        <ele>243</ele>
        <time>2020-11-25T14:38:27.000Z</time>
      </trkpt>
      <trkpt lat="41.42918997444212436676025390625" lon="-8.44411558471620082855224609375">
        <ele>243.399993896484375</ele>
        <time>2020-11-25T14:38:29.000Z</time>
      </trkpt>
      <trkpt lat="41.42919936217367649078369140625" lon="-8.4441205300390720367431640625">
        <ele>243.8000030517578125</ele>
        <time>2020-11-25T14:38:30.000Z</time>
      </trkpt>
      <trkpt lat="41.42920858226716518402099609375" lon="-8.44413117505609989166259765625">
        <ele>244.399993896484375</ele>
        <time>2020-11-25T14:38:32.000Z</time>
      </trkpt>
      <trkpt lat="41.42922216095030307769775390625" lon="-8.44414492137730121612548828125">
        <ele>245</ele>
        <time>2020-11-25T14:38:35.000Z</time>
      </trkpt>
      <trkpt lat="41.4292487315833568572998046875" lon="-8.44414559192955493927001953125">
        <ele>246</ele>
        <time>2020-11-25T14:38:38.000Z</time>
      </trkpt>
      <trkpt lat="41.42928418703377246856689453125" lon="-8.4441424906253814697265625">
        <ele>246.8000030517578125</ele>
        <time>2020-11-25T14:38:42.000Z</time>
      </trkpt>
      <trkpt lat="41.42930782400071620941162109375" lon="-8.444130420684814453125">
        <ele>247</ele>
        <time>2020-11-25T14:38:44.000Z</time>
      </trkpt>
      <trkpt lat="41.42940673045814037322998046875" lon="-8.44411675818264484405517578125">
        <ele>248</ele>
        <time>2020-11-25T14:38:52.000Z</time>
      </trkpt>
      <trkpt lat="41.42941729165613651275634765625" lon="-8.4441228769719600677490234375">
        <ele>248.399993896484375</ele>
        <time>2020-11-25T14:38:53.000Z</time>
      </trkpt>
      <trkpt lat="41.42942835576832294464111328125" lon="-8.44416939653456211090087890625">
        <ele>249.399993896484375</ele>
        <time>2020-11-25T14:38:58.000Z</time>
      </trkpt>
      <trkpt lat="41.42941586673259735107421875" lon="-8.44421289861202239990234375">
        <ele>250.8000030517578125</ele>
        <time>2020-11-25T14:39:01.000Z</time>
      </trkpt>
      <trkpt lat="41.4293875358998775482177734375" lon="-8.44426277093589305877685546875">
        <ele>252</ele>
        <time>2020-11-25T14:39:04.000Z</time>
      </trkpt>
      <trkpt lat="41.42936850897967815399169921875" lon="-8.4442988969385623931884765625">
        <ele>252.399993896484375</ele>
        <time>2020-11-25T14:39:06.000Z</time>
      </trkpt>
      <trkpt lat="41.42931771464645862579345703125" lon="-8.4443766809999942779541015625">
        <ele>253</ele>
        <time>2020-11-25T14:39:10.000Z</time>
      </trkpt>
      <trkpt lat="41.42931997776031494140625" lon="-8.444467373192310333251953125">
        <ele>254.399993896484375</ele>
        <time>2020-11-25T14:39:15.000Z</time>
      </trkpt>
      <trkpt lat="41.4293774776160717010498046875" lon="-8.4445389546453952789306640625">
        <ele>255.399993896484375</ele>
        <time>2020-11-25T14:39:20.000Z</time>
      </trkpt>
      <trkpt lat="41.42940036021173000335693359375" lon="-8.44455244950950145721435546875">
        <ele>255.8000030517578125</ele>
        <time>2020-11-25T14:39:22.000Z</time>
      </trkpt>
      <trkpt lat="41.42943304963409900665283203125" lon="-8.4445582330226898193359375">
        <ele>256.20001220703125</ele>
        <time>2020-11-25T14:39:25.000Z</time>
      </trkpt>
      <trkpt lat="41.42944612540304660797119140625" lon="-8.4445567242801189422607421875">
        <ele>256.600006103515625</ele>
        <time>2020-11-25T14:39:26.000Z</time>
      </trkpt>
      <trkpt lat="41.42948828637599945068359375" lon="-8.44453870318830013275146484375">
        <ele>257.79998779296875</ele>
        <time>2020-11-25T14:39:30.000Z</time>
      </trkpt>
      <trkpt lat="41.429524160921573638916015625" lon="-8.44452998600900173187255859375">
        <ele>258.79998779296875</ele>
        <time>2020-11-25T14:39:34.000Z</time>
      </trkpt>
      <trkpt lat="41.4295317046344280242919921875" lon="-8.4445305727422237396240234375">
        <ele>259</ele>
        <time>2020-11-25T14:39:35.000Z</time>
      </trkpt>
      <trkpt lat="41.429566405713558197021484375" lon="-8.44452763907611370086669921875">
        <ele>260.20001220703125</ele>
        <time>2020-11-25T14:39:39.000Z</time>
      </trkpt>
      <trkpt lat="41.4295964129269123077392578125" lon="-8.44452881254255771636962890625">
        <ele>261.399993896484375</ele>
        <time>2020-11-25T14:39:42.000Z</time>
      </trkpt>
      <trkpt lat="41.42962834797799587249755859375" lon="-8.44453853555023670196533203125">
        <ele>262.399993896484375</ele>
        <time>2020-11-25T14:39:45.000Z</time>
      </trkpt>
      <trkpt lat="41.4296705089509487152099609375" lon="-8.4445791877806186676025390625">
        <ele>263.600006103515625</ele>
        <time>2020-11-25T14:39:49.000Z</time>
      </trkpt>
      <trkpt lat="41.42969506792724132537841796875" lon="-8.44463693909347057342529296875">
        <ele>264.600006103515625</ele>
        <time>2020-11-25T14:39:54.000Z</time>
      </trkpt>
      <trkpt lat="41.42970127053558826446533203125" lon="-8.4446552954614162445068359375">
        <ele>265.79998779296875</ele>
        <time>2020-11-25T14:39:56.000Z</time>
      </trkpt>
      <trkpt lat="41.42973362468183040618896484375" lon="-8.4446723945438861846923828125">
        <ele>265.79998779296875</ele>
        <time>2020-11-25T14:40:00.000Z</time>
      </trkpt>
      <trkpt lat="41.42974100075662136077880859375" lon="-8.44468094408512115478515625">
        <ele>265.79998779296875</ele>
        <time>2020-11-25T14:40:01.000Z</time>
      </trkpt>
      <trkpt lat="41.4297504723072052001953125" lon="-8.4446948580443859100341796875">
        <ele>266.399993896484375</ele>
        <time>2020-11-25T14:40:03.000Z</time>
      </trkpt>
      <trkpt lat="41.429773271083831787109375" lon="-8.44468203373253345489501953125">
        <ele>267</ele>
        <time>2020-11-25T14:40:06.000Z</time>
      </trkpt>
      <trkpt lat="41.42980487085878849029541015625" lon="-8.4446643479168415069580078125">
        <ele>268.20001220703125</ele>
        <time>2020-11-25T14:40:09.000Z</time>
      </trkpt>
      <trkpt lat="41.4298203773796558380126953125" lon="-8.4446512721478939056396484375">
        <ele>268.79998779296875</ele>
        <time>2020-11-25T14:40:11.000Z</time>
      </trkpt>
      <trkpt lat="41.42982892692089080810546875" lon="-8.444631658494472503662109375">
        <ele>269.399993896484375</ele>
        <time>2020-11-25T14:40:13.000Z</time>
      </trkpt>
      <trkpt lat="41.42984041012823581695556640625" lon="-8.44461078755557537078857421875">
        <ele>270</ele>
        <time>2020-11-25T14:40:15.000Z</time>
      </trkpt>
      <trkpt lat="41.4298599399626255035400390625" lon="-8.444589078426361083984375">
        <ele>270.399993896484375</ele>
        <time>2020-11-25T14:40:17.000Z</time>
      </trkpt>
      <trkpt lat="41.42986857332289218902587890625" lon="-8.44457876868546009063720703125">
        <ele>271</ele>
        <time>2020-11-25T14:40:18.000Z</time>
      </trkpt>
      <trkpt lat="41.42989464104175567626953125" lon="-8.44456695020198822021484375">
        <ele>272</ele>
        <time>2020-11-25T14:40:22.000Z</time>
      </trkpt>
      <trkpt lat="41.4299194514751434326171875" lon="-8.44463107176125049591064453125">
        <ele>273</ele>
        <time>2020-11-25T14:40:27.000Z</time>
      </trkpt>
      <trkpt lat="41.429927833378314971923828125" lon="-8.4447069279849529266357421875">
        <ele>274</ele>
        <time>2020-11-25T14:40:31.000Z</time>
      </trkpt>
      <trkpt lat="41.42992540262639522552490234375" lon="-8.4447273798286914825439453125">
        <ele>274</ele>
        <time>2020-11-25T14:40:32.000Z</time>
      </trkpt>
      <trkpt lat="41.42990143038332462310791015625" lon="-8.44485889188945293426513671875">
        <ele>275.20001220703125</ele>
        <time>2020-11-25T14:40:38.000Z</time>
      </trkpt>
      <trkpt lat="41.42987578175961971282958984375" lon="-8.445046059787273406982421875">
        <ele>276.600006103515625</ele>
        <time>2020-11-25T14:40:46.000Z</time>
      </trkpt>
      <trkpt lat="41.42987050116062164306640625" lon="-8.44512778334319591522216796875">
        <ele>277.600006103515625</ele>
        <time>2020-11-25T14:40:50.000Z</time>
      </trkpt>
      <trkpt lat="41.429869830608367919921875" lon="-8.445147983729839324951171875">
        <ele>278</ele>
        <time>2020-11-25T14:40:51.000Z</time>
      </trkpt>
      <trkpt lat="41.42987444065511226654052734375" lon="-8.4452041424810886383056640625">
        <ele>279</ele>
        <time>2020-11-25T14:40:54.000Z</time>
      </trkpt>
      <trkpt lat="41.4298830740153789520263671875" lon="-8.44521939754486083984375">
        <ele>279.399993896484375</ele>
        <time>2020-11-25T14:40:55.000Z</time>
      </trkpt>
      <trkpt lat="41.4298979938030242919921875" lon="-8.445243537425994873046875">
        <ele>280.20001220703125</ele>
        <time>2020-11-25T14:40:57.000Z</time>
      </trkpt>
      <trkpt lat="41.4299246482551097869873046875" lon="-8.44528268091380596160888671875">
        <ele>281.20001220703125</ele>
        <time>2020-11-25T14:41:00.000Z</time>
      </trkpt>
      <trkpt lat="41.42992858774960041046142578125" lon="-8.44529659487307071685791015625">
        <ele>281.600006103515625</ele>
        <time>2020-11-25T14:41:01.000Z</time>
      </trkpt>
      <trkpt lat="41.42995272763073444366455078125" lon="-8.4453523345291614532470703125">
        <ele>282.600006103515625</ele>
        <time>2020-11-25T14:41:06.000Z</time>
      </trkpt>
      <trkpt lat="41.42997150309383869171142578125" lon="-8.445379324257373809814453125">
        <ele>283</ele>
        <time>2020-11-25T14:41:09.000Z</time>
      </trkpt>
      <trkpt lat="41.43000461161136627197265625" lon="-8.445415198802947998046875">
        <ele>283.79998779296875</ele>
        <time>2020-11-25T14:41:13.000Z</time>
      </trkpt>
      <trkpt lat="41.43003134988248348236083984375" lon="-8.4454468823969364166259765625">
        <ele>284.79998779296875</ele>
        <time>2020-11-25T14:41:17.000Z</time>
      </trkpt>
      <trkpt lat="41.4300803840160369873046875" lon="-8.445522487163543701171875">
        <ele>286</ele>
        <time>2020-11-25T14:41:24.000Z</time>
      </trkpt>
      <trkpt lat="41.43016378395259380340576171875" lon="-8.44566254876554012298583984375">
        <ele>287</ele>
        <time>2020-11-25T14:41:33.000Z</time>
      </trkpt>
      <trkpt lat="41.4302327670156955718994140625" lon="-8.44571418128907680511474609375">
        <ele>288</ele>
        <time>2020-11-25T14:41:38.000Z</time>
      </trkpt>
      <trkpt lat="41.430261097848415374755859375" lon="-8.44572625122964382171630859375">
        <ele>289.20001220703125</ele>
        <time>2020-11-25T14:41:42.000Z</time>
      </trkpt>
      <trkpt lat="41.43027241341769695281982421875" lon="-8.44570714049041271209716796875">
        <ele>290</ele>
        <time>2020-11-25T14:41:45.000Z</time>
      </trkpt>
      <trkpt lat="41.430276520550251007080078125" lon="-8.445693813264369964599609375">
        <ele>290.20001220703125</ele>
        <time>2020-11-25T14:41:46.000Z</time>
      </trkpt>
      <trkpt lat="41.430292613804340362548828125" lon="-8.4456440247595310211181640625">
        <ele>291.399993896484375</ele>
        <time>2020-11-25T14:41:50.000Z</time>
      </trkpt>
      <trkpt lat="41.4302867464721202850341796875" lon="-8.44557453878223896026611328125">
        <ele>292.600006103515625</ele>
        <time>2020-11-25T14:41:55.000Z</time>
      </trkpt>
      <trkpt lat="41.4302887581288814544677734375" lon="-8.44556028954684734344482421875">
        <ele>293</ele>
        <time>2020-11-25T14:41:56.000Z</time>
      </trkpt>
      <trkpt lat="41.43028624355792999267578125" lon="-8.445527851581573486328125">
        <ele>293.79998779296875</ele>
        <time>2020-11-25T14:41:59.000Z</time>
      </trkpt>
      <trkpt lat="41.43030242063105106353759765625" lon="-8.4454830922186374664306640625">
        <ele>295</ele>
        <time>2020-11-25T14:42:04.000Z</time>
      </trkpt>
      <trkpt lat="41.43031599931418895721435546875" lon="-8.44543732702732086181640625">
        <ele>296.20001220703125</ele>
        <time>2020-11-25T14:42:08.000Z</time>
      </trkpt>
      <trkpt lat="41.4303432404994964599609375" lon="-8.44538158737123012542724609375">
        <ele>297.399993896484375</ele>
        <time>2020-11-25T14:42:12.000Z</time>
      </trkpt>
      <trkpt lat="41.4303806237876415252685546875" lon="-8.44532693736255168914794921875">
        <ele>298.399993896484375</ele>
        <time>2020-11-25T14:42:16.000Z</time>
      </trkpt>
      <trkpt lat="41.43041155301034450531005859375" lon="-8.44525854103267192840576171875">
        <ele>299</ele>
        <time>2020-11-25T14:42:21.000Z</time>
      </trkpt>
      <trkpt lat="41.43042840063571929931640625" lon="-8.4452312998473644256591796875">
        <ele>299.399993896484375</ele>
        <time>2020-11-25T14:42:24.000Z</time>
      </trkpt>
      <trkpt lat="41.43045254051685333251953125" lon="-8.4451971016824245452880859375">
        <ele>300</ele>
        <time>2020-11-25T14:42:28.000Z</time>
      </trkpt>
      <trkpt lat="41.430507861077785491943359375" lon="-8.44510196708142757415771484375">
        <ele>299.600006103515625</ele>
        <time>2020-11-25T14:42:37.000Z</time>
      </trkpt>
      <trkpt lat="41.43051716499030590057373046875" lon="-8.44507791101932525634765625">
        <ele>299.399993896484375</ele>
        <time>2020-11-25T14:42:40.000Z</time>
      </trkpt>
      <trkpt lat="41.43052873201668262481689453125" lon="-8.4450415335595607757568359375">
        <ele>299</ele>
        <time>2020-11-25T14:42:43.000Z</time>
      </trkpt>
      <trkpt lat="41.43083500675857067108154296875" lon="-8.4444688819348812103271484375">
        <ele>302.399993896484375</ele>
        <time>2020-11-25T14:43:49.000Z</time>
      </trkpt>
      <trkpt lat="41.4308523572981357574462890625" lon="-8.4444487653672695159912109375">
        <ele>303.399993896484375</ele>
        <time>2020-11-25T14:43:52.000Z</time>
      </trkpt>
      <trkpt lat="41.43085529096424579620361328125" lon="-8.4444507770240306854248046875">
        <ele>303.79998779296875</ele>
        <time>2020-11-25T14:43:53.000Z</time>
      </trkpt>
      <trkpt lat="41.43085545860230922698974609375" lon="-8.44444817863404750823974609375">
        <ele>303.600006103515625</ele>
        <time>2020-11-25T14:43:55.000Z</time>
      </trkpt>
      <trkpt lat="41.4308609068393707275390625" lon="-8.4444390423595905303955078125">
        <ele>303.399993896484375</ele>
        <time>2020-11-25T14:43:58.000Z</time>
      </trkpt>
      <trkpt lat="41.4308563806116580963134765625" lon="-8.4444159083068370819091796875">
        <ele>303.20001220703125</ele>
        <time>2020-11-25T14:44:02.000Z</time>
      </trkpt>
      <trkpt lat="41.43086803145706653594970703125" lon="-8.44449243508279323577880859375">
        <ele>305</ele>
        <time>2020-11-25T14:44:11.000Z</time>
      </trkpt>
      <trkpt lat="41.430882029235363006591796875" lon="-8.4445366077125072479248046875">
        <ele>306.399993896484375</ele>
        <time>2020-11-25T14:44:14.000Z</time>
      </trkpt>
      <trkpt lat="41.430894769728183746337890625" lon="-8.44456401653587818145751953125">
        <ele>307</ele>
        <time>2020-11-25T14:44:16.000Z</time>
      </trkpt>
      <trkpt lat="41.430899463593959808349609375" lon="-8.4445758350193500518798828125">
        <ele>307.399993896484375</ele>
        <time>2020-11-25T14:44:17.000Z</time>
      </trkpt>
      <trkpt lat="41.43090960569679737091064453125" lon="-8.44458782114088535308837890625">
        <ele>307.79998779296875</ele>
        <time>2020-11-25T14:44:18.000Z</time>
      </trkpt>
      <trkpt lat="41.4309314824640750885009765625" lon="-8.44461145810782909393310546875">
        <ele>308.79998779296875</ele>
        <time>2020-11-25T14:44:20.000Z</time>
      </trkpt>
      <trkpt lat="41.430945061147212982177734375" lon="-8.44463802874088287353515625">
        <ele>309.600006103515625</ele>
        <time>2020-11-25T14:44:22.000Z</time>
      </trkpt>
      <trkpt lat="41.4309475757181644439697265625" lon="-8.44465604983270168304443359375">
        <ele>310</ele>
        <time>2020-11-25T14:44:23.000Z</time>
      </trkpt>
      <trkpt lat="41.43095503561198711395263671875" lon="-8.444724865257740020751953125">
        <ele>311</ele>
        <time>2020-11-25T14:44:26.000Z</time>
      </trkpt>
      <trkpt lat="41.43095956183969974517822265625" lon="-8.44474858604371547698974609375">
        <ele>311.20001220703125</ele>
        <time>2020-11-25T14:44:27.000Z</time>
      </trkpt>
      <trkpt lat="41.43098856322467327117919921875" lon="-8.4448681958019733428955078125">
        <ele>311.20001220703125</ele>
        <time>2020-11-25T14:44:32.000Z</time>
      </trkpt>
      <trkpt lat="41.4309925027191638946533203125" lon="-8.4448930062353610992431640625">
        <ele>311.20001220703125</ele>
        <time>2020-11-25T14:44:33.000Z</time>
      </trkpt>
      <trkpt lat="41.43103550188243389129638671875" lon="-8.4450120292603969573974609375">
        <ele>312.20001220703125</ele>
        <time>2020-11-25T14:44:38.000Z</time>
      </trkpt>
      <trkpt lat="41.43103751353919506072998046875" lon="-8.44513582997024059295654296875">
        <ele>312.79998779296875</ele>
        <time>2020-11-25T14:44:42.000Z</time>
      </trkpt>
      <trkpt lat="41.43097288906574249267578125" lon="-8.445211350917816162109375">
        <ele>311</ele>
        <time>2020-11-25T14:44:47.000Z</time>
      </trkpt>
      <trkpt lat="41.43093693070113658905029296875" lon="-8.44522132538259029388427734375">
        <ele>309.79998779296875</ele>
        <time>2020-11-25T14:44:49.000Z</time>
      </trkpt>
      <trkpt lat="41.43087926320731639862060546875" lon="-8.44524160958826541900634765625">
        <ele>308.600006103515625</ele>
        <time>2020-11-25T14:44:52.000Z</time>
      </trkpt>
      <trkpt lat="41.4308233559131622314453125" lon="-8.44526968896389007568359375">
        <ele>307.399993896484375</ele>
        <time>2020-11-25T14:44:55.000Z</time>
      </trkpt>
      <trkpt lat="41.4307635091245174407958984375" lon="-8.44531922601163387298583984375">
        <ele>306.399993896484375</ele>
        <time>2020-11-25T14:44:58.000Z</time>
      </trkpt>
      <trkpt lat="41.43072788603603839874267578125" lon="-8.445353843271732330322265625">
        <ele>305.600006103515625</ele>
        <time>2020-11-25T14:45:00.000Z</time>
      </trkpt>
      <trkpt lat="41.4307158999145030975341796875" lon="-8.4453768096864223480224609375">
        <ele>305.20001220703125</ele>
        <time>2020-11-25T14:45:01.000Z</time>
      </trkpt>
      <trkpt lat="41.4306877367198467254638671875" lon="-8.44541729427874088287353515625">
        <ele>304.20001220703125</ele>
        <time>2020-11-25T14:45:03.000Z</time>
      </trkpt>
      <trkpt lat="41.43067977391183376312255859375" lon="-8.44544470310211181640625">
        <ele>303.79998779296875</ele>
        <time>2020-11-25T14:45:04.000Z</time>
      </trkpt>
      <trkpt lat="41.43068983219563961029052734375" lon="-8.44553145579993724822998046875">
        <ele>303.399993896484375</ele>
        <time>2020-11-25T14:45:07.000Z</time>
      </trkpt>
      <trkpt lat="41.430778093636035919189453125" lon="-8.44562449492514133453369140625">
        <ele>304.20001220703125</ele>
        <time>2020-11-25T14:45:14.000Z</time>
      </trkpt>
      <trkpt lat="41.43080147914588451385498046875" lon="-8.44564125873148441314697265625">
        <ele>305</ele>
        <time>2020-11-25T14:45:16.000Z</time>
      </trkpt>
      <trkpt lat="41.43083886243402957916259765625" lon="-8.44570898450911045074462890625">
        <ele>306.20001220703125</ele>
        <time>2020-11-25T14:45:20.000Z</time>
      </trkpt>
      <trkpt lat="41.4308714680373668670654296875" lon="-8.4457687474787235260009765625">
        <ele>306.600006103515625</ele>
        <time>2020-11-25T14:45:23.000Z</time>
      </trkpt>
      <trkpt lat="41.43089217133820056915283203125" lon="-8.44580537639558315277099609375">
        <ele>307.20001220703125</ele>
        <time>2020-11-25T14:45:25.000Z</time>
      </trkpt>
      <trkpt lat="41.4309145510196685791015625" lon="-8.44587645493447780609130859375">
        <ele>308.399993896484375</ele>
        <time>2020-11-25T14:45:29.000Z</time>
      </trkpt>
      <trkpt lat="41.4309174008667469024658203125" lon="-8.4458948113024234771728515625">
        <ele>308.79998779296875</ele>
        <time>2020-11-25T14:45:30.000Z</time>
      </trkpt>
      <trkpt lat="41.4309432171285152435302734375" lon="-8.44595172442495822906494140625">
        <ele>309.600006103515625</ele>
        <time>2020-11-25T14:45:33.000Z</time>
      </trkpt>
      <trkpt lat="41.4309747330844402313232421875" lon="-8.4459974057972431182861328125">
        <ele>310.399993896484375</ele>
        <time>2020-11-25T14:45:36.000Z</time>
      </trkpt>
      <trkpt lat="41.43098839558660984039306640625" lon="-8.44600905664265155792236328125">
        <ele>310.600006103515625</ele>
        <time>2020-11-25T14:45:37.000Z</time>
      </trkpt>
      <trkpt lat="41.431085206568241119384765625" lon="-8.4461479447782039642333984375">
        <ele>311.600006103515625</ele>
        <time>2020-11-25T14:45:44.000Z</time>
      </trkpt>
      <trkpt lat="41.43112845718860626220703125" lon="-8.44621776603162288665771484375">
        <ele>313</ele>
        <time>2020-11-25T14:45:48.000Z</time>
      </trkpt>
      <trkpt lat="41.43116064369678497314453125" lon="-8.44627895392477512359619140625">
        <ele>314</ele>
        <time>2020-11-25T14:45:51.000Z</time>
      </trkpt>
      <trkpt lat="41.43118671141564846038818359375" lon="-8.44634735025465488433837890625">
        <ele>315.20001220703125</ele>
        <time>2020-11-25T14:45:54.000Z</time>
      </trkpt>
      <trkpt lat="41.4312067441642284393310546875" lon="-8.446375429630279541015625">
        <ele>315.600006103515625</ele>
        <time>2020-11-25T14:45:56.000Z</time>
      </trkpt>
      <trkpt lat="41.43122308887541294097900390625" lon="-8.44640870578587055206298828125">
        <ele>316.600006103515625</ele>
        <time>2020-11-25T14:45:58.000Z</time>
      </trkpt>
      <trkpt lat="41.4312660880386829376220703125" lon="-8.44645933248102664947509765625">
        <ele>317.79998779296875</ele>
        <time>2020-11-25T14:46:02.000Z</time>
      </trkpt>
      <trkpt lat="41.43131487071514129638671875" lon="-8.4465167485177516937255859375">
        <ele>319</ele>
        <time>2020-11-25T14:46:06.000Z</time>
      </trkpt>
      <trkpt lat="41.4313490688800811767578125" lon="-8.44658422283828258514404296875">
        <ele>320.20001220703125</ele>
        <time>2020-11-25T14:46:10.000Z</time>
      </trkpt>
      <trkpt lat="41.4314471371471881866455078125" lon="-8.446698971092700958251953125">
        <ele>321.600006103515625</ele>
        <time>2020-11-25T14:46:17.000Z</time>
      </trkpt>
      <trkpt lat="41.43146264366805553436279296875" lon="-8.44670710153877735137939453125">
        <ele>322</ele>
        <time>2020-11-25T14:46:18.000Z</time>
      </trkpt>
      <trkpt lat="41.431513689458370208740234375" lon="-8.4467024914920330047607421875">
        <ele>322.79998779296875</ele>
        <time>2020-11-25T14:46:21.000Z</time>
      </trkpt>
      <trkpt lat="41.4315604604780673980712890625" lon="-8.44669905491173267364501953125">
        <ele>323.79998779296875</ele>
        <time>2020-11-25T14:46:25.000Z</time>
      </trkpt>
      <trkpt lat="41.43162759952247142791748046875" lon="-8.446740545332431793212890625">
        <ele>325</ele>
        <time>2020-11-25T14:46:30.000Z</time>
      </trkpt>
      <trkpt lat="41.43166615627706050872802734375" lon="-8.446772396564483642578125">
        <ele>326</ele>
        <time>2020-11-25T14:46:34.000Z</time>
      </trkpt>
      <trkpt lat="41.4317177049815654754638671875" lon="-8.44679444096982479095458984375">
        <ele>327</ele>
        <time>2020-11-25T14:46:39.000Z</time>
      </trkpt>
      <trkpt lat="41.4317760430276393890380859375" lon="-8.44680516980588436126708984375">
        <ele>328.20001220703125</ele>
        <time>2020-11-25T14:46:44.000Z</time>
      </trkpt>
      <trkpt lat="41.43181937746703624725341796875" lon="-8.4468221850693225860595703125">
        <ele>329.600006103515625</ele>
        <time>2020-11-25T14:46:47.000Z</time>
      </trkpt>
      <trkpt lat="41.43187486566603183746337890625" lon="-8.44685018062591552734375">
        <ele>330.79998779296875</ele>
        <time>2020-11-25T14:46:51.000Z</time>
      </trkpt>
      <trkpt lat="41.43196086399257183074951171875" lon="-8.446903489530086517333984375">
        <ele>332</ele>
        <time>2020-11-25T14:46:56.000Z</time>
      </trkpt>
      <trkpt lat="41.4321156777441501617431640625" lon="-8.4470313973724842071533203125">
        <ele>332.600006103515625</ele>
        <time>2020-11-25T14:47:05.000Z</time>
      </trkpt>
      <trkpt lat="41.43218767829239368438720703125" lon="-8.447058387100696563720703125">
        <ele>332.79998779296875</ele>
        <time>2020-11-25T14:47:09.000Z</time>
      </trkpt>
      <trkpt lat="41.43220310099422931671142578125" lon="-8.4470555372536182403564453125">
        <ele>333</ele>
        <time>2020-11-25T14:47:10.000Z</time>
      </trkpt>
      <trkpt lat="41.4323986507952213287353515625" lon="-8.44702921807765960693359375">
        <ele>333.600006103515625</ele>
        <time>2020-11-25T14:47:21.000Z</time>
      </trkpt>
      <trkpt lat="41.4325005747377872467041015625" lon="-8.4470411203801631927490234375">
        <ele>334.20001220703125</ele>
        <time>2020-11-25T14:47:26.000Z</time>
      </trkpt>
      <trkpt lat="41.43265387974679470062255859375" lon="-8.447056710720062255859375">
        <ele>335.20001220703125</ele>
        <time>2020-11-25T14:47:33.000Z</time>
      </trkpt>
      <trkpt lat="41.4327134750783443450927734375" lon="-8.44708152115345001220703125">
        <ele>335.79998779296875</ele>
        <time>2020-11-25T14:47:36.000Z</time>
      </trkpt>
      <trkpt lat="41.4327652752399444580078125" lon="-8.44710641540586948394775390625">
        <ele>336.399993896484375</ele>
        <time>2020-11-25T14:47:39.000Z</time>
      </trkpt>
      <trkpt lat="41.4329243637621402740478515625" lon="-8.44712443649768829345703125">
        <ele>337.20001220703125</ele>
        <time>2020-11-25T14:47:47.000Z</time>
      </trkpt>
      <trkpt lat="41.432946659624576568603515625" lon="-8.447130136191844940185546875">
        <ele>337.399993896484375</ele>
        <time>2020-11-25T14:47:48.000Z</time>
      </trkpt>
      <trkpt lat="41.43307750113308429718017578125" lon="-8.4471460618078708648681640625">
        <ele>338.399993896484375</ele>
        <time>2020-11-25T14:47:54.000Z</time>
      </trkpt>
      <trkpt lat="41.4332056604325771331787109375" lon="-8.44718771986663341522216796875">
        <ele>339.399993896484375</ele>
        <time>2020-11-25T14:48:00.000Z</time>
      </trkpt>
      <trkpt lat="41.43334924243390560150146484375" lon="-8.44726164825260639190673828125">
        <ele>340.600006103515625</ele>
        <time>2020-11-25T14:48:08.000Z</time>
      </trkpt>
      <trkpt lat="41.43353079445660114288330078125" lon="-8.4473301284015178680419921875">
        <ele>341.600006103515625</ele>
        <time>2020-11-25T14:48:17.000Z</time>
      </trkpt>
      <trkpt lat="41.43355409614741802215576171875" lon="-8.44734211452305316925048828125">
        <ele>341.600006103515625</ele>
        <time>2020-11-25T14:48:18.000Z</time>
      </trkpt>
      <trkpt lat="41.43372508697211742401123046875" lon="-8.44741637818515300750732421875">
        <ele>342.600006103515625</ele>
        <time>2020-11-25T14:48:26.000Z</time>
      </trkpt>
      <trkpt lat="41.4337491430342197418212890625" lon="-8.44742484390735626220703125">
        <ele>342.600006103515625</ele>
        <time>2020-11-25T14:48:27.000Z</time>
      </trkpt>
      <trkpt lat="41.43393144942820072174072265625" lon="-8.44747605733573436737060546875">
        <ele>343.399993896484375</ele>
        <time>2020-11-25T14:48:35.000Z</time>
      </trkpt>
      <trkpt lat="41.433951146900653839111328125" lon="-8.447488211095333099365234375">
        <ele>343.79998779296875</ele>
        <time>2020-11-25T14:48:36.000Z</time>
      </trkpt>
      <trkpt lat="41.4341206289827823638916015625" lon="-8.44751746393740177154541015625">
        <ele>345</ele>
        <time>2020-11-25T14:48:44.000Z</time>
      </trkpt>
      <trkpt lat="41.4342523925006389617919921875" lon="-8.4474699385464191436767578125">
        <ele>346.20001220703125</ele>
        <time>2020-11-25T14:48:51.000Z</time>
      </trkpt>
      <trkpt lat="41.4343476109206676483154296875" lon="-8.44727103598415851593017578125">
        <ele>346.600006103515625</ele>
        <time>2020-11-25T14:48:59.000Z</time>
      </trkpt>
      <trkpt lat="41.43441910855472087860107421875" lon="-8.44703231938183307647705078125">
        <ele>347</ele>
        <time>2020-11-25T14:49:07.000Z</time>
      </trkpt>
      <trkpt lat="41.43448934890329837799072265625" lon="-8.4468624182045459747314453125">
        <ele>347.399993896484375</ele>
        <time>2020-11-25T14:49:13.000Z</time>
      </trkpt>
      <trkpt lat="41.43447451293468475341796875" lon="-8.44661439768970012664794921875">
        <ele>346.600006103515625</ele>
        <time>2020-11-25T14:49:21.000Z</time>
      </trkpt>
      <trkpt lat="41.434463448822498321533203125" lon="-8.4465913474559783935546875">
        <ele>346.20001220703125</ele>
        <time>2020-11-25T14:49:22.000Z</time>
      </trkpt>
      <trkpt lat="41.43440477550029754638671875" lon="-8.446486406028270721435546875">
        <ele>345.20001220703125</ele>
        <time>2020-11-25T14:49:26.000Z</time>
      </trkpt>
      <trkpt lat="41.4343553222715854644775390625" lon="-8.44634952954947948455810546875">
        <ele>343.600006103515625</ele>
        <time>2020-11-25T14:49:30.000Z</time>
      </trkpt>
      <trkpt lat="41.43430544994771480560302734375" lon="-8.44621508382260799407958984375">
        <ele>342.600006103515625</ele>
        <time>2020-11-25T14:49:34.000Z</time>
      </trkpt>
      <trkpt lat="41.43424451351165771484375" lon="-8.44604576937854290008544921875">
        <ele>341.399993896484375</ele>
        <time>2020-11-25T14:49:39.000Z</time>
      </trkpt>
      <trkpt lat="41.4342064596712589263916015625" lon="-8.44593596644699573516845703125">
        <ele>340.399993896484375</ele>
        <time>2020-11-25T14:49:42.000Z</time>
      </trkpt>
      <trkpt lat="41.43419288098812103271484375" lon="-8.44590210355818271636962890625">
        <ele>340</ele>
        <time>2020-11-25T14:49:43.000Z</time>
      </trkpt>
      <trkpt lat="41.43413529731333255767822265625" lon="-8.4457774646580219268798828125">
        <ele>338.600006103515625</ele>
        <time>2020-11-25T14:49:47.000Z</time>
      </trkpt>
      <trkpt lat="41.43407343886792659759521484375" lon="-8.445656932890415191650390625">
        <ele>337.79998779296875</ele>
        <time>2020-11-25T14:49:51.000Z</time>
      </trkpt>
      <trkpt lat="41.43405742943286895751953125" lon="-8.44563103280961513519287109375">
        <ele>337.399993896484375</ele>
        <time>2020-11-25T14:49:52.000Z</time>
      </trkpt>
      <trkpt lat="41.434001438319683074951171875" lon="-8.44550899229943752288818359375">
        <ele>336.20001220703125</ele>
        <time>2020-11-25T14:49:56.000Z</time>
      </trkpt>
      <trkpt lat="41.43392541445791721343994140625" lon="-8.44536515884101390838623046875">
        <ele>335</ele>
        <time>2020-11-25T14:50:01.000Z</time>
      </trkpt>
      <trkpt lat="41.4338837563991546630859375" lon="-8.4452829323709011077880859375">
        <ele>333.600006103515625</ele>
        <time>2020-11-25T14:50:04.000Z</time>
      </trkpt>
      <trkpt lat="41.43383589573204517364501953125" lon="-8.4451675973832607269287109375">
        <ele>332.20001220703125</ele>
        <time>2020-11-25T14:50:08.000Z</time>
      </trkpt>
      <trkpt lat="41.43380261957645416259765625" lon="-8.44508998095989227294921875">
        <ele>331</ele>
        <time>2020-11-25T14:50:11.000Z</time>
      </trkpt>
      <trkpt lat="41.43374771811068058013916015625" lon="-8.44496701844036579132080078125">
        <ele>329.79998779296875</ele>
        <time>2020-11-25T14:50:15.000Z</time>
      </trkpt>
      <trkpt lat="41.4337112568318843841552734375" lon="-8.44487649388611316680908203125">
        <ele>328.600006103515625</ele>
        <time>2020-11-25T14:50:18.000Z</time>
      </trkpt>
      <trkpt lat="41.4336790703237056732177734375" lon="-8.4447847120463848114013671875">
        <ele>327</ele>
        <time>2020-11-25T14:50:21.000Z</time>
      </trkpt>
      <trkpt lat="41.43368518911302089691162109375" lon="-8.4446723945438861846923828125">
        <ele>327</ele>
        <time>2020-11-25T14:50:25.000Z</time>
      </trkpt>
      <trkpt lat="41.4337786473333835601806640625" lon="-8.4446428902447223663330078125">
        <ele>328.20001220703125</ele>
        <time>2020-11-25T14:50:29.000Z</time>
      </trkpt>
      <trkpt lat="41.43382349051535129547119140625" lon="-8.4446506015956401824951171875">
        <ele>329.20001220703125</ele>
        <time>2020-11-25T14:50:31.000Z</time>
      </trkpt>
      <trkpt lat="41.43388316966593265533447265625" lon="-8.44465470872819423675537109375">
        <ele>330.399993896484375</ele>
        <time>2020-11-25T14:50:34.000Z</time>
      </trkpt>
      <trkpt lat="41.43394134007394313812255859375" lon="-8.444654457271099090576171875">
        <ele>331.600006103515625</ele>
        <time>2020-11-25T14:50:37.000Z</time>
      </trkpt>
      <trkpt lat="41.43399280495941638946533203125" lon="-8.44464297406375408172607421875">
        <ele>332.600006103515625</ele>
        <time>2020-11-25T14:50:40.000Z</time>
      </trkpt>
      <trkpt lat="41.43403370864689350128173828125" lon="-8.44462939538061618804931640625">
        <ele>333.79998779296875</ele>
        <time>2020-11-25T14:50:43.000Z</time>
      </trkpt>
      <trkpt lat="41.43404896371066570281982421875" lon="-8.44462537206709384918212890625">
        <ele>334</ele>
        <time>2020-11-25T14:50:44.000Z</time>
      </trkpt>
      <trkpt lat="41.43410227261483669281005859375" lon="-8.44461766071617603302001953125">
        <ele>335</ele>
        <time>2020-11-25T14:50:47.000Z</time>
      </trkpt>
      <trkpt lat="41.4341350458562374114990234375" lon="-8.44461162574589252471923828125">
        <ele>335.600006103515625</ele>
        <time>2020-11-25T14:50:49.000Z</time>
      </trkpt>
      <trkpt lat="41.43415574915707111358642578125" lon="-8.4445828758180141448974609375">
        <ele>336.20001220703125</ele>
        <time>2020-11-25T14:50:51.000Z</time>
      </trkpt>
      <trkpt lat="41.4341605268418788909912109375" lon="-8.444564603269100189208984375">
        <ele>336.399993896484375</ele>
        <time>2020-11-25T14:50:52.000Z</time>
      </trkpt>
      <trkpt lat="41.4341622032225131988525390625" lon="-8.44452135264873504638671875">
        <ele>337.399993896484375</ele>
        <time>2020-11-25T14:50:54.000Z</time>
      </trkpt>
      <trkpt lat="41.43415172584354877471923828125" lon="-8.44445270486176013946533203125">
        <ele>338.79998779296875</ele>
        <time>2020-11-25T14:50:57.000Z</time>
      </trkpt>
      <trkpt lat="41.43413387238979339599609375" lon="-8.4442992322146892547607421875">
        <ele>339.399993896484375</ele>
        <time>2020-11-25T14:51:03.000Z</time>
      </trkpt>
      <trkpt lat="41.43412540666759014129638671875" lon="-8.4442522935569286346435546875">
        <ele>340</ele>
        <time>2020-11-25T14:51:05.000Z</time>
      </trkpt>
      <trkpt lat="41.4341239817440509796142578125" lon="-8.44415816478431224822998046875">
        <ele>341.399993896484375</ele>
        <time>2020-11-25T14:51:10.000Z</time>
      </trkpt>
      <trkpt lat="41.43419086933135986328125" lon="-8.444028832018375396728515625">
        <ele>342.20001220703125</ele>
        <time>2020-11-25T14:51:17.000Z</time>
      </trkpt>
      <trkpt lat="41.4342104829847812652587890625" lon="-8.4440142475068569183349609375">
        <ele>342.399993896484375</ele>
        <time>2020-11-25T14:51:18.000Z</time>
      </trkpt>
      <trkpt lat="41.434256248176097869873046875" lon="-8.44397275708615779876708984375">
        <ele>343.79998779296875</ele>
        <time>2020-11-25T14:51:22.000Z</time>
      </trkpt>
      <trkpt lat="41.4342963136732578277587890625" lon="-8.44395406544208526611328125">
        <ele>344.20001220703125</ele>
        <time>2020-11-25T14:51:25.000Z</time>
      </trkpt>
      <trkpt lat="41.43432556651532649993896484375" lon="-8.443880975246429443359375">
        <ele>344.79998779296875</ele>
        <time>2020-11-25T14:51:28.000Z</time>
      </trkpt>
      <trkpt lat="41.43435574136674404144287109375" lon="-8.4436417557299137115478515625">
        <ele>343.79998779296875</ele>
        <time>2020-11-25T14:51:36.000Z</time>
      </trkpt>
      <trkpt lat="41.4343678951263427734375" lon="-8.443595655262470245361328125">
        <ele>343.79998779296875</ele>
        <time>2020-11-25T14:51:38.000Z</time>
      </trkpt>
      <trkpt lat="41.4344213716685771942138671875" lon="-8.44351879321038722991943359375">
        <ele>344.20001220703125</ele>
        <time>2020-11-25T14:51:42.000Z</time>
      </trkpt>
      <trkpt lat="41.4344646222889423370361328125" lon="-8.4434553422033786773681640625">
        <ele>345</ele>
        <time>2020-11-25T14:51:45.000Z</time>
      </trkpt>
      <trkpt lat="41.4345387183129787445068359375" lon="-8.4433748759329319000244140625">
        <ele>346</ele>
        <time>2020-11-25T14:51:50.000Z</time>
      </trkpt>
      <trkpt lat="41.43463050015270709991455078125" lon="-8.44330991618335247039794921875">
        <ele>347.399993896484375</ele>
        <time>2020-11-25T14:51:55.000Z</time>
      </trkpt>
      <trkpt lat="41.43467593006789684295654296875" lon="-8.44328275881707668304443359375">
        <ele>348.600006103515625</ele>
        <time>2020-11-25T14:51:59.000Z</time>
      </trkpt>
      <trkpt lat="41.4347006566822528839111328125" lon="-8.4432769753038883209228515625">
        <ele>349.600006103515625</ele>
        <time>2020-11-25T14:52:02.000Z</time>
      </trkpt>
      <trkpt lat="41.4347251318395137786865234375" lon="-8.443273119628429412841796875">
        <ele>350.600006103515625</ele>
        <time>2020-11-25T14:52:05.000Z</time>
      </trkpt>
      <trkpt lat="41.434755139052867889404296875" lon="-8.44326607882976531982421875">
        <ele>351.79998779296875</ele>
        <time>2020-11-25T14:52:08.000Z</time>
      </trkpt>
      <trkpt lat="41.434793360531330108642578125" lon="-8.4432525001466274261474609375">
        <ele>353</ele>
        <time>2020-11-25T14:52:11.000Z</time>
      </trkpt>
      <trkpt lat="41.4348327554762363433837890625" lon="-8.44321184791624546051025390625">
        <ele>353.399993896484375</ele>
        <time>2020-11-25T14:52:15.000Z</time>
      </trkpt>
      <trkpt lat="41.434871815145015716552734375" lon="-8.44316071830689907073974609375">
        <ele>354.20001220703125</ele>
        <time>2020-11-25T14:52:18.000Z</time>
      </trkpt>
      <trkpt lat="41.43495974130928516387939453125" lon="-8.44305896200239658355712890625">
        <ele>355.20001220703125</ele>
        <time>2020-11-25T14:52:25.000Z</time>
      </trkpt>
      <trkpt lat="41.43502771854400634765625" lon="-8.44298922456800937652587890625">
        <ele>356.399993896484375</ele>
        <time>2020-11-25T14:52:30.000Z</time>
      </trkpt>
      <trkpt lat="41.43512771464884281158447265625" lon="-8.44293893314898014068603515625">
        <ele>357.399993896484375</ele>
        <time>2020-11-25T14:52:35.000Z</time>
      </trkpt>
      <trkpt lat="41.43519829027354717254638671875" lon="-8.44294614158570766448974609375">
        <ele>358.600006103515625</ele>
        <time>2020-11-25T14:52:39.000Z</time>
      </trkpt>
      <trkpt lat="41.43525796942412853240966796875" lon="-8.44296759925782680511474609375">
        <ele>359.79998779296875</ele>
        <time>2020-11-25T14:52:43.000Z</time>
      </trkpt>
      <trkpt lat="41.43532033078372478485107421875" lon="-8.44299492426216602325439453125">
        <ele>360.79998779296875</ele>
        <time>2020-11-25T14:52:47.000Z</time>
      </trkpt>
      <trkpt lat="41.43539291806519031524658203125" lon="-8.44300129450857639312744140625">
        <ele>362</ele>
        <time>2020-11-25T14:52:52.000Z</time>
      </trkpt>
      <trkpt lat="41.4354453049600124359130859375" lon="-8.44301252625882625579833984375">
        <ele>362.600006103515625</ele>
        <time>2020-11-25T14:52:57.000Z</time>
      </trkpt>
      <trkpt lat="41.43548076041042804718017578125" lon="-8.443009592592716217041015625">
        <ele>362.79998779296875</ele>
        <time>2020-11-25T14:53:00.000Z</time>
      </trkpt>
      <trkpt lat="41.4354919083416461944580078125" lon="-8.44300724565982818603515625">
        <ele>363</ele>
        <time>2020-11-25T14:53:01.000Z</time>
      </trkpt>
      <trkpt lat="41.435513198375701904296875" lon="-8.44301537610590457916259765625">
        <ele>364.20001220703125</ele>
        <time>2020-11-25T14:53:04.000Z</time>
      </trkpt>
      <trkpt lat="41.435540020465850830078125" lon="-8.443032391369342803955078125">
        <ele>364.399993896484375</ele>
        <time>2020-11-25T14:53:07.000Z</time>
      </trkpt>
      <trkpt lat="41.4355492405593395233154296875" lon="-8.44303851015865802764892578125">
        <ele>364.600006103515625</ele>
        <time>2020-11-25T14:53:08.000Z</time>
      </trkpt>
      <trkpt lat="41.43555552698671817779541015625" lon="-8.4430481493473052978515625">
        <ele>365</ele>
        <time>2020-11-25T14:53:09.000Z</time>
      </trkpt>
      <trkpt lat="41.4355601370334625244140625" lon="-8.44305678270757198333740234375">
        <ele>365.20001220703125</ele>
        <time>2020-11-25T14:53:10.000Z</time>
      </trkpt>
      <trkpt lat="41.43556424416601657867431640625" lon="-8.443063907325267791748046875">
        <ele>365.20001220703125</ele>
        <time>2020-11-25T14:53:11.000Z</time>
      </trkpt>
      <trkpt lat="41.4355831034481525421142578125" lon="-8.44310908578336238861083984375">
        <ele>366.20001220703125</ele>
        <time>2020-11-25T14:53:16.000Z</time>
      </trkpt>
      <trkpt lat="41.43558570183813571929931640625" lon="-8.44312082044780254364013671875">
        <ele>366.399993896484375</ele>
        <time>2020-11-25T14:53:17.000Z</time>
      </trkpt>
      <trkpt lat="41.43560011871159076690673828125" lon="-8.4431613050401210784912109375">
        <ele>367.600006103515625</ele>
        <time>2020-11-25T14:53:21.000Z</time>
      </trkpt>
      <trkpt lat="41.435632891952991485595703125" lon="-8.4431948326528072357177734375">
        <ele>368.600006103515625</ele>
        <time>2020-11-25T14:53:26.000Z</time>
      </trkpt>
      <trkpt lat="41.4356565289199352264404296875" lon="-8.44322777353227138519287109375">
        <ele>369</ele>
        <time>2020-11-25T14:53:29.000Z</time>
      </trkpt>
      <trkpt lat="41.43568997271358966827392578125" lon="-8.44323095865547657012939453125">
        <ele>369.399993896484375</ele>
        <time>2020-11-25T14:53:33.000Z</time>
      </trkpt>
      <trkpt lat="41.435740850865840911865234375" lon="-8.443216122686862945556640625">
        <ele>369.79998779296875</ele>
        <time>2020-11-25T14:53:41.000Z</time>
      </trkpt>
      <trkpt lat="41.43574453890323638916015625" lon="-8.44322090037167072296142578125">
        <ele>370</ele>
        <time>2020-11-25T14:53:44.000Z</time>
      </trkpt>
      <trkpt lat="41.43574059940874576568603515625" lon="-8.4432364068925380706787109375">
        <ele>370.600006103515625</ele>
        <time>2020-11-25T14:53:49.000Z</time>
      </trkpt>
      <trkpt lat="41.43573909066617488861083984375" lon="-8.4432478062808513641357421875">
        <ele>371</ele>
        <time>2020-11-25T14:53:52.000Z</time>
      </trkpt>
      <trkpt lat="41.4357416890561580657958984375" lon="-8.44327638857066631317138671875">
        <ele>372</ele>
        <time>2020-11-25T14:53:57.000Z</time>
      </trkpt>
      <trkpt lat="41.43574378453195095062255859375" lon="-8.44330631196498870849609375">
        <ele>373</ele>
        <time>2020-11-25T14:54:00.000Z</time>
      </trkpt>
      <trkpt lat="41.43574311397969722747802734375" lon="-8.4433343075215816497802734375">
        <ele>373.79998779296875</ele>
        <time>2020-11-25T14:54:02.000Z</time>
      </trkpt>
      <trkpt lat="41.4357540942728519439697265625" lon="-8.44335593283176422119140625">
        <ele>374.399993896484375</ele>
        <time>2020-11-25T14:54:04.000Z</time>
      </trkpt>
      <trkpt lat="41.43576105125248432159423828125" lon="-8.4433785639703273773193359375">
        <ele>375.20001220703125</ele>
        <time>2020-11-25T14:54:06.000Z</time>
      </trkpt>
      <trkpt lat="41.435768343508243560791015625" lon="-8.443387113511562347412109375">
        <ele>375.600006103515625</ele>
        <time>2020-11-25T14:54:07.000Z</time>
      </trkpt>
      <trkpt lat="41.43578150309622287750244140625" lon="-8.443408571183681488037109375">
        <ele>376</ele>
        <time>2020-11-25T14:54:09.000Z</time>
      </trkpt>
      <trkpt lat="41.43579709343612194061279296875" lon="-8.4434285201132297515869140625">
        <ele>376.600006103515625</ele>
        <time>2020-11-25T14:54:11.000Z</time>
      </trkpt>
      <trkpt lat="41.435803212225437164306640625" lon="-8.4434409253299236297607421875">
        <ele>376.600006103515625</ele>
        <time>2020-11-25T14:54:12.000Z</time>
      </trkpt>
      <trkpt lat="41.43581268377602100372314453125" lon="-8.44346699304878711700439453125">
        <ele>377</ele>
        <time>2020-11-25T14:54:14.000Z</time>
      </trkpt>
      <trkpt lat="41.4358399249613285064697265625" lon="-8.44350907020270824432373046875">
        <ele>377.600006103515625</ele>
        <time>2020-11-25T14:54:18.000Z</time>
      </trkpt>
      <trkpt lat="41.43590019084513187408447265625" lon="-8.44355701468884944915771484375">
        <ele>378.79998779296875</ele>
        <time>2020-11-25T14:54:24.000Z</time>
      </trkpt>
      <trkpt lat="41.4359331317245960235595703125" lon="-8.4435944817960262298583984375">
        <ele>379.79998779296875</ele>
        <time>2020-11-25T14:54:28.000Z</time>
      </trkpt>
      <trkpt lat="41.43600965850055217742919921875" lon="-8.44363798387348651885986328125">
        <ele>380.79998779296875</ele>
        <time>2020-11-25T14:54:36.000Z</time>
      </trkpt>
      <trkpt lat="41.43604402430355548858642578125" lon="-8.44367645680904388427734375">
        <ele>382</ele>
        <time>2020-11-25T14:54:41.000Z</time>
      </trkpt>
      <trkpt lat="41.43607403151690959930419921875" lon="-8.44369632191956043243408203125">
        <ele>383.399993896484375</ele>
        <time>2020-11-25T14:54:45.000Z</time>
      </trkpt>
      <trkpt lat="41.43608291633427143096923828125" lon="-8.44370839186012744903564453125">
        <ele>384.399993896484375</ele>
        <time>2020-11-25T14:54:49.000Z</time>
      </trkpt>
      <trkpt lat="41.43608476035296916961669921875" lon="-8.44373052008450031280517578125">
        <ele>385</ele>
        <time>2020-11-25T14:54:52.000Z</time>
      </trkpt>
      <trkpt lat="41.43608978949487209320068359375" lon="-8.4437420032918453216552734375">
        <ele>385.20001220703125</ele>
        <time>2020-11-25T14:54:54.000Z</time>
      </trkpt>
      <trkpt lat="41.4362982474267482757568359375" lon="-8.443869240581989288330078125">
        <ele>390.600006103515625</ele>
        <time>2020-11-25T14:56:47.000Z</time>
      </trkpt>
      <trkpt lat="41.43629631958901882171630859375" lon="-8.44386077485978603363037109375">
        <ele>391</ele>
        <time>2020-11-25T14:56:48.000Z</time>
      </trkpt>
      <trkpt lat="41.4362935535609722137451171875" lon="-8.4438606910407543182373046875">
        <ele>391</ele>
        <time>2020-11-25T14:56:51.000Z</time>
      </trkpt>
      <trkpt lat="41.43631626851856708526611328125" lon="-8.4438969008624553680419921875">
        <ele>391.79998779296875</ele>
        <time>2020-11-25T14:56:56.000Z</time>
      </trkpt>
      <trkpt lat="41.436330266296863555908203125" lon="-8.443902097642421722412109375">
        <ele>392</ele>
        <time>2020-11-25T14:56:57.000Z</time>
      </trkpt>
      <trkpt lat="41.4363438449800014495849609375" lon="-8.4439022652804851531982421875">
        <ele>392.20001220703125</ele>
        <time>2020-11-25T14:56:58.000Z</time>
      </trkpt>
      <trkpt lat="41.43637594766914844512939453125" lon="-8.44389011152088642120361328125">
        <ele>392.600006103515625</ele>
        <time>2020-11-25T14:57:00.000Z</time>
      </trkpt>
      <trkpt lat="41.43640972673892974853515625" lon="-8.44386555254459381103515625">
        <ele>392.79998779296875</ele>
        <time>2020-11-25T14:57:02.000Z</time>
      </trkpt>
      <trkpt lat="41.43644920550286769866943359375" lon="-8.44384141266345977783203125">
        <ele>393</ele>
        <time>2020-11-25T14:57:04.000Z</time>
      </trkpt>
      <trkpt lat="41.4365446753799915313720703125" lon="-8.443829007446765899658203125">
        <ele>393</ele>
        <time>2020-11-25T14:57:08.000Z</time>
      </trkpt>
      <trkpt lat="41.43655054271221160888671875" lon="-8.4437723457813262939453125">
        <ele>393</ele>
        <time>2020-11-25T14:57:20.000Z</time>
      </trkpt>
      <trkpt lat="41.43656588159501552581787109375" lon="-8.4437876008450984954833984375">
        <ele>393</ele>
        <time>2020-11-25T14:57:21.000Z</time>
      </trkpt>
      <trkpt lat="41.436586081981658935546875" lon="-8.44381433911621570587158203125">
        <ele>392.79998779296875</ele>
        <time>2020-11-25T14:57:23.000Z</time>
      </trkpt>
      <trkpt lat="41.4366144128143787384033203125" lon="-8.443828336894512176513671875">
        <ele>392.600006103515625</ele>
        <time>2020-11-25T14:57:25.000Z</time>
      </trkpt>
      <trkpt lat="41.43663913942873477935791015625" lon="-8.44382640905678272247314453125">
        <ele>392.600006103515625</ele>
        <time>2020-11-25T14:57:26.000Z</time>
      </trkpt>
      <trkpt lat="41.4366657100617885589599609375" lon="-8.443827331066131591796875">
        <ele>392.600006103515625</ele>
        <time>2020-11-25T14:57:27.000Z</time>
      </trkpt>
      <trkpt lat="41.436745338141918182373046875" lon="-8.44385189004242420196533203125">
        <ele>393</ele>
        <time>2020-11-25T14:57:30.000Z</time>
      </trkpt>
      <trkpt lat="41.43689654767513275146484375" lon="-8.44395599327981472015380859375">
        <ele>393.20001220703125</ele>
        <time>2020-11-25T14:57:37.000Z</time>
      </trkpt>
      <trkpt lat="41.43698598258197307586669921875" lon="-8.44407618977129459381103515625">
        <ele>392</ele>
        <time>2020-11-25T14:57:42.000Z</time>
      </trkpt>
      <trkpt lat="41.43704465590417385101318359375" lon="-8.44412245787680149078369140625">
        <ele>390.600006103515625</ele>
        <time>2020-11-25T14:57:45.000Z</time>
      </trkpt>
      <trkpt lat="41.43711204640567302703857421875" lon="-8.44415062107145786285400390625">
        <ele>389.20001220703125</ele>
        <time>2020-11-25T14:57:48.000Z</time>
      </trkpt>
      <trkpt lat="41.4371827058494091033935546875" lon="-8.44419571571052074432373046875">
        <ele>388</ele>
        <time>2020-11-25T14:57:51.000Z</time>
      </trkpt>
      <trkpt lat="41.43724791705608367919921875" lon="-8.44424684531986713409423828125">
        <ele>386.600006103515625</ele>
        <time>2020-11-25T14:57:54.000Z</time>
      </trkpt>
      <trkpt lat="41.43734204582870006561279296875" lon="-8.4444316662847995758056640625">
        <ele>385.600006103515625</ele>
        <time>2020-11-25T14:58:00.000Z</time>
      </trkpt>
      <trkpt lat="41.4374277926981449127197265625" lon="-8.444641046226024627685546875">
        <ele>384.399993896484375</ele>
        <time>2020-11-25T14:58:07.000Z</time>
      </trkpt>
      <trkpt lat="41.43746056593954563140869140625" lon="-8.44472880475223064422607421875">
        <ele>383</ele>
        <time>2020-11-25T14:58:10.000Z</time>
      </trkpt>
      <trkpt lat="41.4375511743128299713134765625" lon="-8.44482653774321079254150390625">
        <ele>381.79998779296875</ele>
        <time>2020-11-25T14:58:14.000Z</time>
      </trkpt>
      <trkpt lat="41.43757506273686885833740234375" lon="-8.444850258529186248779296875">
        <ele>381.399993896484375</ele>
        <time>2020-11-25T14:58:15.000Z</time>
      </trkpt>
      <trkpt lat="41.43760875798761844635009765625" lon="-8.4449178166687488555908203125">
        <ele>380.79998779296875</ele>
        <time>2020-11-25T14:58:17.000Z</time>
      </trkpt>
      <trkpt lat="41.4377147890627384185791015625" lon="-8.44512979499995708465576171875">
        <ele>379.79998779296875</ele>
        <time>2020-11-25T14:58:24.000Z</time>
      </trkpt>
      <trkpt lat="41.4378078281879425048828125" lon="-8.445221744477748870849609375">
        <ele>379.20001220703125</ele>
        <time>2020-11-25T14:58:28.000Z</time>
      </trkpt>
      <trkpt lat="41.437849067151546478271484375" lon="-8.44525937922298908233642578125">
        <ele>378.399993896484375</ele>
        <time>2020-11-25T14:58:30.000Z</time>
      </trkpt>
      <trkpt lat="41.43789441324770450592041015625" lon="-8.445335738360881805419921875">
        <ele>377.20001220703125</ele>
        <time>2020-11-25T14:58:33.000Z</time>
      </trkpt>
      <trkpt lat="41.4379446208477020263671875" lon="-8.44540371559560298919677734375">
        <ele>376</ele>
        <time>2020-11-25T14:58:36.000Z</time>
      </trkpt>
      <trkpt lat="41.43799633719027042388916015625" lon="-8.44545836560428142547607421875">
        <ele>374.600006103515625</ele>
        <time>2020-11-25T14:58:39.000Z</time>
      </trkpt>
      <trkpt lat="41.43800371326506137847900390625" lon="-8.445482589304447174072265625">
        <ele>374</ele>
        <time>2020-11-25T14:58:40.000Z</time>
      </trkpt>
      <trkpt lat="41.43798124976456165313720703125" lon="-8.44557018019258975982666015625">
        <ele>373.600006103515625</ele>
        <time>2020-11-25T14:58:43.000Z</time>
      </trkpt>
      <trkpt lat="41.437809504568576812744140625" lon="-8.4457097388803958892822265625">
        <ele>374.399993896484375</ele>
        <time>2020-11-25T14:58:51.000Z</time>
      </trkpt>
      <trkpt lat="41.43771235831081867218017578125" lon="-8.44585415907204151153564453125">
        <ele>372.399993896484375</ele>
        <time>2020-11-25T14:58:57.000Z</time>
      </trkpt>
      <trkpt lat="41.43768754787743091583251953125" lon="-8.44590134918689727783203125">
        <ele>371.399993896484375</ele>
        <time>2020-11-25T14:58:59.000Z</time>
      </trkpt>
      <trkpt lat="41.43766189925372600555419921875" lon="-8.44597402028739452362060546875">
        <ele>369.79998779296875</ele>
        <time>2020-11-25T14:59:02.000Z</time>
      </trkpt>
      <trkpt lat="41.4376453869044780731201171875" lon="-8.4460280835628509521484375">
        <ele>368.600006103515625</ele>
        <time>2020-11-25T14:59:04.000Z</time>
      </trkpt>
      <trkpt lat="41.43762409687042236328125" lon="-8.44607359729707241058349609375">
        <ele>367.399993896484375</ele>
        <time>2020-11-25T14:59:06.000Z</time>
      </trkpt>
      <trkpt lat="41.43759987317025661468505859375" lon="-8.44612489454448223114013671875">
        <ele>366</ele>
        <time>2020-11-25T14:59:08.000Z</time>
      </trkpt>
      <trkpt lat="41.43755980767309665679931640625" lon="-8.4461891837418079376220703125">
        <ele>364.79998779296875</ele>
        <time>2020-11-25T14:59:11.000Z</time>
      </trkpt>
      <trkpt lat="41.43748973496258258819580078125" lon="-8.4462116472423076629638671875">
        <ele>363.79998779296875</ele>
        <time>2020-11-25T14:59:14.000Z</time>
      </trkpt>
      <trkpt lat="41.4374200813472270965576171875" lon="-8.4462257288396358489990234375">
        <ele>362.399993896484375</ele>
        <time>2020-11-25T14:59:17.000Z</time>
      </trkpt>
      <trkpt lat="41.43735310994088649749755859375" lon="-8.44622589647769927978515625">
        <ele>361.600006103515625</ele>
        <time>2020-11-25T14:59:20.000Z</time>
      </trkpt>
      <trkpt lat="41.43732729367911815643310546875" lon="-8.44622514210641384124755859375">
        <ele>361.20001220703125</ele>
        <time>2020-11-25T14:59:21.000Z</time>
      </trkpt>
      <trkpt lat="41.43728236667811870574951171875" lon="-8.44623201526701450347900390625">
        <ele>360</ele>
        <time>2020-11-25T14:59:23.000Z</time>
      </trkpt>
      <trkpt lat="41.43724615685641765594482421875" lon="-8.44625481404364109039306640625">
        <ele>359</ele>
        <time>2020-11-25T14:59:25.000Z</time>
      </trkpt>
      <trkpt lat="41.437209360301494598388671875" lon="-8.44628917984664440155029296875">
        <ele>357.399993896484375</ele>
        <time>2020-11-25T14:59:27.000Z</time>
      </trkpt>
      <trkpt lat="41.4371552132070064544677734375" lon="-8.44635196030139923095703125">
        <ele>356.399993896484375</ele>
        <time>2020-11-25T14:59:30.000Z</time>
      </trkpt>
      <trkpt lat="41.43713082186877727508544921875" lon="-8.44640585593879222869873046875">
        <ele>356.20001220703125</ele>
        <time>2020-11-25T14:59:32.000Z</time>
      </trkpt>
      <trkpt lat="41.43715328536927700042724609375" lon="-8.446498475968837738037109375">
        <ele>355</ele>
        <time>2020-11-25T14:59:35.000Z</time>
      </trkpt>
      <trkpt lat="41.43721648491919040679931640625" lon="-8.44657164998352527618408203125">
        <ele>353.79998779296875</ele>
        <time>2020-11-25T14:59:38.000Z</time>
      </trkpt>
      <trkpt lat="41.4372370205819606781005859375" lon="-8.44661590643227100372314453125">
        <ele>353.399993896484375</ele>
        <time>2020-11-25T14:59:40.000Z</time>
      </trkpt>
      <trkpt lat="41.43722302280366420745849609375" lon="-8.4466599114239215850830078125">
        <ele>354</ele>
        <time>2020-11-25T14:59:42.000Z</time>
      </trkpt>
      <trkpt lat="41.43719251267611980438232421875" lon="-8.44667659141123294830322265625">
        <ele>354.399993896484375</ele>
        <time>2020-11-25T14:59:44.000Z</time>
      </trkpt>
      <trkpt lat="41.43715982325375080108642578125" lon="-8.44667189754545688629150390625">
        <ele>355</ele>
        <time>2020-11-25T14:59:46.000Z</time>
      </trkpt>
      <trkpt lat="41.43713149242103099822998046875" lon="-8.4466736577451229095458984375">
        <ele>355.600006103515625</ele>
        <time>2020-11-25T14:59:48.000Z</time>
      </trkpt>
      <trkpt lat="41.43687617965042591094970703125" lon="-8.4468134678900241851806640625">
        <ele>360.20001220703125</ele>
        <time>2020-11-25T15:03:53.000Z</time>
      </trkpt>
      <trkpt lat="41.43687668256461620330810546875" lon="-8.44680550508201122283935546875">
        <ele>360.600006103515625</ele>
        <time>2020-11-25T15:03:56.000Z</time>
      </trkpt>
      <trkpt lat="41.43686838448047637939453125" lon="-8.4468235261738300323486328125">
        <ele>360.20001220703125</ele>
        <time>2020-11-25T15:03:58.000Z</time>
      </trkpt>
      <trkpt lat="41.436851285398006439208984375" lon="-8.446943052113056182861328125">
        <ele>359.600006103515625</ele>
        <time>2020-11-25T15:04:05.000Z</time>
      </trkpt>
      <trkpt lat="41.43683980219066143035888671875" lon="-8.44696358777582645416259765625">
        <ele>359.20001220703125</ele>
        <time>2020-11-25T15:04:06.000Z</time>
      </trkpt>
      <trkpt lat="41.4368125610053539276123046875" lon="-8.44698496162891387939453125">
        <ele>358.79998779296875</ele>
        <time>2020-11-25T15:04:08.000Z</time>
      </trkpt>
      <trkpt lat="41.43678833730518817901611328125" lon="-8.4470199979841709136962890625">
        <ele>358.600006103515625</ele>
        <time>2020-11-25T15:04:10.000Z</time>
      </trkpt>
      <trkpt lat="41.43677777610719203948974609375" lon="-8.44703952781856060028076171875">
        <ele>358.399993896484375</ele>
        <time>2020-11-25T15:04:11.000Z</time>
      </trkpt>
      <trkpt lat="41.43677182495594024658203125" lon="-8.44706115312874317169189453125">
        <ele>358</ele>
        <time>2020-11-25T15:04:12.000Z</time>
      </trkpt>
      <trkpt lat="41.4367590844631195068359375" lon="-8.44710859470069408416748046875">
        <ele>357.399993896484375</ele>
        <time>2020-11-25T15:04:14.000Z</time>
      </trkpt>
      <trkpt lat="41.4367398060858249664306640625" lon="-8.447168357670307159423828125">
        <ele>357.20001220703125</ele>
        <time>2020-11-25T15:04:17.000Z</time>
      </trkpt>
      <trkpt lat="41.43673025071620941162109375" lon="-8.44718621112406253814697265625">
        <ele>357</ele>
        <time>2020-11-25T15:04:18.000Z</time>
      </trkpt>
      <trkpt lat="41.4366962201893329620361328125" lon="-8.44725946895778179168701171875">
        <ele>357.600006103515625</ele>
        <time>2020-11-25T15:04:21.000Z</time>
      </trkpt>
      <trkpt lat="41.43655532039701938629150390625" lon="-8.44734613783657550811767578125">
        <ele>357.20001220703125</ele>
        <time>2020-11-25T15:04:28.000Z</time>
      </trkpt>
      <trkpt lat="41.43640008755028247833251953125" lon="-8.44739961437880992889404296875">
        <ele>355.600006103515625</ele>
        <time>2020-11-25T15:04:37.000Z</time>
      </trkpt>
      <trkpt lat="41.4363783784210681915283203125" lon="-8.4474370814859867095947265625">
        <ele>354.600006103515625</ele>
        <time>2020-11-25T15:04:39.000Z</time>
      </trkpt>
      <trkpt lat="41.4363594353199005126953125" lon="-8.44747924245893955230712890625">
        <ele>353.600006103515625</ele>
        <time>2020-11-25T15:04:41.000Z</time>
      </trkpt>
      <trkpt lat="41.43633420579135417938232421875" lon="-8.44752986915409564971923828125">
        <ele>352.399993896484375</ele>
        <time>2020-11-25T15:04:44.000Z</time>
      </trkpt>
      <trkpt lat="41.436302103102207183837890625" lon="-8.44756431877613067626953125">
        <ele>351.399993896484375</ele>
        <time>2020-11-25T15:04:46.000Z</time>
      </trkpt>
      <trkpt lat="41.43625055439770221710205078125" lon="-8.44760145060718059539794921875">
        <ele>350.20001220703125</ele>
        <time>2020-11-25T15:04:49.000Z</time>
      </trkpt>
      <trkpt lat="41.43618383444845676422119140625" lon="-8.4476171247661113739013671875">
        <ele>349</ele>
        <time>2020-11-25T15:04:53.000Z</time>
      </trkpt>
      <trkpt lat="41.436130106449127197265625" lon="-8.44759843312203884124755859375">
        <ele>348.399993896484375</ele>
        <time>2020-11-25T15:04:57.000Z</time>
      </trkpt>
      <trkpt lat="41.436082832515239715576171875" lon="-8.44754093326628208160400390625">
        <ele>348.79998779296875</ele>
        <time>2020-11-25T15:05:01.000Z</time>
      </trkpt>
      <trkpt lat="41.435992307960987091064453125" lon="-8.4475343115627765655517578125">
        <ele>348.600006103515625</ele>
        <time>2020-11-25T15:05:05.000Z</time>
      </trkpt>
      <trkpt lat="41.43586582504212856292724609375" lon="-8.447454012930393218994140625">
        <ele>349.79998779296875</ele>
        <time>2020-11-25T15:05:11.000Z</time>
      </trkpt>
      <trkpt lat="41.43585794605314731597900390625" lon="-8.44740699045360088348388671875">
        <ele>350.399993896484375</ele>
        <time>2020-11-25T15:05:13.000Z</time>
      </trkpt>
      <trkpt lat="41.4358362369239330291748046875" lon="-8.4473371692001819610595703125">
        <ele>350.600006103515625</ele>
        <time>2020-11-25T15:05:16.000Z</time>
      </trkpt>
      <trkpt lat="41.435793824493885040283203125" lon="-8.447327278554439544677734375">
        <ele>350.600006103515625</ele>
        <time>2020-11-25T15:05:18.000Z</time>
      </trkpt>
      <trkpt lat="41.435643620789051055908203125" lon="-8.44737011007964611053466796875">
        <ele>350.399993896484375</ele>
        <time>2020-11-25T15:05:24.000Z</time>
      </trkpt>
      <trkpt lat="41.435522921383380889892578125" lon="-8.4474005363881587982177734375">
        <ele>350.600006103515625</ele>
        <time>2020-11-25T15:05:30.000Z</time>
      </trkpt>
      <trkpt lat="41.435431726276874542236328125" lon="-8.44749282114207744598388671875">
        <ele>349</ele>
        <time>2020-11-25T15:05:35.000Z</time>
      </trkpt>
      <trkpt lat="41.435394845902919769287109375" lon="-8.44758803956210613250732421875">
        <ele>348</ele>
        <time>2020-11-25T15:05:38.000Z</time>
      </trkpt>
      <trkpt lat="41.4353474043309688568115234375" lon="-8.44778870232403278350830078125">
        <ele>346.79998779296875</ele>
        <time>2020-11-25T15:05:44.000Z</time>
      </trkpt>
      <trkpt lat="41.43529853783547878265380859375" lon="-8.44795399345457553863525390625">
        <ele>345.79998779296875</ele>
        <time>2020-11-25T15:05:50.000Z</time>
      </trkpt>
      <trkpt lat="41.43529267050325870513916015625" lon="-8.44799456186592578887939453125">
        <ele>345.399993896484375</ele>
        <time>2020-11-25T15:05:52.000Z</time>
      </trkpt>
      <trkpt lat="41.43534396775066852569580078125" lon="-8.44808927737176418304443359375">
        <ele>345</ele>
        <time>2020-11-25T15:05:56.000Z</time>
      </trkpt>
      <trkpt lat="41.43532812595367431640625" lon="-8.44811123795807361602783203125">
        <ele>344.600006103515625</ele>
        <time>2020-11-25T15:05:58.000Z</time>
      </trkpt>
      <trkpt lat="41.4352692849934101104736328125" lon="-8.44814409501850605010986328125">
        <ele>345.600006103515625</ele>
        <time>2020-11-25T15:06:01.000Z</time>
      </trkpt>
      <trkpt lat="41.4352528564631938934326171875" lon="-8.448167480528354644775390625">
        <ele>345.79998779296875</ele>
        <time>2020-11-25T15:06:02.000Z</time>
      </trkpt>
      <trkpt lat="41.43518152646720409393310546875" lon="-8.44841198064386844635009765625">
        <ele>345.79998779296875</ele>
        <time>2020-11-25T15:06:09.000Z</time>
      </trkpt>
      <trkpt lat="41.4351170696318149566650390625" lon="-8.44863141886889934539794921875">
        <ele>346.600006103515625</ele>
        <time>2020-11-25T15:06:16.000Z</time>
      </trkpt>
      <trkpt lat="41.43515579402446746826171875" lon="-8.4488650225102901458740234375">
        <ele>346.20001220703125</ele>
        <time>2020-11-25T15:06:24.000Z</time>
      </trkpt>
      <trkpt lat="41.43515034578740596771240234375" lon="-8.449039198458194732666015625">
        <ele>346.79998779296875</ele>
        <time>2020-11-25T15:06:30.000Z</time>
      </trkpt>
      <trkpt lat="41.4351868070662021636962890625" lon="-8.44927556812763214111328125">
        <ele>347.79998779296875</ele>
        <time>2020-11-25T15:06:37.000Z</time>
      </trkpt>
      <trkpt lat="41.4352236874401569366455078125" lon="-8.44938377849757671356201171875">
        <ele>347.79998779296875</ele>
        <time>2020-11-25T15:06:40.000Z</time>
      </trkpt>
      <trkpt lat="41.4352917484939098358154296875" lon="-8.44955711625516414642333984375">
        <ele>346.399993896484375</ele>
        <time>2020-11-25T15:06:45.000Z</time>
      </trkpt>
      <trkpt lat="41.4352894015610218048095703125" lon="-8.44963540323078632354736328125">
        <ele>345.79998779296875</ele>
        <time>2020-11-25T15:06:48.000Z</time>
      </trkpt>
      <trkpt lat="41.43527590669691562652587890625" lon="-8.44964462332427501678466796875">
        <ele>346</ele>
        <time>2020-11-25T15:06:49.000Z</time>
      </trkpt>
      <trkpt lat="41.4351049996912479400634765625" lon="-8.44975979067385196685791015625">
        <ele>347</ele>
        <time>2020-11-25T15:06:57.000Z</time>
      </trkpt>
      <trkpt lat="41.4349601604044437408447265625" lon="-8.44993262551724910736083984375">
        <ele>347.20001220703125</ele>
        <time>2020-11-25T15:07:04.000Z</time>
      </trkpt>
      <trkpt lat="41.43491866998374462127685546875" lon="-8.44998794607818126678466796875">
        <ele>347.399993896484375</ele>
        <time>2020-11-25T15:07:06.000Z</time>
      </trkpt>
      <trkpt lat="41.4347881637513637542724609375" lon="-8.45015826635062694549560546875">
        <ele>347.600006103515625</ele>
        <time>2020-11-25T15:07:13.000Z</time>
      </trkpt>
      <trkpt lat="41.43466000445187091827392578125" lon="-8.450327329337596893310546875">
        <ele>347.79998779296875</ele>
        <time>2020-11-25T15:07:19.000Z</time>
      </trkpt>
      <trkpt lat="41.4345004968345165252685546875" lon="-8.4504726715385913848876953125">
        <ele>348</ele>
        <time>2020-11-25T15:07:26.000Z</time>
      </trkpt>
      <trkpt lat="41.43437854014337062835693359375" lon="-8.45056076534092426300048828125">
        <ele>348.20001220703125</ele>
        <time>2020-11-25T15:07:31.000Z</time>
      </trkpt>
      <trkpt lat="41.434354148805141448974609375" lon="-8.450580127537250518798828125">
        <ele>348.399993896484375</ele>
        <time>2020-11-25T15:07:32.000Z</time>
      </trkpt>
      <trkpt lat="41.4341974072158336639404296875" lon="-8.4507569856941699981689453125">
        <ele>348.79998779296875</ele>
        <time>2020-11-25T15:07:40.000Z</time>
      </trkpt>
      <trkpt lat="41.43407612107694149017333984375" lon="-8.4509474225342273712158203125">
        <ele>349.399993896484375</ele>
        <time>2020-11-25T15:07:47.000Z</time>
      </trkpt>
      <trkpt lat="41.4340354688465595245361328125" lon="-8.45103216357529163360595703125">
        <ele>349.399993896484375</ele>
        <time>2020-11-25T15:07:50.000Z</time>
      </trkpt>
      <trkpt lat="41.4339338801801204681396484375" lon="-8.45123358070850372314453125">
        <ele>350.20001220703125</ele>
        <time>2020-11-25T15:07:58.000Z</time>
      </trkpt>
      <trkpt lat="41.433875374495983123779296875" lon="-8.45137850381433963775634765625">
        <ele>351</ele>
        <time>2020-11-25T15:08:03.000Z</time>
      </trkpt>
      <trkpt lat="41.4337799884378910064697265625" lon="-8.4515928290784358978271484375">
        <ele>350.79998779296875</ele>
        <time>2020-11-25T15:08:11.000Z</time>
      </trkpt>
      <trkpt lat="41.433701701462268829345703125" lon="-8.451820313930511474609375">
        <ele>352.20001220703125</ele>
        <time>2020-11-25T15:08:18.000Z</time>
      </trkpt>
      <trkpt lat="41.4335774816572666168212890625" lon="-8.45199256204068660736083984375">
        <ele>352.600006103515625</ele>
        <time>2020-11-25T15:08:26.000Z</time>
      </trkpt>
      <trkpt lat="41.43339232541620731353759765625" lon="-8.4520397521555423736572265625">
        <ele>351.600006103515625</ele>
        <time>2020-11-25T15:08:33.000Z</time>
      </trkpt>
      <trkpt lat="41.4332955144345760345458984375" lon="-8.4521044604480266571044921875">
        <ele>351</ele>
        <time>2020-11-25T15:08:37.000Z</time>
      </trkpt>
      <trkpt lat="41.4331476576626300811767578125" lon="-8.45224921591579914093017578125">
        <ele>350.79998779296875</ele>
        <time>2020-11-25T15:08:44.000Z</time>
      </trkpt>
      <trkpt lat="41.43303911201655864715576171875" lon="-8.45230772159993648529052734375">
        <ele>350.600006103515625</ele>
        <time>2020-11-25T15:08:49.000Z</time>
      </trkpt>
      <trkpt lat="41.4328720606863498687744140625" lon="-8.45228928141295909881591796875">
        <ele>350.600006103515625</ele>
        <time>2020-11-25T15:08:56.000Z</time>
      </trkpt>
      <trkpt lat="41.43272680230438709259033203125" lon="-8.452117703855037689208984375">
        <ele>351</ele>
        <time>2020-11-25T15:09:03.000Z</time>
      </trkpt>
      <trkpt lat="41.43266133964061737060546875" lon="-8.452007733285427093505859375">
        <ele>350.79998779296875</ele>
        <time>2020-11-25T15:09:09.000Z</time>
      </trkpt>
      <trkpt lat="41.4325721561908721923828125" lon="-8.45195199362933635711669921875">
        <ele>349.79998779296875</ele>
        <time>2020-11-25T15:09:24.000Z</time>
      </trkpt>
      <trkpt lat="41.4325941167771816253662109375" lon="-8.45197160728275775909423828125">
        <ele>350</ele>
        <time>2020-11-25T15:09:26.000Z</time>
      </trkpt>
      <trkpt lat="41.4326231181621551513671875" lon="-8.45197361893951892852783203125">
        <ele>350</ele>
        <time>2020-11-25T15:09:28.000Z</time>
      </trkpt>
      <trkpt lat="41.432643570005893707275390625" lon="-8.45194092951714992523193359375">
        <ele>350</ele>
        <time>2020-11-25T15:09:30.000Z</time>
      </trkpt>
      <trkpt lat="41.43264516256749629974365234375" lon="-8.45191293396055698394775390625">
        <ele>350</ele>
        <time>2020-11-25T15:09:31.000Z</time>
      </trkpt>
      <trkpt lat="41.43265270628035068511962890625" lon="-8.4518365748226642608642578125">
        <ele>348.399993896484375</ele>
        <time>2020-11-25T15:09:34.000Z</time>
      </trkpt>
      <trkpt lat="41.43264683894813060760498046875" lon="-8.451778404414653778076171875">
        <ele>347.399993896484375</ele>
        <time>2020-11-25T15:09:36.000Z</time>
      </trkpt>
      <trkpt lat="41.43261733464896678924560546875" lon="-8.4517011232674121856689453125">
        <ele>346</ele>
        <time>2020-11-25T15:09:39.000Z</time>
      </trkpt>
      <trkpt lat="41.432583890855312347412109375" lon="-8.4516716189682483673095703125">
        <ele>345</ele>
        <time>2020-11-25T15:09:41.000Z</time>
      </trkpt>
      <trkpt lat="41.4325491897761821746826171875" lon="-8.45165007747709751129150390625">
        <ele>344</ele>
        <time>2020-11-25T15:09:43.000Z</time>
      </trkpt>
      <trkpt lat="41.4324935339391231536865234375" lon="-8.45160900615155696868896484375">
        <ele>342.600006103515625</ele>
        <time>2020-11-25T15:09:46.000Z</time>
      </trkpt>
      <trkpt lat="41.43244131468236446380615234375" lon="-8.45158956013619899749755859375">
        <ele>341.20001220703125</ele>
        <time>2020-11-25T15:09:49.000Z</time>
      </trkpt>
      <trkpt lat="41.43236319534480571746826171875" lon="-8.45154739916324615478515625">
        <ele>340</ele>
        <time>2020-11-25T15:09:53.000Z</time>
      </trkpt>
      <trkpt lat="41.432251967489719390869140625" lon="-8.4515126980841159820556640625">
        <ele>339.399993896484375</ele>
        <time>2020-11-25T15:09:59.000Z</time>
      </trkpt>
      <trkpt lat="41.43224316649138927459716796875" lon="-8.451506160199642181396484375">
        <ele>339.20001220703125</ele>
        <time>2020-11-25T15:10:00.000Z</time>
      </trkpt>
      <trkpt lat="41.43222413957118988037109375" lon="-8.4514895640313625335693359375">
        <ele>339</ele>
        <time>2020-11-25T15:10:02.000Z</time>
      </trkpt>
      <trkpt lat="41.43221651203930377960205078125" lon="-8.45148160122334957122802734375">
        <ele>338.600006103515625</ele>
        <time>2020-11-25T15:10:03.000Z</time>
      </trkpt>
      <trkpt lat="41.4321616105735301971435546875" lon="-8.45139308832585811614990234375">
        <ele>337.20001220703125</ele>
        <time>2020-11-25T15:10:07.000Z</time>
      </trkpt>
      <trkpt lat="41.4321009255945682525634765625" lon="-8.4513098560273647308349609375">
        <ele>336.600006103515625</ele>
        <time>2020-11-25T15:10:10.000Z</time>
      </trkpt>
      <trkpt lat="41.432003192603588104248046875" lon="-8.45113928429782390594482421875">
        <ele>336.600006103515625</ele>
        <time>2020-11-25T15:10:16.000Z</time>
      </trkpt>
      <trkpt lat="41.43194384872913360595703125" lon="-8.4510329179465770721435546875">
        <ele>338</ele>
        <time>2020-11-25T15:10:20.000Z</time>
      </trkpt>
      <trkpt lat="41.43193068914115428924560546875" lon="-8.45101171173155307769775390625">
        <ele>338.399993896484375</ele>
        <time>2020-11-25T15:10:21.000Z</time>
      </trkpt>
      <trkpt lat="41.43190202303230762481689453125" lon="-8.45096879638731479644775390625">
        <ele>338.79998779296875</ele>
        <time>2020-11-25T15:10:23.000Z</time>
      </trkpt>
      <trkpt lat="41.4318769611418247222900390625" lon="-8.4509299881756305694580078125">
        <ele>339.399993896484375</ele>
        <time>2020-11-25T15:10:25.000Z</time>
      </trkpt>
      <trkpt lat="41.43185977824032306671142578125" lon="-8.4508900903165340423583984375">
        <ele>340</ele>
        <time>2020-11-25T15:10:27.000Z</time>
      </trkpt>
      <trkpt lat="41.43184728920459747314453125" lon="-8.45087416470050811767578125">
        <ele>340.399993896484375</ele>
        <time>2020-11-25T15:10:28.000Z</time>
      </trkpt>
      <trkpt lat="41.4318112470209598541259765625" lon="-8.4508300758898258209228515625">
        <ele>341.399993896484375</ele>
        <time>2020-11-25T15:10:31.000Z</time>
      </trkpt>
      <trkpt lat="41.4317969977855682373046875" lon="-8.45076729543507099151611328125">
        <ele>342.79998779296875</ele>
        <time>2020-11-25T15:10:34.000Z</time>
      </trkpt>
      <trkpt lat="41.431790292263031005859375" lon="-8.45075371675193309783935546875">
        <ele>343</ele>
        <time>2020-11-25T15:10:35.000Z</time>
      </trkpt>
      <trkpt lat="41.4317567646503448486328125" lon="-8.450713567435741424560546875">
        <ele>343.79998779296875</ele>
        <time>2020-11-25T15:10:38.000Z</time>
      </trkpt>
      <trkpt lat="41.4317502267658710479736328125" lon="-8.45069789327681064605712890625">
        <ele>344.20001220703125</ele>
        <time>2020-11-25T15:10:39.000Z</time>
      </trkpt>
      <trkpt lat="41.4317187108099460601806640625" lon="-8.45065045170485973358154296875">
        <ele>344.79998779296875</ele>
        <time>2020-11-25T15:10:42.000Z</time>
      </trkpt>
      <trkpt lat="41.43171091563999652862548828125" lon="-8.4506325982511043548583984375">
        <ele>345</ele>
        <time>2020-11-25T15:10:43.000Z</time>
      </trkpt>
      <trkpt lat="41.4316851831972599029541015625" lon="-8.45055322162806987762451171875">
        <ele>346</ele>
        <time>2020-11-25T15:10:47.000Z</time>
      </trkpt>
      <trkpt lat="41.4316791482269763946533203125" lon="-8.45053411088883876800537109375">
        <ele>346.20001220703125</ele>
        <time>2020-11-25T15:10:48.000Z</time>
      </trkpt>
      <trkpt lat="41.43165727145969867706298828125" lon="-8.4504944644868373870849609375">
        <ele>346.600006103515625</ele>
        <time>2020-11-25T15:10:50.000Z</time>
      </trkpt>
      <trkpt lat="41.43163749016821384429931640625" lon="-8.45046035014092922210693359375">
        <ele>347.20001220703125</ele>
        <time>2020-11-25T15:10:52.000Z</time>
      </trkpt>
      <trkpt lat="41.43159759230911731719970703125" lon="-8.450395055115222930908203125">
        <ele>348.600006103515625</ele>
        <time>2020-11-25T15:10:56.000Z</time>
      </trkpt>
      <trkpt lat="41.4315913058817386627197265625" lon="-8.45034199766814708709716796875">
        <ele>349.79998779296875</ele>
        <time>2020-11-25T15:10:59.000Z</time>
      </trkpt>
      <trkpt lat="41.43160857260227203369140625" lon="-8.45029212534427642822265625">
        <ele>351</ele>
        <time>2020-11-25T15:11:02.000Z</time>
      </trkpt>
      <trkpt lat="41.43160832114517688751220703125" lon="-8.45027477480471134185791015625">
        <ele>351.399993896484375</ele>
        <time>2020-11-25T15:11:03.000Z</time>
      </trkpt>
      <trkpt lat="41.43159918487071990966796875" lon="-8.45023923553526401519775390625">
        <ele>352.20001220703125</ele>
        <time>2020-11-25T15:11:05.000Z</time>
      </trkpt>
      <trkpt lat="41.43160178326070308685302734375" lon="-8.45020419918000698089599609375">
        <ele>352.79998779296875</ele>
        <time>2020-11-25T15:11:07.000Z</time>
      </trkpt>
      <trkpt lat="41.431610248982906341552734375" lon="-8.4501803107559680938720703125">
        <ele>353.20001220703125</ele>
        <time>2020-11-25T15:11:09.000Z</time>
      </trkpt>
      <trkpt lat="41.43161452375352382659912109375" lon="-8.4501613676548004150390625">
        <ele>353.600006103515625</ele>
        <time>2020-11-25T15:11:11.000Z</time>
      </trkpt>
      <trkpt lat="41.431610248982906341552734375" lon="-8.45014116726815700531005859375">
        <ele>354.399993896484375</ele>
        <time>2020-11-25T15:11:13.000Z</time>
      </trkpt>
      <trkpt lat="41.43158837221562862396240234375" lon="-8.45009087584912776947021484375">
        <ele>355.20001220703125</ele>
        <time>2020-11-25T15:11:17.000Z</time>
      </trkpt>
      <trkpt lat="41.43157906830310821533203125" lon="-8.4500810690224170684814453125">
        <ele>355.600006103515625</ele>
        <time>2020-11-25T15:11:18.000Z</time>
      </trkpt>
      <trkpt lat="41.43154026009142398834228515625" lon="-8.45002801157534122467041015625">
        <ele>355.600006103515625</ele>
        <time>2020-11-25T15:11:22.000Z</time>
      </trkpt>
      <trkpt lat="41.431490890681743621826171875" lon="-8.4499613754451274871826171875">
        <ele>354.399993896484375</ele>
        <time>2020-11-25T15:11:26.000Z</time>
      </trkpt>
      <trkpt lat="41.4314488135278224945068359375" lon="-8.44989423640072345733642578125">
        <ele>353</ele>
        <time>2020-11-25T15:11:29.000Z</time>
      </trkpt>
      <trkpt lat="41.4313737116754055023193359375" lon="-8.44984444789588451385498046875">
        <ele>352</ele>
        <time>2020-11-25T15:11:33.000Z</time>
      </trkpt>
      <trkpt lat="41.4313314668834209442138671875" lon="-8.44981737434864044189453125">
        <ele>350.600006103515625</ele>
        <time>2020-11-25T15:11:36.000Z</time>
      </trkpt>
      <trkpt lat="41.4313007891178131103515625" lon="-8.44979549758136272430419921875">
        <ele>349.79998779296875</ele>
        <time>2020-11-25T15:11:38.000Z</time>
      </trkpt>
      <trkpt lat="41.4312908984720706939697265625" lon="-8.4497793205082416534423828125">
        <ele>349.399993896484375</ele>
        <time>2020-11-25T15:11:39.000Z</time>
      </trkpt>
      <trkpt lat="41.43127187155187129974365234375" lon="-8.44970296137034893035888671875">
        <ele>349.399993896484375</ele>
        <time>2020-11-25T15:11:42.000Z</time>
      </trkpt>
      <trkpt lat="41.4312825165688991546630859375" lon="-8.44964462332427501678466796875">
        <ele>349.600006103515625</ele>
        <time>2020-11-25T15:11:44.000Z</time>
      </trkpt>
      <trkpt lat="41.4313237555325031280517578125" lon="-8.4495255164802074432373046875">
        <ele>348.399993896484375</ele>
        <time>2020-11-25T15:11:50.000Z</time>
      </trkpt>
      <trkpt lat="41.43133222125470638275146484375" lon="-8.44950699247419834136962890625">
        <ele>348.20001220703125</ele>
        <time>2020-11-25T15:11:51.000Z</time>
      </trkpt>
      <trkpt lat="41.431348063051700592041015625" lon="-8.44946005381643772125244140625">
        <ele>348</ele>
        <time>2020-11-25T15:11:53.000Z</time>
      </trkpt>
      <trkpt lat="41.43136641941964626312255859375" lon="-8.44941311515867710113525390625">
        <ele>347</ele>
        <time>2020-11-25T15:11:55.000Z</time>
      </trkpt>
      <trkpt lat="41.43139374442398548126220703125" lon="-8.4493280388414859771728515625">
        <ele>346.399993896484375</ele>
        <time>2020-11-25T15:12:00.000Z</time>
      </trkpt>
      <trkpt lat="41.43137647770345211029052734375" lon="-8.44932141713798046112060546875">
        <ele>346.399993896484375</ele>
        <time>2020-11-25T15:12:02.000Z</time>
      </trkpt>
      <trkpt lat="41.43134781159460544586181640625" lon="-8.44932544045150279998779296875">
        <ele>346.79998779296875</ele>
        <time>2020-11-25T15:12:04.000Z</time>
      </trkpt>
      <trkpt lat="41.43130053766071796417236328125" lon="-8.44933348707854747772216796875">
        <ele>346.399993896484375</ele>
        <time>2020-11-25T15:12:07.000Z</time>
      </trkpt>
      <trkpt lat="41.43128511495888233184814453125" lon="-8.44934740103781223297119140625">
        <ele>346.600006103515625</ele>
        <time>2020-11-25T15:12:08.000Z</time>
      </trkpt>
      <trkpt lat="41.431214623153209686279296875" lon="-8.44938830472528934478759765625">
        <ele>348</ele>
        <time>2020-11-25T15:12:12.000Z</time>
      </trkpt>
      <trkpt lat="41.43119811080396175384521484375" lon="-8.449390567839145660400390625">
        <ele>348.399993896484375</ele>
        <time>2020-11-25T15:12:13.000Z</time>
      </trkpt>
      <trkpt lat="41.431160308420658111572265625" lon="-8.44940967857837677001953125">
        <ele>349.20001220703125</ele>
        <time>2020-11-25T15:12:15.000Z</time>
      </trkpt>
      <trkpt lat="41.43114413134753704071044921875" lon="-8.449416719377040863037109375">
        <ele>349.399993896484375</ele>
        <time>2020-11-25T15:12:16.000Z</time>
      </trkpt>
      <trkpt lat="41.43110574223101139068603515625" lon="-8.44943775795400142669677734375">
        <ele>350.600006103515625</ele>
        <time>2020-11-25T15:12:19.000Z</time>
      </trkpt>
      <trkpt lat="41.43105729483067989349365234375" lon="-8.44946055673062801361083984375">
        <ele>351.600006103515625</ele>
        <time>2020-11-25T15:12:23.000Z</time>
      </trkpt>
      <trkpt lat="41.431033574044704437255859375" lon="-8.44946734607219696044921875">
        <ele>352</ele>
        <time>2020-11-25T15:12:25.000Z</time>
      </trkpt>
      <trkpt lat="41.4310092665255069732666015625" lon="-8.44947765581309795379638671875">
        <ele>352.79998779296875</ele>
        <time>2020-11-25T15:12:27.000Z</time>
      </trkpt>
      <trkpt lat="41.4309703744947910308837890625" lon="-8.44949550926685333251953125">
        <ele>353.79998779296875</ele>
        <time>2020-11-25T15:12:30.000Z</time>
      </trkpt>
      <trkpt lat="41.43094070255756378173828125" lon="-8.4494862891733646392822265625">
        <ele>355.399993896484375</ele>
        <time>2020-11-25T15:12:33.000Z</time>
      </trkpt>
      <trkpt lat="41.4309314824640750885009765625" lon="-8.44946776516735553741455078125">
        <ele>355.79998779296875</ele>
        <time>2020-11-25T15:12:35.000Z</time>
      </trkpt>
      <trkpt lat="41.4309241063892841339111328125" lon="-8.4494626522064208984375">
        <ele>356.20001220703125</ele>
        <time>2020-11-25T15:12:36.000Z</time>
      </trkpt>
      <trkpt lat="41.430919580161571502685546875" lon="-8.449459634721279144287109375">
        <ele>356.399993896484375</ele>
        <time>2020-11-25T15:12:37.000Z</time>
      </trkpt>
      <trkpt lat="41.4309070073068141937255859375" lon="-8.4494467265903949737548828125">
        <ele>357.600006103515625</ele>
        <time>2020-11-25T15:12:40.000Z</time>
      </trkpt>
      <trkpt lat="41.430898793041706085205078125" lon="-8.449448235332965850830078125">
        <ele>357.600006103515625</ele>
        <time>2020-11-25T15:12:42.000Z</time>
      </trkpt>
      <trkpt lat="41.4308915846049785614013671875" lon="-8.449452258646488189697265625">
        <ele>357.399993896484375</ele>
        <time>2020-11-25T15:12:44.000Z</time>
      </trkpt>
      <trkpt lat="41.43087658099830150604248046875" lon="-8.44946256838738918304443359375">
        <ele>356.600006103515625</ele>
        <time>2020-11-25T15:12:47.000Z</time>
      </trkpt>
      <trkpt lat="41.43086752854287624359130859375" lon="-8.44947413541376590728759765625">
        <ele>356.399993896484375</ele>
        <time>2020-11-25T15:12:48.000Z</time>
      </trkpt>
      <trkpt lat="41.4307873137295246124267578125" lon="-8.449490480124950408935546875">
        <ele>357.20001220703125</ele>
        <time>2020-11-25T15:12:53.000Z</time>
      </trkpt>
      <trkpt lat="41.43077599816024303436279296875" lon="-8.44948503188788890838623046875">
        <ele>357.399993896484375</ele>
        <time>2020-11-25T15:12:54.000Z</time>
      </trkpt>
      <trkpt lat="41.43076946027576923370361328125" lon="-8.44946332275867462158203125">
        <ele>358.20001220703125</ele>
        <time>2020-11-25T15:12:56.000Z</time>
      </trkpt>
      <trkpt lat="41.43076728098094463348388671875" lon="-8.4494494087994098663330078125">
        <ele>358.600006103515625</ele>
        <time>2020-11-25T15:12:57.000Z</time>
      </trkpt>
      <trkpt lat="41.43075923435389995574951171875" lon="-8.44942174851894378662109375">
        <ele>359.600006103515625</ele>
        <time>2020-11-25T15:12:59.000Z</time>
      </trkpt>
      <trkpt lat="41.4307507686316967010498046875" lon="-8.4493726305663585662841796875">
        <ele>360.600006103515625</ele>
        <time>2020-11-25T15:13:02.000Z</time>
      </trkpt>
      <trkpt lat="41.43075202591717243194580078125" lon="-8.44930146820843219757080078125">
        <ele>361</ele>
        <time>2020-11-25T15:13:06.000Z</time>
      </trkpt>
      <trkpt lat="41.43071464262902736663818359375" lon="-8.44925142824649810791015625">
        <ele>361.79998779296875</ele>
        <time>2020-11-25T15:13:12.000Z</time>
      </trkpt>
      <trkpt lat="41.4306827075779438018798828125" lon="-8.44925385899841785430908203125">
        <ele>362.600006103515625</ele>
        <time>2020-11-25T15:13:16.000Z</time>
      </trkpt>
      <trkpt lat="41.43068396486341953277587890625" lon="-8.44926727004349231719970703125">
        <ele>362.600006103515625</ele>
        <time>2020-11-25T15:13:17.000Z</time>
      </trkpt>
      <trkpt lat="41.43068547360599040985107421875" lon="-8.4492764063179492950439453125">
        <ele>362.79998779296875</ele>
        <time>2020-11-25T15:13:18.000Z</time>
      </trkpt>
      <trkpt lat="41.43069067038595676422119140625" lon="-8.44930364750325679779052734375">
        <ele>364</ele>
        <time>2020-11-25T15:13:20.000Z</time>
      </trkpt>
      <trkpt lat="41.4306860603392124176025390625" lon="-8.4493407793343067169189453125">
        <ele>365</ele>
        <time>2020-11-25T15:13:24.000Z</time>
      </trkpt>
      <trkpt lat="41.430643312633037567138671875" lon="-8.44934941269457340240478515625">
        <ele>365.20001220703125</ele>
        <time>2020-11-25T15:13:34.000Z</time>
      </trkpt>
      <trkpt lat="41.43061908893287181854248046875" lon="-8.44935310073196887969970703125">
        <ele>365.79998779296875</ele>
        <time>2020-11-25T15:13:36.000Z</time>
      </trkpt>
      <trkpt lat="41.43069452606141567230224609375" lon="-8.44924262724816799163818359375">
        <ele>361</ele>
        <time>2020-11-25T15:15:40.000Z</time>
      </trkpt>
      <trkpt lat="41.43068614415824413299560546875" lon="-8.44923240132629871368408203125">
        <ele>360.399993896484375</ele>
        <time>2020-11-25T15:15:42.000Z</time>
      </trkpt>
      <trkpt lat="41.43068186938762664794921875" lon="-8.4492247737944126129150390625">
        <ele>360</ele>
        <time>2020-11-25T15:15:43.000Z</time>
      </trkpt>
      <trkpt lat="41.43066803924739360809326171875" lon="-8.44922184012830257415771484375">
        <ele>359.20001220703125</ele>
        <time>2020-11-25T15:15:45.000Z</time>
      </trkpt>
      <trkpt lat="41.430658064782619476318359375" lon="-8.44919568859040737152099609375">
        <ele>358.20001220703125</ele>
        <time>2020-11-25T15:15:47.000Z</time>
      </trkpt>
      <trkpt lat="41.43065798096358776092529296875" lon="-8.44917540438473224639892578125">
        <ele>357.399993896484375</ele>
        <time>2020-11-25T15:15:48.000Z</time>
      </trkpt>
      <trkpt lat="41.43065311945974826812744140625" lon="-8.44915914349257946014404296875">
        <ele>357</ele>
        <time>2020-11-25T15:15:49.000Z</time>
      </trkpt>
      <trkpt lat="41.430648006498813629150390625" lon="-8.449124358594417572021484375">
        <ele>355.600006103515625</ele>
        <time>2020-11-25T15:15:51.000Z</time>
      </trkpt>
      <trkpt lat="41.4306357689201831817626953125" lon="-8.44908823259174823760986328125">
        <ele>354.600006103515625</ele>
        <time>2020-11-25T15:15:53.000Z</time>
      </trkpt>
      <trkpt lat="41.430631242692470550537109375" lon="-8.449075408279895782470703125">
        <ele>354</ele>
        <time>2020-11-25T15:15:54.000Z</time>
      </trkpt>
      <trkpt lat="41.43062210641801357269287109375" lon="-8.44904548488557338714599609375">
        <ele>352.79998779296875</ele>
        <time>2020-11-25T15:15:56.000Z</time>
      </trkpt>
      <trkpt lat="41.43059142865240573883056640625" lon="-8.4489987976849079132080078125">
        <ele>351.600006103515625</ele>
        <time>2020-11-25T15:16:00.000Z</time>
      </trkpt>
      <trkpt lat="41.43057189881801605224609375" lon="-8.44898295588791370391845703125">
        <ele>350.600006103515625</ele>
        <time>2020-11-25T15:16:02.000Z</time>
      </trkpt>
      <trkpt lat="41.43053728155791759490966796875" lon="-8.44894724898040294647216796875">
        <ele>349.399993896484375</ele>
        <time>2020-11-25T15:16:06.000Z</time>
      </trkpt>
      <trkpt lat="41.43048145808279514312744140625" lon="-8.44890139997005462646484375">
        <ele>348.20001220703125</ele>
        <time>2020-11-25T15:16:12.000Z</time>
      </trkpt>
      <trkpt lat="41.4304657839238643646240234375" lon="-8.4488881565630435943603515625">
        <ele>347.20001220703125</ele>
        <time>2020-11-25T15:16:15.000Z</time>
      </trkpt>
      <trkpt lat="41.4304493553936481475830078125" lon="-8.44887164421379566192626953125">
        <ele>346</ele>
        <time>2020-11-25T15:16:18.000Z</time>
      </trkpt>
      <trkpt lat="41.430420689284801483154296875" lon="-8.44885454513132572174072265625">
        <ele>346.600006103515625</ele>
        <time>2020-11-25T15:16:23.000Z</time>
      </trkpt>
      <trkpt lat="41.43040685914456844329833984375" lon="-8.44884079881012439727783203125">
        <ele>346.20001220703125</ele>
        <time>2020-11-25T15:16:26.000Z</time>
      </trkpt>
      <trkpt lat="41.43041364848613739013671875" lon="-8.44886225648224353790283203125">
        <ele>346.79998779296875</ele>
        <time>2020-11-25T15:16:31.000Z</time>
      </trkpt>
      <trkpt lat="41.4304156601428985595703125" lon="-8.4488680399954319000244140625">
        <ele>347.20001220703125</ele>
        <time>2020-11-25T15:16:32.000Z</time>
      </trkpt>
      <trkpt lat="41.43042345531284809112548828125" lon="-8.44887793064117431640625">
        <ele>347.79998779296875</ele>
        <time>2020-11-25T15:16:34.000Z</time>
      </trkpt>
      <trkpt lat="41.4304433204233646392822265625" lon="-8.4488646872341632843017578125">
        <ele>347.79998779296875</ele>
        <time>2020-11-25T15:16:36.000Z</time>
      </trkpt>
      <trkpt lat="41.43046536482870578765869140625" lon="-8.4488618373870849609375">
        <ele>347.79998779296875</ele>
        <time>2020-11-25T15:16:38.000Z</time>
      </trkpt>
      <trkpt lat="41.43047844059765338897705078125" lon="-8.4488532878458499908447265625">
        <ele>348</ele>
        <time>2020-11-25T15:16:40.000Z</time>
      </trkpt>
      <trkpt lat="41.43051096238195896148681640625" lon="-8.448822610080242156982421875">
        <ele>347.20001220703125</ele>
        <time>2020-11-25T15:16:44.000Z</time>
      </trkpt>
      <trkpt lat="41.43051959574222564697265625" lon="-8.4488157369196414947509765625">
        <ele>347.600006103515625</ele>
        <time>2020-11-25T15:16:48.000Z</time>
      </trkpt>
      <trkpt lat="41.43051498569548130035400390625" lon="-8.44881380908191204071044921875">
        <ele>347.600006103515625</ele>
        <time>2020-11-25T15:16:51.000Z</time>
      </trkpt>
      <trkpt lat="41.430513560771942138671875" lon="-8.44881246797740459442138671875">
        <ele>347.600006103515625</ele>
        <time>2020-11-25T15:16:52.000Z</time>
      </trkpt>
      <trkpt lat="41.43051364459097385406494140625" lon="-8.4488113783299922943115234375">
        <ele>347.600006103515625</ele>
        <time>2020-11-25T15:16:53.000Z</time>
      </trkpt>
      <trkpt lat="41.43051423132419586181640625" lon="-8.448814563453197479248046875">
        <ele>347.399993896484375</ele>
        <time>2020-11-25T15:16:57.000Z</time>
      </trkpt>
      <trkpt lat="41.43051163293421268463134765625" lon="-8.4488291479647159576416015625">
        <ele>347</ele>
        <time>2020-11-25T15:17:02.000Z</time>
      </trkpt>
      <trkpt lat="41.43051314167678356170654296875" lon="-8.44884096644818782806396484375">
        <ele>347</ele>
        <time>2020-11-25T15:17:04.000Z</time>
      </trkpt>
      <trkpt lat="41.430518589913845062255859375" lon="-8.44885035417973995208740234375">
        <ele>346.399993896484375</ele>
        <time>2020-11-25T15:17:06.000Z</time>
      </trkpt>
      <trkpt lat="41.4305207692086696624755859375" lon="-8.4488559700548648834228515625">
        <ele>346</ele>
        <time>2020-11-25T15:17:07.000Z</time>
      </trkpt>
      <trkpt lat="41.43052487634122371673583984375" lon="-8.4488616697490215301513671875">
        <ele>345.600006103515625</ele>
        <time>2020-11-25T15:17:09.000Z</time>
      </trkpt>
      <trkpt lat="41.43053929321467876434326171875" lon="-8.4488506056368350982666015625">
        <ele>344.79998779296875</ele>
        <time>2020-11-25T15:17:14.000Z</time>
      </trkpt>
      <trkpt lat="41.4305591583251953125" lon="-8.44884029589593410491943359375">
        <ele>343.79998779296875</ele>
        <time>2020-11-25T15:17:18.000Z</time>
      </trkpt>
      <trkpt lat="41.43058120273053646087646484375" lon="-8.4488241188228130340576171875">
        <ele>342.399993896484375</ele>
        <time>2020-11-25T15:17:22.000Z</time>
      </trkpt>
      <trkpt lat="41.43059126101434230804443359375" lon="-8.4488019905984401702880859375">
        <ele>341.399993896484375</ele>
        <time>2020-11-25T15:17:25.000Z</time>
      </trkpt>
      <trkpt lat="41.4305955357849597930908203125" lon="-8.44876485876739025115966796875">
        <ele>340</ele>
        <time>2020-11-25T15:17:29.000Z</time>
      </trkpt>
      <trkpt lat="41.43060266040265560150146484375" lon="-8.4487342648208141326904296875">
        <ele>338.399993896484375</ele>
        <time>2020-11-25T15:17:31.000Z</time>
      </trkpt>
      <trkpt lat="41.430610455572605133056640625" lon="-8.44871238805353641510009765625">
        <ele>338</ele>
        <time>2020-11-25T15:17:32.000Z</time>
      </trkpt>
      <trkpt lat="41.4306176640093326568603515625" lon="-8.4486900083720684051513671875">
        <ele>337.399993896484375</ele>
        <time>2020-11-25T15:17:33.000Z</time>
      </trkpt>
      <trkpt lat="41.43062059767544269561767578125" lon="-8.448603339493274688720703125">
        <ele>335.79998779296875</ele>
        <time>2020-11-25T15:17:37.000Z</time>
      </trkpt>
      <trkpt lat="41.4306086115539073944091796875" lon="-8.448564112186431884765625">
        <ele>334.79998779296875</ele>
        <time>2020-11-25T15:17:39.000Z</time>
      </trkpt>
      <trkpt lat="41.4305851422250270843505859375" lon="-8.44853050075471401214599609375">
        <ele>335</ele>
        <time>2020-11-25T15:17:41.000Z</time>
      </trkpt>
      <trkpt lat="41.4305817894637584686279296875" lon="-8.44851993955671787261962890625">
        <ele>334.600006103515625</ele>
        <time>2020-11-25T15:17:42.000Z</time>
      </trkpt>
      <trkpt lat="41.430618502199649810791015625" lon="-8.4485059417784214019775390625">
        <ele>334.20001220703125</ele>
        <time>2020-11-25T15:17:45.000Z</time>
      </trkpt>
      <trkpt lat="41.43063199706375598907470703125" lon="-8.44850267283618450164794921875">
        <ele>333.600006103515625</ele>
        <time>2020-11-25T15:17:46.000Z</time>
      </trkpt>
      <trkpt lat="41.4306615851819515228271484375" lon="-8.44849462620913982391357421875">
        <ele>332.399993896484375</ele>
        <time>2020-11-25T15:17:48.000Z</time>
      </trkpt>
      <trkpt lat="41.43068999983370304107666015625" lon="-8.4484930336475372314453125">
        <ele>331.399993896484375</ele>
        <time>2020-11-25T15:17:50.000Z</time>
      </trkpt>
      <trkpt lat="41.4307356812059879302978515625" lon="-8.4484710730612277984619140625">
        <ele>330.20001220703125</ele>
        <time>2020-11-25T15:17:53.000Z</time>
      </trkpt>
      <trkpt lat="41.4307678677141666412353515625" lon="-8.44844014383852481842041015625">
        <ele>328.79998779296875</ele>
        <time>2020-11-25T15:17:55.000Z</time>
      </trkpt>
      <trkpt lat="41.43080659210681915283203125" lon="-8.448420278728008270263671875">
        <ele>327.600006103515625</ele>
        <time>2020-11-25T15:17:57.000Z</time>
      </trkpt>
      <trkpt lat="41.43089770339429378509521484375" lon="-8.44840125180780887603759765625">
        <ele>326</ele>
        <time>2020-11-25T15:18:01.000Z</time>
      </trkpt>
      <trkpt lat="41.43096274696290493011474609375" lon="-8.4484023414552211761474609375">
        <ele>324.79998779296875</ele>
        <time>2020-11-25T15:18:04.000Z</time>
      </trkpt>
      <trkpt lat="41.431024856865406036376953125" lon="-8.4483966417610645294189453125">
        <ele>323.20001220703125</ele>
        <time>2020-11-25T15:18:07.000Z</time>
      </trkpt>
      <trkpt lat="41.4310387708246707916259765625" lon="-8.4483875893056392669677734375">
        <ele>322.399993896484375</ele>
        <time>2020-11-25T15:18:08.000Z</time>
      </trkpt>
      <trkpt lat="41.43105377443134784698486328125" lon="-8.44836772419512271881103515625">
        <ele>321.79998779296875</ele>
        <time>2020-11-25T15:18:09.000Z</time>
      </trkpt>
      <trkpt lat="41.43109501339495182037353515625" lon="-8.44831508584320545196533203125">
        <ele>322.399993896484375</ele>
        <time>2020-11-25T15:18:11.000Z</time>
      </trkpt>
      <trkpt lat="41.4311961829662322998046875" lon="-8.44813504256308078765869140625">
        <ele>322.79998779296875</ele>
        <time>2020-11-25T15:18:19.000Z</time>
      </trkpt>
      <trkpt lat="41.4312157966196537017822265625" lon="-8.4481207095086574554443359375">
        <ele>323.20001220703125</ele>
        <time>2020-11-25T15:18:20.000Z</time>
      </trkpt>
      <trkpt lat="41.43126390874385833740234375" lon="-8.4480727650225162506103515625">
        <ele>324.399993896484375</ele>
        <time>2020-11-25T15:18:23.000Z</time>
      </trkpt>
      <trkpt lat="41.431291401386260986328125" lon="-8.44804032705724239349365234375">
        <ele>325</ele>
        <time>2020-11-25T15:18:25.000Z</time>
      </trkpt>
      <trkpt lat="41.4313096739351749420166015625" lon="-8.44802440144121646881103515625">
        <ele>325.600006103515625</ele>
        <time>2020-11-25T15:18:26.000Z</time>
      </trkpt>
      <trkpt lat="41.43132828176021575927734375" lon="-8.4480067156255245208740234375">
        <ele>325.79998779296875</ele>
        <time>2020-11-25T15:18:27.000Z</time>
      </trkpt>
      <trkpt lat="41.431366503238677978515625" lon="-8.44797662459313869476318359375">
        <ele>326.600006103515625</ele>
        <time>2020-11-25T15:18:29.000Z</time>
      </trkpt>
      <trkpt lat="41.43138435669243335723876953125" lon="-8.4479592740535736083984375">
        <ele>326.600006103515625</ele>
        <time>2020-11-25T15:18:30.000Z</time>
      </trkpt>
      <trkpt lat="41.43142140470445156097412109375" lon="-8.447921387851238250732421875">
        <ele>327.20001220703125</ele>
        <time>2020-11-25T15:18:32.000Z</time>
      </trkpt>
      <trkpt lat="41.43146130256354808807373046875" lon="-8.447889871895313262939453125">
        <ele>327.79998779296875</ele>
        <time>2020-11-25T15:18:34.000Z</time>
      </trkpt>
      <trkpt lat="41.4315054751932621002197265625" lon="-8.44783731736242771148681640625">
        <ele>328.79998779296875</ele>
        <time>2020-11-25T15:18:37.000Z</time>
      </trkpt>
      <trkpt lat="41.4315678365528583526611328125" lon="-8.447757102549076080322265625">
        <ele>329.79998779296875</ele>
        <time>2020-11-25T15:18:41.000Z</time>
      </trkpt>
      <trkpt lat="41.4317445270717144012451171875" lon="-8.44764218665659427642822265625">
        <ele>330.399993896484375</ele>
        <time>2020-11-25T15:18:49.000Z</time>
      </trkpt>
      <trkpt lat="41.4317867718636989593505859375" lon="-8.44758535735309123992919921875">
        <ele>329.20001220703125</ele>
        <time>2020-11-25T15:18:53.000Z</time>
      </trkpt>
      <trkpt lat="41.431776545941829681396484375" lon="-8.447547219693660736083984375">
        <ele>328.600006103515625</ele>
        <time>2020-11-25T15:18:55.000Z</time>
      </trkpt>
      <trkpt lat="41.43175316043198108673095703125" lon="-8.44749349169433116912841796875">
        <ele>327.600006103515625</ele>
        <time>2020-11-25T15:18:58.000Z</time>
      </trkpt>
      <trkpt lat="41.4317280985414981842041015625" lon="-8.44740070402622222900390625">
        <ele>326.79998779296875</ele>
        <time>2020-11-25T15:19:03.000Z</time>
      </trkpt>
      <trkpt lat="41.4317250810563564300537109375" lon="-8.4473733790218830108642578125">
        <ele>326.600006103515625</ele>
        <time>2020-11-25T15:19:05.000Z</time>
      </trkpt>
      <trkpt lat="41.43170655705034732818603515625" lon="-8.44735887832939624786376953125">
        <ele>326.20001220703125</ele>
        <time>2020-11-25T15:19:07.000Z</time>
      </trkpt>
      <trkpt lat="41.4316908828914165496826171875" lon="-8.4473556093871593475341796875">
        <ele>325.600006103515625</ele>
        <time>2020-11-25T15:19:08.000Z</time>
      </trkpt>
      <trkpt lat="41.43167554400861263275146484375" lon="-8.44735569320619106292724609375">
        <ele>325</ele>
        <time>2020-11-25T15:19:09.000Z</time>
      </trkpt>
      <trkpt lat="41.4316107518970966339111328125" lon="-8.44734664075076580047607421875">
        <ele>323.79998779296875</ele>
        <time>2020-11-25T15:19:12.000Z</time>
      </trkpt>
      <trkpt lat="41.4315309561789035797119140625" lon="-8.4473267756402492523193359375">
        <ele>322.399993896484375</ele>
        <time>2020-11-25T15:19:16.000Z</time>
      </trkpt>
      <trkpt lat="41.43147588707506656646728515625" lon="-8.44731411896646022796630859375">
        <ele>321.399993896484375</ele>
        <time>2020-11-25T15:19:19.000Z</time>
      </trkpt>
      <trkpt lat="41.43143431283533573150634765625" lon="-8.44731864519417285919189453125">
        <ele>320.79998779296875</ele>
        <time>2020-11-25T15:19:22.000Z</time>
      </trkpt>
      <trkpt lat="41.43141654320061206817626953125" lon="-8.44731931574642658233642578125">
        <ele>320.600006103515625</ele>
        <time>2020-11-25T15:19:24.000Z</time>
      </trkpt>
      <trkpt lat="41.431409753859043121337890625" lon="-8.44732015393674373626708984375">
        <ele>320.20001220703125</ele>
        <time>2020-11-25T15:19:25.000Z</time>
      </trkpt>
      <trkpt lat="41.43139491789042949676513671875" lon="-8.44730942510068416595458984375">
        <ele>319.399993896484375</ele>
        <time>2020-11-25T15:19:28.000Z</time>
      </trkpt>
      <trkpt lat="41.43138251267373561859130859375" lon="-8.44730992801487445831298828125">
        <ele>319</ele>
        <time>2020-11-25T15:19:30.000Z</time>
      </trkpt>
      <trkpt lat="41.4313777349889278411865234375" lon="-8.447307832539081573486328125">
        <ele>318.79998779296875</ele>
        <time>2020-11-25T15:19:31.000Z</time>
      </trkpt>
      <trkpt lat="41.43135954625904560089111328125" lon="-8.44731261022388935089111328125">
        <ele>318</ele>
        <time>2020-11-25T15:19:33.000Z</time>
      </trkpt>
      <trkpt lat="41.43134596757590770721435546875" lon="-8.4473123587667942047119140625">
        <ele>317.20001220703125</ele>
        <time>2020-11-25T15:19:34.000Z</time>
      </trkpt>
      <trkpt lat="41.43132903613150119781494140625" lon="-8.44730942510068416595458984375">
        <ele>316.79998779296875</ele>
        <time>2020-11-25T15:19:35.000Z</time>
      </trkpt>
      <trkpt lat="41.431289054453372955322265625" lon="-8.44731495715677738189697265625">
        <ele>315.79998779296875</ele>
        <time>2020-11-25T15:19:38.000Z</time>
      </trkpt>
      <trkpt lat="41.4312332309782505035400390625" lon="-8.44733222387731075286865234375">
        <ele>314.600006103515625</ele>
        <time>2020-11-25T15:19:42.000Z</time>
      </trkpt>
      <trkpt lat="41.43120481632649898529052734375" lon="-8.4473408572375774383544921875">
        <ele>313.399993896484375</ele>
        <time>2020-11-25T15:19:44.000Z</time>
      </trkpt>
      <trkpt lat="41.43114010803401470184326171875" lon="-8.4473596327006816864013671875">
        <ele>311.79998779296875</ele>
        <time>2020-11-25T15:19:47.000Z</time>
      </trkpt>
      <trkpt lat="41.4311023056507110595703125" lon="-8.4473686851561069488525390625">
        <ele>311</ele>
        <time>2020-11-25T15:19:49.000Z</time>
      </trkpt>
      <trkpt lat="41.43107950687408447265625" lon="-8.44736524857580661773681640625">
        <ele>310.79998779296875</ele>
        <time>2020-11-25T15:19:50.000Z</time>
      </trkpt>
      <trkpt lat="41.43099308945238590240478515625" lon="-8.447401709854602813720703125">
        <ele>309.399993896484375</ele>
        <time>2020-11-25T15:19:54.000Z</time>
      </trkpt>
      <trkpt lat="41.43092033453285694122314453125" lon="-8.44744269736111164093017578125">
        <ele>308</ele>
        <time>2020-11-25T15:19:58.000Z</time>
      </trkpt>
      <trkpt lat="41.430814303457736968994140625" lon="-8.44751997850835323333740234375">
        <ele>306.79998779296875</ele>
        <time>2020-11-25T15:20:03.000Z</time>
      </trkpt>
      <trkpt lat="41.430751271545886993408203125" lon="-8.44758032821118831634521484375">
        <ele>305.600006103515625</ele>
        <time>2020-11-25T15:20:06.000Z</time>
      </trkpt>
      <trkpt lat="41.43068991601467132568359375" lon="-8.44763531349599361419677734375">
        <ele>304.20001220703125</ele>
        <time>2020-11-25T15:20:09.000Z</time>
      </trkpt>
      <trkpt lat="41.430619172751903533935546875" lon="-8.44765526242554187774658203125">
        <ele>302.79998779296875</ele>
        <time>2020-11-25T15:20:12.000Z</time>
      </trkpt>
      <trkpt lat="41.4305740781128406524658203125" lon="-8.44765040092170238494873046875">
        <ele>301.600006103515625</ele>
        <time>2020-11-25T15:20:14.000Z</time>
      </trkpt>
      <trkpt lat="41.4305113814771175384521484375" lon="-8.44764076173305511474609375">
        <ele>300.20001220703125</ele>
        <time>2020-11-25T15:20:17.000Z</time>
      </trkpt>
      <trkpt lat="41.43044055439531803131103515625" lon="-8.44762894324958324432373046875">
        <ele>298.79998779296875</ele>
        <time>2020-11-25T15:20:20.000Z</time>
      </trkpt>
      <trkpt lat="41.43033041618764400482177734375" lon="-8.4476084075868129730224609375">
        <ele>297.399993896484375</ele>
        <time>2020-11-25T15:20:24.000Z</time>
      </trkpt>
      <trkpt lat="41.4302263967692852020263671875" lon="-8.44759541563689708709716796875">
        <ele>296.20001220703125</ele>
        <time>2020-11-25T15:20:28.000Z</time>
      </trkpt>
      <trkpt lat="41.43007879145443439483642578125" lon="-8.447610922157764434814453125">
        <ele>294.79998779296875</ele>
        <time>2020-11-25T15:20:33.000Z</time>
      </trkpt>
      <trkpt lat="41.429954655468463897705078125" lon="-8.44764880836009979248046875">
        <ele>293.399993896484375</ele>
        <time>2020-11-25T15:20:37.000Z</time>
      </trkpt>
      <trkpt lat="41.42989464104175567626953125" lon="-8.4476536698639392852783203125">
        <ele>292.20001220703125</ele>
        <time>2020-11-25T15:20:39.000Z</time>
      </trkpt>
      <trkpt lat="41.429803781211376190185546875" lon="-8.4476603753864765167236328125">
        <ele>290.79998779296875</ele>
        <time>2020-11-25T15:20:42.000Z</time>
      </trkpt>
      <trkpt lat="41.42971266992390155792236328125" lon="-8.4476721100509166717529296875">
        <ele>289.79998779296875</ele>
        <time>2020-11-25T15:20:45.000Z</time>
      </trkpt>
      <trkpt lat="41.4296007715165615081787109375" lon="-8.44770572148263454437255859375">
        <ele>289.79998779296875</ele>
        <time>2020-11-25T15:20:49.000Z</time>
      </trkpt>
      <trkpt lat="41.42951603047549724578857421875" lon="-8.4477257542312145233154296875">
        <ele>288.79998779296875</ele>
        <time>2020-11-25T15:20:52.000Z</time>
      </trkpt>
      <trkpt lat="41.4294297806918621063232421875" lon="-8.44776238314807415008544921875">
        <ele>288.600006103515625</ele>
        <time>2020-11-25T15:20:55.000Z</time>
      </trkpt>
      <trkpt lat="41.42934470437467098236083984375" lon="-8.44780328683555126190185546875">
        <ele>288.399993896484375</ele>
        <time>2020-11-25T15:20:58.000Z</time>
      </trkpt>
      <trkpt lat="41.429259963333606719970703125" lon="-8.4478290192782878875732421875">
        <ele>288.20001220703125</ele>
        <time>2020-11-25T15:21:01.000Z</time>
      </trkpt>
      <trkpt lat="41.4291981048882007598876953125" lon="-8.44784955494105815887451171875">
        <ele>287.79998779296875</ele>
        <time>2020-11-25T15:21:03.000Z</time>
      </trkpt>
      <trkpt lat="41.4291684329509735107421875" lon="-8.44786128960549831390380859375">
        <ele>287.399993896484375</ele>
        <time>2020-11-25T15:21:04.000Z</time>
      </trkpt>
      <trkpt lat="41.42913825809955596923828125" lon="-8.44787386246025562286376953125">
        <ele>287.20001220703125</ele>
        <time>2020-11-25T15:21:05.000Z</time>
      </trkpt>
      <trkpt lat="41.42907614819705486297607421875" lon="-8.44790068455040454864501953125">
        <ele>286.399993896484375</ele>
        <time>2020-11-25T15:21:07.000Z</time>
      </trkpt>
      <trkpt lat="41.42896450124680995941162109375" lon="-8.44798031263053417205810546875">
        <ele>285.399993896484375</ele>
        <time>2020-11-25T15:21:11.000Z</time>
      </trkpt>
      <trkpt lat="41.4288906566798686981201171875" lon="-8.4480343759059906005859375">
        <ele>284.399993896484375</ele>
        <time>2020-11-25T15:21:14.000Z</time>
      </trkpt>
      <trkpt lat="41.42882284708321094512939453125" lon="-8.4480933845043182373046875">
        <ele>283</ele>
        <time>2020-11-25T15:21:17.000Z</time>
      </trkpt>
      <trkpt lat="41.42876735888421535491943359375" lon="-8.44812515191733837127685546875">
        <ele>282</ele>
        <time>2020-11-25T15:21:19.000Z</time>
      </trkpt>
      <trkpt lat="41.4286871440708637237548828125" lon="-8.4481696598231792449951171875">
        <ele>280.79998779296875</ele>
        <time>2020-11-25T15:21:22.000Z</time>
      </trkpt>
      <trkpt lat="41.4285637624561786651611328125" lon="-8.44824618659913539886474609375">
        <ele>279.600006103515625</ele>
        <time>2020-11-25T15:21:27.000Z</time>
      </trkpt>
      <trkpt lat="41.4284987188875675201416015625" lon="-8.4482866711914539337158203125">
        <ele>278.600006103515625</ele>
        <time>2020-11-25T15:21:30.000Z</time>
      </trkpt>
      <trkpt lat="41.42842085100710391998291015625" lon="-8.448313660919666290283203125">
        <ele>277.399993896484375</ele>
        <time>2020-11-25T15:21:33.000Z</time>
      </trkpt>
      <trkpt lat="41.4283706434071063995361328125" lon="-8.448326401412487030029296875">
        <ele>276.20001220703125</ele>
        <time>2020-11-25T15:21:35.000Z</time>
      </trkpt>
      <trkpt lat="41.428278274834156036376953125" lon="-8.44838063232600688934326171875">
        <ele>274.600006103515625</ele>
        <time>2020-11-25T15:21:39.000Z</time>
      </trkpt>
      <trkpt lat="41.42824583686888217926025390625" lon="-8.44841700978577136993408203125">
        <ele>273.600006103515625</ele>
        <time>2020-11-25T15:21:41.000Z</time>
      </trkpt>
      <trkpt lat="41.4281983114778995513916015625" lon="-8.448484651744365692138671875">
        <ele>272.399993896484375</ele>
        <time>2020-11-25T15:21:44.000Z</time>
      </trkpt>
      <trkpt lat="41.42816805280745029449462890625" lon="-8.44852815382182598114013671875">
        <ele>271.399993896484375</ele>
        <time>2020-11-25T15:21:46.000Z</time>
      </trkpt>
      <trkpt lat="41.42812413163483142852783203125" lon="-8.4485900960862636566162109375">
        <ele>270</ele>
        <time>2020-11-25T15:21:49.000Z</time>
      </trkpt>
      <trkpt lat="41.428005360066890716552734375" lon="-8.44880660064518451690673828125">
        <ele>269</ele>
        <time>2020-11-25T15:21:57.000Z</time>
      </trkpt>
      <trkpt lat="41.42790402285754680633544921875" lon="-8.44901539385318756103515625">
        <ele>270</ele>
        <time>2020-11-25T15:22:04.000Z</time>
      </trkpt>
      <trkpt lat="41.42780385911464691162109375" lon="-8.4489946067333221435546875">
        <ele>269.399993896484375</ele>
        <time>2020-11-25T15:22:09.000Z</time>
      </trkpt>
      <trkpt lat="41.4276196248829364776611328125" lon="-8.44901279546320438385009765625">
        <ele>269</ele>
        <time>2020-11-25T15:22:17.000Z</time>
      </trkpt>
      <trkpt lat="41.42754829488694667816162109375" lon="-8.4491099417209625244140625">
        <ele>268.79998779296875</ele>
        <time>2020-11-25T15:22:21.000Z</time>
      </trkpt>
      <trkpt lat="41.42750722356140613555908203125" lon="-8.449261821806430816650390625">
        <ele>267.20001220703125</ele>
        <time>2020-11-25T15:22:27.000Z</time>
      </trkpt>
      <trkpt lat="41.42749867402017116546630859375" lon="-8.4492908231914043426513671875">
        <ele>266.20001220703125</ele>
        <time>2020-11-25T15:22:29.000Z</time>
      </trkpt>
      <trkpt lat="41.42747537232935428619384765625" lon="-8.44935561530292034149169921875">
        <ele>265</ele>
        <time>2020-11-25T15:22:32.000Z</time>
      </trkpt>
      <trkpt lat="41.42745860852301120758056640625" lon="-8.4494383446872234344482421875">
        <ele>264</ele>
        <time>2020-11-25T15:22:35.000Z</time>
      </trkpt>
      <trkpt lat="41.42741493880748748779296875" lon="-8.44948687590658664703369140625">
        <ele>262.600006103515625</ele>
        <time>2020-11-25T15:22:38.000Z</time>
      </trkpt>
      <trkpt lat="41.42738233320415019989013671875" lon="-8.44951428472995758056640625">
        <ele>261.600006103515625</ele>
        <time>2020-11-25T15:22:41.000Z</time>
      </trkpt>
      <trkpt lat="41.42737244255840778350830078125" lon="-8.44952291809022426605224609375">
        <ele>261.399993896484375</ele>
        <time>2020-11-25T15:22:42.000Z</time>
      </trkpt>
      <trkpt lat="41.42735182307660579681396484375" lon="-8.44953984953463077545166015625">
        <ele>261</ele>
        <time>2020-11-25T15:22:44.000Z</time>
      </trkpt>
      <trkpt lat="41.42733313143253326416015625" lon="-8.44955057837069034576416015625">
        <ele>260.20001220703125</ele>
        <time>2020-11-25T15:22:46.000Z</time>
      </trkpt>
      <trkpt lat="41.427305303514003753662109375" lon="-8.449587710201740264892578125">
        <ele>259</ele>
        <time>2020-11-25T15:22:50.000Z</time>
      </trkpt>
      <trkpt lat="41.42729046754539012908935546875" lon="-8.44962098635733127593994140625">
        <ele>258</ele>
        <time>2020-11-25T15:22:52.000Z</time>
      </trkpt>
      <trkpt lat="41.4272813312709331512451171875" lon="-8.4496428631246089935302734375">
        <ele>257.399993896484375</ele>
        <time>2020-11-25T15:22:53.000Z</time>
      </trkpt>
      <trkpt lat="41.4272370748221874237060546875" lon="-8.44970413483679294586181640625">
        <ele>256.20001220703125</ele>
        <time>2020-11-25T15:22:56.000Z</time>
      </trkpt>
      <trkpt lat="41.427185945212841033935546875" lon="-8.4497201442718505859375">
        <ele>254.8000030517578125</ele>
        <time>2020-11-25T15:23:00.000Z</time>
      </trkpt>
      <trkpt lat="41.42709977924823760986328125" lon="-8.44968066550791263580322265625">
        <ele>253.8000030517578125</ele>
        <time>2020-11-25T15:23:07.000Z</time>
      </trkpt>
      <trkpt lat="41.42709039151668548583984375" lon="-8.44968116842210292816162109375">
        <ele>253.399993896484375</ele>
        <time>2020-11-25T15:23:08.000Z</time>
      </trkpt>
      <trkpt lat="41.42705845646560192108154296875" lon="-8.44967446289956569671630859375">
        <ele>252.399993896484375</ele>
        <time>2020-11-25T15:23:10.000Z</time>
      </trkpt>
      <trkpt lat="41.42697639763355255126953125" lon="-8.44969809986650943756103515625">
        <ele>251.1999969482421875</ele>
        <time>2020-11-25T15:23:14.000Z</time>
      </trkpt>
      <trkpt lat="41.42685972154140472412109375" lon="-8.4497858583927154541015625">
        <ele>250.1999969482421875</ele>
        <time>2020-11-25T15:23:19.000Z</time>
      </trkpt>
      <trkpt lat="41.4267670176923274993896484375" lon="-8.44991217367351055145263671875">
        <ele>249</ele>
        <time>2020-11-25T15:23:24.000Z</time>
      </trkpt>
      <trkpt lat="41.42668445594608783721923828125" lon="-8.45008702017366886138916015625">
        <ele>248</ele>
        <time>2020-11-25T15:23:30.000Z</time>
      </trkpt>
      <trkpt lat="41.42661455087363719940185546875" lon="-8.4502057917416095733642578125">
        <ele>246.600006103515625</ele>
        <time>2020-11-25T15:23:34.000Z</time>
      </trkpt>
      <trkpt lat="41.42655034549534320831298828125" lon="-8.450312577188014984130859375">
        <ele>245.600006103515625</ele>
        <time>2020-11-25T15:23:38.000Z</time>
      </trkpt>
      <trkpt lat="41.426463760435581207275390625" lon="-8.45046118833124637603759765625">
        <ele>244.399993896484375</ele>
        <time>2020-11-25T15:23:44.000Z</time>
      </trkpt>
      <trkpt lat="41.426424868404865264892578125" lon="-8.45058809034526348114013671875">
        <ele>243.399993896484375</ele>
        <time>2020-11-25T15:23:49.000Z</time>
      </trkpt>
      <trkpt lat="41.4263995550572872161865234375" lon="-8.4506709873676300048828125">
        <ele>242</ele>
        <time>2020-11-25T15:23:52.000Z</time>
      </trkpt>
      <trkpt lat="41.42636762000620365142822265625" lon="-8.45072639174759387969970703125">
        <ele>240.600006103515625</ele>
        <time>2020-11-25T15:23:55.000Z</time>
      </trkpt>
      <trkpt lat="41.42633325420320034027099609375" lon="-8.45076293684542179107666015625">
        <ele>239.1999969482421875</ele>
        <time>2020-11-25T15:23:58.000Z</time>
      </trkpt>
      <trkpt lat="41.42631062306463718414306640625" lon="-8.45078825019299983978271484375">
        <ele>238.399993896484375</ele>
        <time>2020-11-25T15:24:00.000Z</time>
      </trkpt>
      <trkpt lat="41.426232755184173583984375" lon="-8.45088464207947254180908203125">
        <ele>237</ele>
        <time>2020-11-25T15:24:06.000Z</time>
      </trkpt>
      <trkpt lat="41.42622110433876514434814453125" lon="-8.45096963457763195037841796875">
        <ele>236.1999969482421875</ele>
        <time>2020-11-25T15:24:09.000Z</time>
      </trkpt>
      <trkpt lat="41.4262118004262447357177734375" lon="-8.45100467093288898468017578125">
        <ele>236</ele>
        <time>2020-11-25T15:24:10.000Z</time>
      </trkpt>
      <trkpt lat="41.426137872040271759033203125" lon="-8.4512364305555820465087890625">
        <ele>235.1999969482421875</ele>
        <time>2020-11-25T15:24:16.000Z</time>
      </trkpt>
      <trkpt lat="41.42610761336982250213623046875" lon="-8.45135671086609363555908203125">
        <ele>235.1999969482421875</ele>
        <time>2020-11-25T15:24:19.000Z</time>
      </trkpt>
      <trkpt lat="41.426076851785182952880859375" lon="-8.45158235169947147369384765625">
        <ele>235.399993896484375</ele>
        <time>2020-11-25T15:24:25.000Z</time>
      </trkpt>
      <trkpt lat="41.4260706491768360137939453125" lon="-8.4518017061054706573486328125">
        <ele>235.399993896484375</ele>
        <time>2020-11-25T15:24:31.000Z</time>
      </trkpt>
      <trkpt lat="41.42607224173843860626220703125" lon="-8.452066071331501007080078125">
        <ele>235.600006103515625</ele>
        <time>2020-11-25T15:24:38.000Z</time>
      </trkpt>
      <trkpt lat="41.4261107146739959716796875" lon="-8.45230042934417724609375">
        <ele>235.8000030517578125</ele>
        <time>2020-11-25T15:24:45.000Z</time>
      </trkpt>
      <trkpt lat="41.42615220509469509124755859375" lon="-8.4524305164813995361328125">
        <ele>236.399993896484375</ele>
        <time>2020-11-25T15:24:49.000Z</time>
      </trkpt>
      <trkpt lat="41.42622881568968296051025390625" lon="-8.452648110687732696533203125">
        <ele>237.1999969482421875</ele>
        <time>2020-11-25T15:24:56.000Z</time>
      </trkpt>
      <trkpt lat="41.4263133890926837921142578125" lon="-8.45286981202661991119384765625">
        <ele>237.8000030517578125</ele>
        <time>2020-11-25T15:25:04.000Z</time>
      </trkpt>
      <trkpt lat="41.4263422228395938873291015625" lon="-8.45305287279188632965087890625">
        <ele>237.8000030517578125</ele>
        <time>2020-11-25T15:25:09.000Z</time>
      </trkpt>
      <trkpt lat="41.42638052813708782196044921875" lon="-8.45321967266499996185302734375">
        <ele>238</ele>
        <time>2020-11-25T15:25:14.000Z</time>
      </trkpt>
      <trkpt lat="41.42638497054576873779296875" lon="-8.453485965728759765625">
        <ele>235.8000030517578125</ele>
        <time>2020-11-25T15:25:22.000Z</time>
      </trkpt>
      <trkpt lat="41.42636083066463470458984375" lon="-8.45359685830771923065185546875">
        <ele>234.8000030517578125</ele>
        <time>2020-11-25T15:25:25.000Z</time>
      </trkpt>
      <trkpt lat="41.42634884454309940338134765625" lon="-8.45369995571672916412353515625">
        <ele>234</ele>
        <time>2020-11-25T15:25:29.000Z</time>
      </trkpt>
      <trkpt lat="41.42636225558817386627197265625" lon="-8.45367330126464366912841796875">
        <ele>234</ele>
        <time>2020-11-25T15:25:31.000Z</time>
      </trkpt>
      <trkpt lat="41.4263734035193920135498046875" lon="-8.45362502150237560272216796875">
        <ele>234.600006103515625</ele>
        <time>2020-11-25T15:25:33.000Z</time>
      </trkpt>
      <trkpt lat="41.426389999687671661376953125" lon="-8.45352997072041034698486328125">
        <ele>235.8000030517578125</ele>
        <time>2020-11-25T15:25:37.000Z</time>
      </trkpt>
      <trkpt lat="41.42640735022723674774169921875" lon="-8.45343592576682567596435546875">
        <ele>237</ele>
        <time>2020-11-25T15:25:41.000Z</time>
      </trkpt>
      <trkpt lat="41.42641942016780376434326171875" lon="-8.453395105898380279541015625">
        <ele>238</ele>
        <time>2020-11-25T15:25:43.000Z</time>
      </trkpt>
      <trkpt lat="41.42641455866396427154541015625" lon="-8.45333031378686428070068359375">
        <ele>238.8000030517578125</ele>
        <time>2020-11-25T15:25:47.000Z</time>
      </trkpt>
      <trkpt lat="41.4264082722365856170654296875" lon="-8.4532920084893703460693359375">
        <ele>239</ele>
        <time>2020-11-25T15:25:50.000Z</time>
      </trkpt>
      <trkpt lat="41.42640902660787105560302734375" lon="-8.45329293049871921539306640625">
        <ele>239</ele>
        <time>2020-11-25T15:25:51.000Z</time>
      </trkpt>
      <trkpt lat="41.426416151225566864013671875" lon="-8.45336434431374073028564453125">
        <ele>239</ele>
        <time>2020-11-25T15:26:03.000Z</time>
      </trkpt>
      <trkpt lat="41.42641657032072544097900390625" lon="-8.453359566628932952880859375">
        <ele>238.8000030517578125</ele>
        <time>2020-11-25T15:26:04.000Z</time>
      </trkpt>
      <trkpt lat="41.42641439102590084075927734375" lon="-8.45335445366799831390380859375">
        <ele>238.600006103515625</ele>
        <time>2020-11-25T15:26:05.000Z</time>
      </trkpt>
      <trkpt lat="41.42640818841755390167236328125" lon="-8.45333685167133808135986328125">
        <ele>238.1999969482421875</ele>
        <time>2020-11-25T15:26:07.000Z</time>
      </trkpt>
      <trkpt lat="41.42640097998082637786865234375" lon="-8.4533156454563140869140625">
        <ele>238.1999969482421875</ele>
        <time>2020-11-25T15:26:08.000Z</time>
      </trkpt>
      <trkpt lat="41.42639561556279659271240234375" lon="-8.45329293049871921539306640625">
        <ele>238.1999969482421875</ele>
        <time>2020-11-25T15:26:09.000Z</time>
      </trkpt>
      <trkpt lat="41.42637935467064380645751953125" lon="-8.45324213616549968719482421875">
        <ele>238.1999969482421875</ele>
        <time>2020-11-25T15:26:11.000Z</time>
      </trkpt>
      <trkpt lat="41.42635555006563663482666015625" lon="-8.453160412609577178955078125">
        <ele>238</ele>
        <time>2020-11-25T15:26:14.000Z</time>
      </trkpt>
      <trkpt lat="41.42634230665862560272216796875" lon="-8.453092686831951141357421875">
        <ele>238.399993896484375</ele>
        <time>2020-11-25T15:26:16.000Z</time>
      </trkpt>
      <trkpt lat="41.42631783150136470794677734375" lon="-8.45284449867904186248779296875">
        <ele>238.1999969482421875</ele>
        <time>2020-11-25T15:26:24.000Z</time>
      </trkpt>
      <trkpt lat="41.426320932805538177490234375" lon="-8.45282689668238162994384765625">
        <ele>238.1999969482421875</ele>
        <time>2020-11-25T15:26:25.000Z</time>
      </trkpt>
      <trkpt lat="41.42637751065194606781005859375" lon="-8.4528551436960697174072265625">
        <ele>238.600006103515625</ele>
        <time>2020-11-25T15:26:29.000Z</time>
      </trkpt>
      <trkpt lat="41.42642646096646785736083984375" lon="-8.45290501601994037628173828125">
        <ele>239.399993896484375</ele>
        <time>2020-11-25T15:26:32.000Z</time>
      </trkpt>
      <trkpt lat="41.42645470798015594482421875" lon="-8.452937789261341094970703125">
        <ele>239.8000030517578125</ele>
        <time>2020-11-25T15:26:34.000Z</time>
      </trkpt>
      <trkpt lat="41.42648580484092235565185546875" lon="-8.45296628773212432861328125">
        <ele>240.399993896484375</ele>
        <time>2020-11-25T15:26:36.000Z</time>
      </trkpt>
      <trkpt lat="41.42651212401688098907470703125" lon="-8.45299721695482730865478515625">
        <ele>241.1999969482421875</ele>
        <time>2020-11-25T15:26:38.000Z</time>
      </trkpt>
      <trkpt lat="41.426524110138416290283203125" lon="-8.453014902770519256591796875">
        <ele>241.399993896484375</ele>
        <time>2020-11-25T15:26:39.000Z</time>
      </trkpt>
      <trkpt lat="41.4265500940382480621337890625" lon="-8.4530512802302837371826171875">
        <ele>242</ele>
        <time>2020-11-25T15:26:41.000Z</time>
      </trkpt>
      <trkpt lat="41.426575072109699249267578125" lon="-8.4530849754810333251953125">
        <ele>242.600006103515625</ele>
        <time>2020-11-25T15:26:43.000Z</time>
      </trkpt>
      <trkpt lat="41.426601894199848175048828125" lon="-8.4531171619892120361328125">
        <ele>243.399993896484375</ele>
        <time>2020-11-25T15:26:45.000Z</time>
      </trkpt>
      <trkpt lat="41.4266258664429187774658203125" lon="-8.4531434811651706695556640625">
        <ele>244</ele>
        <time>2020-11-25T15:26:47.000Z</time>
      </trkpt>
      <trkpt lat="41.4266540296375751495361328125" lon="-8.45319318585097789764404296875">
        <ele>245</ele>
        <time>2020-11-25T15:26:50.000Z</time>
      </trkpt>
      <trkpt lat="41.42669384367763996124267578125" lon="-8.4532360173761844635009765625">
        <ele>246</ele>
        <time>2020-11-25T15:26:53.000Z</time>
      </trkpt>
      <trkpt lat="41.426709853112697601318359375" lon="-8.45324683003127574920654296875">
        <ele>246.399993896484375</ele>
        <time>2020-11-25T15:26:54.000Z</time>
      </trkpt>
      <trkpt lat="41.42678235657513141632080078125" lon="-8.45328019000589847564697265625">
        <ele>247.1999969482421875</ele>
        <time>2020-11-25T15:27:04.000Z</time>
      </trkpt>
      <trkpt lat="41.42678872682154178619384765625" lon="-8.453287146985530853271484375">
        <ele>247.600006103515625</ele>
        <time>2020-11-25T15:27:05.000Z</time>
      </trkpt>
      <trkpt lat="41.42681722529232501983642578125" lon="-8.45332209952175617218017578125">
        <ele>248.399993896484375</ele>
        <time>2020-11-25T15:27:08.000Z</time>
      </trkpt>
      <trkpt lat="41.42682946287095546722412109375" lon="-8.453334085643291473388671875">
        <ele>248.8000030517578125</ele>
        <time>2020-11-25T15:27:09.000Z</time>
      </trkpt>
      <trkpt lat="41.42687422223389148712158203125" lon="-8.4533679485321044921875">
        <ele>249.600006103515625</ele>
        <time>2020-11-25T15:27:12.000Z</time>
      </trkpt>
      <trkpt lat="41.4268934167921543121337890625" lon="-8.453379012644290924072265625">
        <ele>249.8000030517578125</ele>
        <time>2020-11-25T15:27:13.000Z</time>
      </trkpt>
      <trkpt lat="41.42693750560283660888671875" lon="-8.4534214250743389129638671875">
        <ele>250.8000030517578125</ele>
        <time>2020-11-25T15:27:16.000Z</time>
      </trkpt>
      <trkpt lat="41.42695150338113307952880859375" lon="-8.45343693159520626068115234375">
        <ele>251</ele>
        <time>2020-11-25T15:27:17.000Z</time>
      </trkpt>
      <trkpt lat="41.4269864559173583984375" lon="-8.45348252914845943450927734375">
        <ele>252.1999969482421875</ele>
        <time>2020-11-25T15:27:20.000Z</time>
      </trkpt>
      <trkpt lat="41.42700883559882640838623046875" lon="-8.4535337425768375396728515625">
        <ele>253.399993896484375</ele>
        <time>2020-11-25T15:27:23.000Z</time>
      </trkpt>
      <trkpt lat="41.4270077459514141082763671875" lon="-8.4536026418209075927734375">
        <ele>254.399993896484375</ele>
        <time>2020-11-25T15:27:27.000Z</time>
      </trkpt>
      <trkpt lat="41.42701520584523677825927734375" lon="-8.453653268516063690185546875">
        <ele>255.600006103515625</ele>
        <time>2020-11-25T15:27:31.000Z</time>
      </trkpt>
      <trkpt lat="41.4270322211086750030517578125" lon="-8.4537287056446075439453125">
        <ele>256.600006103515625</ele>
        <time>2020-11-25T15:27:37.000Z</time>
      </trkpt>
      <trkpt lat="41.4270630665123462677001953125" lon="-8.4538279473781585693359375">
        <ele>257.79998779296875</ele>
        <time>2020-11-25T15:27:43.000Z</time>
      </trkpt>
      <trkpt lat="41.42710338346660137176513671875" lon="-8.4539379179477691650390625">
        <ele>258.79998779296875</ele>
        <time>2020-11-25T15:27:49.000Z</time>
      </trkpt>
      <trkpt lat="41.4271259307861328125" lon="-8.4539682604372501373291015625">
        <ele>259.20001220703125</ele>
        <time>2020-11-25T15:27:51.000Z</time>
      </trkpt>
      <trkpt lat="41.42717127688229084014892578125" lon="-8.4540346451103687286376953125">
        <ele>260.20001220703125</ele>
        <time>2020-11-25T15:27:55.000Z</time>
      </trkpt>
      <trkpt lat="41.42720581032335758209228515625" lon="-8.45408342778682708740234375">
        <ele>261</ele>
        <time>2020-11-25T15:27:58.000Z</time>
      </trkpt>
      <trkpt lat="41.4272186346352100372314453125" lon="-8.4541000239551067352294921875">
        <ele>261.20001220703125</ele>
        <time>2020-11-25T15:27:59.000Z</time>
      </trkpt>
      <trkpt lat="41.4272692613303661346435546875" lon="-8.45416531898081302642822265625">
        <ele>262.399993896484375</ele>
        <time>2020-11-25T15:28:03.000Z</time>
      </trkpt>
      <trkpt lat="41.427298597991466522216796875" lon="-8.4542274288833141326904296875">
        <ele>263.600006103515625</ele>
        <time>2020-11-25T15:28:07.000Z</time>
      </trkpt>
      <trkpt lat="41.42730806954205036163330078125" lon="-8.45423656515777111053466796875">
        <ele>263.79998779296875</ele>
        <time>2020-11-25T15:28:08.000Z</time>
      </trkpt>
      <trkpt lat="41.427324749529361724853515625" lon="-8.454258777201175689697265625">
        <ele>264.399993896484375</ele>
        <time>2020-11-25T15:28:10.000Z</time>
      </trkpt>
      <trkpt lat="41.4273396693170070648193359375" lon="-8.4542785584926605224609375">
        <ele>265</ele>
        <time>2020-11-25T15:28:12.000Z</time>
      </trkpt>
      <trkpt lat="41.42736908979713916778564453125" lon="-8.454312421381473541259765625">
        <ele>265.600006103515625</ele>
        <time>2020-11-25T15:28:15.000Z</time>
      </trkpt>
      <trkpt lat="41.42738183028995990753173828125" lon="-8.454322479665279388427734375">
        <ele>265.79998779296875</ele>
        <time>2020-11-25T15:28:16.000Z</time>
      </trkpt>
      <trkpt lat="41.4274330437183380126953125" lon="-8.45436849631369113922119140625">
        <ele>266.79998779296875</ele>
        <time>2020-11-25T15:28:21.000Z</time>
      </trkpt>
      <trkpt lat="41.42747067846357822418212890625" lon="-8.45439481548964977264404296875">
        <ele>267.600006103515625</ele>
        <time>2020-11-25T15:28:24.000Z</time>
      </trkpt>
      <trkpt lat="41.4274871908128261566162109375" lon="-8.45440621487796306610107421875">
        <ele>268.20001220703125</ele>
        <time>2020-11-25T15:28:25.000Z</time>
      </trkpt>
      <trkpt lat="41.4275703392922878265380859375" lon="-8.45443856902420520782470703125">
        <ele>269</ele>
        <time>2020-11-25T15:28:30.000Z</time>
      </trkpt>
      <trkpt lat="41.42765206284821033477783203125" lon="-8.4544984996318817138671875">
        <ele>270.399993896484375</ele>
        <time>2020-11-25T15:28:35.000Z</time>
      </trkpt>
      <trkpt lat="41.4277688227593898773193359375" lon="-8.4545736014842987060546875">
        <ele>271.399993896484375</ele>
        <time>2020-11-25T15:28:41.000Z</time>
      </trkpt>
      <trkpt lat="41.42790905199944972991943359375" lon="-8.45463202334940433502197265625">
        <ele>272.600006103515625</ele>
        <time>2020-11-25T15:28:48.000Z</time>
      </trkpt>
      <trkpt lat="41.42794257961213588714599609375" lon="-8.45466001890599727630615234375">
        <ele>272.79998779296875</ele>
        <time>2020-11-25T15:28:50.000Z</time>
      </trkpt>
      <trkpt lat="41.42804123461246490478515625" lon="-8.45473227091133594512939453125">
        <ele>273.79998779296875</ele>
        <time>2020-11-25T15:28:56.000Z</time>
      </trkpt>
      <trkpt lat="41.4280849881470203399658203125" lon="-8.45476361922919750213623046875">
        <ele>275</ele>
        <time>2020-11-25T15:28:59.000Z</time>
      </trkpt>
      <trkpt lat="41.428117342293262481689453125" lon="-8.45480091869831085205078125">
        <ele>276</ele>
        <time>2020-11-25T15:29:02.000Z</time>
      </trkpt>
      <trkpt lat="41.42814910970628261566162109375" lon="-8.45485447905957698822021484375">
        <ele>277.20001220703125</ele>
        <time>2020-11-25T15:29:06.000Z</time>
      </trkpt>
      <trkpt lat="41.42814961262047290802001953125" lon="-8.45487467944622039794921875">
        <ele>277.399993896484375</ele>
        <time>2020-11-25T15:29:07.000Z</time>
      </trkpt>
      <trkpt lat="41.4281235449016094207763671875" lon="-8.45501239411532878875732421875">
        <ele>278.20001220703125</ele>
        <time>2020-11-25T15:29:12.000Z</time>
      </trkpt>
      <trkpt lat="41.42810669727623462677001953125" lon="-8.45510794781148433685302734375">
        <ele>279.399993896484375</ele>
        <time>2020-11-25T15:29:16.000Z</time>
      </trkpt>
      <trkpt lat="41.42806009389460086822509765625" lon="-8.4552516974508762359619140625">
        <ele>280.399993896484375</ele>
        <time>2020-11-25T15:29:22.000Z</time>
      </trkpt>
      <trkpt lat="41.4280571602284908294677734375" lon="-8.45535119064152240753173828125">
        <ele>281.79998779296875</ele>
        <time>2020-11-25T15:29:26.000Z</time>
      </trkpt>
      <trkpt lat="41.428022794425487518310546875" lon="-8.45560063607990741729736328125">
        <ele>281.20001220703125</ele>
        <time>2020-11-25T15:29:35.000Z</time>
      </trkpt>
      <trkpt lat="41.42800594680011272430419921875" lon="-8.45575301907956600189208984375">
        <ele>280.600006103515625</ele>
        <time>2020-11-25T15:29:40.000Z</time>
      </trkpt>
      <trkpt lat="41.42797761596739292144775390625" lon="-8.45585913397371768951416015625">
        <ele>280.600006103515625</ele>
        <time>2020-11-25T15:29:43.000Z</time>
      </trkpt>
      <trkpt lat="41.42792715691030025482177734375" lon="-8.45601419918239116668701171875">
        <ele>279.600006103515625</ele>
        <time>2020-11-25T15:29:49.000Z</time>
      </trkpt>
      <trkpt lat="41.42787887714803218841552734375" lon="-8.4560811705887317657470703125">
        <ele>278.399993896484375</ele>
        <time>2020-11-25T15:29:54.000Z</time>
      </trkpt>
      <trkpt lat="41.42784602008759975433349609375" lon="-8.45612567849457263946533203125">
        <ele>277.600006103515625</ele>
        <time>2020-11-25T15:29:57.000Z</time>
      </trkpt>
      <trkpt lat="41.4278300106525421142578125" lon="-8.45613808371126651763916015625">
        <ele>277.20001220703125</ele>
        <time>2020-11-25T15:29:58.000Z</time>
      </trkpt>
      <trkpt lat="41.427798829972743988037109375" lon="-8.45617446117103099822998046875">
        <ele>276.600006103515625</ele>
        <time>2020-11-25T15:30:01.000Z</time>
      </trkpt>
      <trkpt lat="41.4277849160134792327880859375" lon="-8.4562011994421482086181640625">
        <ele>276.20001220703125</ele>
        <time>2020-11-25T15:30:03.000Z</time>
      </trkpt>
      <trkpt lat="41.427776701748371124267578125" lon="-8.45621134154498577117919921875">
        <ele>275.79998779296875</ele>
        <time>2020-11-25T15:30:04.000Z</time>
      </trkpt>
      <trkpt lat="41.4277466945350170135498046875" lon="-8.45624989829957485198974609375">
        <ele>275.20001220703125</ele>
        <time>2020-11-25T15:30:07.000Z</time>
      </trkpt>
      <trkpt lat="41.4277356304228305816650390625" lon="-8.45626515336334705352783203125">
        <ele>275</ele>
        <time>2020-11-25T15:30:08.000Z</time>
      </trkpt>
      <trkpt lat="41.42771425656974315643310546875" lon="-8.45629314891993999481201171875">
        <ele>274.399993896484375</ele>
        <time>2020-11-25T15:30:10.000Z</time>
      </trkpt>
      <trkpt lat="41.42768810503184795379638671875" lon="-8.4563329629600048065185546875">
        <ele>273.79998779296875</ele>
        <time>2020-11-25T15:30:13.000Z</time>
      </trkpt>
      <trkpt lat="41.4276739396154880523681640625" lon="-8.45635618083178997039794921875">
        <ele>273.399993896484375</ele>
        <time>2020-11-25T15:30:15.000Z</time>
      </trkpt>
      <trkpt lat="41.4276565052568912506103515625" lon="-8.4563866071403026580810546875">
        <ele>273</ele>
        <time>2020-11-25T15:30:17.000Z</time>
      </trkpt>
      <trkpt lat="41.4276471175253391265869140625" lon="-8.45640077255666255950927734375">
        <ele>272.600006103515625</ele>
        <time>2020-11-25T15:30:18.000Z</time>
      </trkpt>
      <trkpt lat="41.42759674228727817535400390625" lon="-8.4565019421279430389404296875">
        <ele>271.399993896484375</ele>
        <time>2020-11-25T15:30:24.000Z</time>
      </trkpt>
      <trkpt lat="41.42757679335772991180419921875" lon="-8.4565448574721813201904296875">
        <ele>271</ele>
        <time>2020-11-25T15:30:26.000Z</time>
      </trkpt>
      <trkpt lat="41.42754896543920040130615234375" lon="-8.45659397542476654052734375">
        <ele>270.20001220703125</ele>
        <time>2020-11-25T15:30:29.000Z</time>
      </trkpt>
      <trkpt lat="41.42753924243152141571044921875" lon="-8.456639237701892852783203125">
        <ele>269.399993896484375</ele>
        <time>2020-11-25T15:30:32.000Z</time>
      </trkpt>
      <trkpt lat="41.42753555439412593841552734375" lon="-8.45667234621942043304443359375">
        <ele>269</ele>
        <time>2020-11-25T15:30:34.000Z</time>
      </trkpt>
      <trkpt lat="41.4275260828435420989990234375" lon="-8.45675918273627758026123046875">
        <ele>268.20001220703125</ele>
        <time>2020-11-25T15:30:40.000Z</time>
      </trkpt>
      <trkpt lat="41.42752566374838352203369140625" lon="-8.45676890574395656585693359375">
        <ele>267.600006103515625</ele>
        <time>2020-11-25T15:30:41.000Z</time>
      </trkpt>
      <trkpt lat="41.4275183714926242828369140625" lon="-8.456809222698211669921875">
        <ele>267</ele>
        <time>2020-11-25T15:30:45.000Z</time>
      </trkpt>
      <trkpt lat="41.42750940285623073577880859375" lon="-8.4568191133439540863037109375">
        <ele>266.600006103515625</ele>
        <time>2020-11-25T15:30:47.000Z</time>
      </trkpt>
      <trkpt lat="41.42748526297509670257568359375" lon="-8.456852473318576812744140625">
        <ele>266.20001220703125</ele>
        <time>2020-11-25T15:30:51.000Z</time>
      </trkpt>
      <trkpt lat="41.42745944671332836151123046875" lon="-8.45687703229486942291259765625">
        <ele>265.600006103515625</ele>
        <time>2020-11-25T15:30:53.000Z</time>
      </trkpt>
      <trkpt lat="41.42739507369697093963623046875" lon="-8.45692120492458343505859375">
        <ele>265.20001220703125</ele>
        <time>2020-11-25T15:30:57.000Z</time>
      </trkpt>
      <trkpt lat="41.42731930129230022430419921875" lon="-8.45697510056197643280029296875">
        <ele>264.600006103515625</ele>
        <time>2020-11-25T15:31:02.000Z</time>
      </trkpt>
      <trkpt lat="41.42725668847560882568359375" lon="-8.4569998271763324737548828125">
        <ele>263.600006103515625</ele>
        <time>2020-11-25T15:31:07.000Z</time>
      </trkpt>
      <trkpt lat="41.42720430158078670501708984375" lon="-8.45700091682374477386474609375">
        <ele>263</ele>
        <time>2020-11-25T15:31:11.000Z</time>
      </trkpt>
      <trkpt lat="41.4271857775747776031494140625" lon="-8.45700913108885288238525390625">
        <ele>262.399993896484375</ele>
        <time>2020-11-25T15:31:13.000Z</time>
      </trkpt>
      <trkpt lat="41.42717815004289150238037109375" lon="-8.4570105560123920440673828125">
        <ele>262.600006103515625</ele>
        <time>2020-11-25T15:31:14.000Z</time>
      </trkpt>
      <trkpt lat="41.42640433274209499359130859375" lon="-8.45619793049991130828857421875">
        <ele>257.399993896484375</ele>
        <time>2020-11-25T15:34:28.000Z</time>
      </trkpt>
      <trkpt lat="41.426398716866970062255859375" lon="-8.456196673214435577392578125">
        <ele>257.399993896484375</ele>
        <time>2020-11-25T15:34:29.000Z</time>
      </trkpt>
      <trkpt lat="41.4263623394072055816650390625" lon="-8.45617429353296756744384765625">
        <ele>256.600006103515625</ele>
        <time>2020-11-25T15:34:32.000Z</time>
      </trkpt>
      <trkpt lat="41.42631900496780872344970703125" lon="-8.4561274386942386627197265625">
        <ele>256.600006103515625</ele>
        <time>2020-11-25T15:34:34.000Z</time>
      </trkpt>
      <trkpt lat="41.42629452981054782867431640625" lon="-8.45610522665083408355712890625">
        <ele>256.20001220703125</ele>
        <time>2020-11-25T15:34:35.000Z</time>
      </trkpt>
      <trkpt lat="41.426216997206211090087890625" lon="-8.456062562763690948486328125">
        <ele>255.8000030517578125</ele>
        <time>2020-11-25T15:34:38.000Z</time>
      </trkpt>
      <trkpt lat="41.4261294901371002197265625" lon="-8.45603280700743198394775390625">
        <ele>255.8000030517578125</ele>
        <time>2020-11-25T15:34:41.000Z</time>
      </trkpt>
      <trkpt lat="41.426051370799541473388671875" lon="-8.4560033865272998809814453125">
        <ele>256.600006103515625</ele>
        <time>2020-11-25T15:34:44.000Z</time>
      </trkpt>
      <trkpt lat="41.42597501166164875030517578125" lon="-8.4559802524745464324951171875">
        <ele>257</ele>
        <time>2020-11-25T15:34:47.000Z</time>
      </trkpt>
      <trkpt lat="41.4259224571287631988525390625" lon="-8.45597061328589916229248046875">
        <ele>257</ele>
        <time>2020-11-25T15:34:49.000Z</time>
      </trkpt>
      <trkpt lat="41.42584123648703098297119140625" lon="-8.45598771236836910247802734375">
        <ele>256.600006103515625</ele>
        <time>2020-11-25T15:34:52.000Z</time>
      </trkpt>
      <trkpt lat="41.425648033618927001953125" lon="-8.456075303256511688232421875">
        <ele>256</ele>
        <time>2020-11-25T15:34:59.000Z</time>
      </trkpt>
      <trkpt lat="41.42547377385199069976806640625" lon="-8.4561830945312976837158203125">
        <ele>255.1999969482421875</ele>
        <time>2020-11-25T15:35:06.000Z</time>
      </trkpt>
      <trkpt lat="41.425448544323444366455078125" lon="-8.45619860105216503143310546875">
        <ele>255</ele>
        <time>2020-11-25T15:35:07.000Z</time>
      </trkpt>
      <trkpt lat="41.42529121600091457366943359375" lon="-8.45635198988020420074462890625">
        <ele>254</ele>
        <time>2020-11-25T15:35:14.000Z</time>
      </trkpt>
      <trkpt lat="41.425218544900417327880859375" lon="-8.45642231404781341552734375">
        <ele>253.8000030517578125</ele>
        <time>2020-11-25T15:35:17.000Z</time>
      </trkpt>
      <trkpt lat="41.4250832609832286834716796875" lon="-8.45662079751491546630859375">
        <ele>253.399993896484375</ele>
        <time>2020-11-25T15:35:24.000Z</time>
      </trkpt>
      <trkpt lat="41.4250316284596920013427734375" lon="-8.456698916852474212646484375">
        <ele>252.8000030517578125</ele>
        <time>2020-11-25T15:35:27.000Z</time>
      </trkpt>
      <trkpt lat="41.42490162514150142669677734375" lon="-8.45690268091857433319091796875">
        <ele>251.8000030517578125</ele>
        <time>2020-11-25T15:35:34.000Z</time>
      </trkpt>
      <trkpt lat="41.4248827658593654632568359375" lon="-8.45693268813192844390869140625">
        <ele>251.600006103515625</ele>
        <time>2020-11-25T15:35:35.000Z</time>
      </trkpt>
      <trkpt lat="41.4247902296483516693115234375" lon="-8.457116000354290008544921875">
        <ele>250.600006103515625</ele>
        <time>2020-11-25T15:35:41.000Z</time>
      </trkpt>
      <trkpt lat="41.42473968677222728729248046875" lon="-8.4572499431669712066650390625">
        <ele>250</ele>
        <time>2020-11-25T15:35:45.000Z</time>
      </trkpt>
      <trkpt lat="41.424709260463714599609375" lon="-8.45731238834559917449951171875">
        <ele>249.600006103515625</ele>
        <time>2020-11-25T15:35:47.000Z</time>
      </trkpt>
      <trkpt lat="41.424627117812633514404296875" lon="-8.45745806582272052764892578125">
        <ele>248.399993896484375</ele>
        <time>2020-11-25T15:35:52.000Z</time>
      </trkpt>
      <trkpt lat="41.42453416250646114349365234375" lon="-8.457596786320209503173828125">
        <ele>247</ele>
        <time>2020-11-25T15:35:57.000Z</time>
      </trkpt>
      <trkpt lat="41.42444908618927001953125" lon="-8.45768404193222522735595703125">
        <ele>246</ele>
        <time>2020-11-25T15:36:01.000Z</time>
      </trkpt>
      <trkpt lat="41.42428019084036350250244140625" lon="-8.4577987901866436004638671875">
        <ele>245.1999969482421875</ele>
        <time>2020-11-25T15:36:08.000Z</time>
      </trkpt>
      <trkpt lat="41.4242085255682468414306640625" lon="-8.4578477405011653900146484375">
        <ele>245</ele>
        <time>2020-11-25T15:36:11.000Z</time>
      </trkpt>
      <trkpt lat="41.42403812147676944732666015625" lon="-8.45777976326644420623779296875">
        <ele>244</ele>
        <time>2020-11-25T15:36:18.000Z</time>
      </trkpt>
      <trkpt lat="41.4240150712430477142333984375" lon="-8.457761071622371673583984375">
        <ele>243.8000030517578125</ele>
        <time>2020-11-25T15:36:19.000Z</time>
      </trkpt>
      <trkpt lat="41.42385707236826419830322265625" lon="-8.45762235112488269805908203125">
        <ele>242.8000030517578125</ele>
        <time>2020-11-25T15:36:26.000Z</time>
      </trkpt>
      <trkpt lat="41.4238335192203521728515625" lon="-8.45760407857596874237060546875">
        <ele>242.600006103515625</ele>
        <time>2020-11-25T15:36:27.000Z</time>
      </trkpt>
      <trkpt lat="41.42373092472553253173828125" lon="-8.457523696124553680419921875">
        <ele>241.600006103515625</ele>
        <time>2020-11-25T15:36:31.000Z</time>
      </trkpt>
      <trkpt lat="41.42362623475492000579833984375" lon="-8.4574730694293975830078125">
        <ele>241</ele>
        <time>2020-11-25T15:36:35.000Z</time>
      </trkpt>
      <trkpt lat="41.42354425974190235137939453125" lon="-8.45745638944208621978759765625">
        <ele>240.600006103515625</ele>
        <time>2020-11-25T15:36:38.000Z</time>
      </trkpt>
      <trkpt lat="41.4233560860157012939453125" lon="-8.45744968391954898834228515625">
        <ele>239.8000030517578125</ele>
        <time>2020-11-25T15:36:45.000Z</time>
      </trkpt>
      <trkpt lat="41.4232731051743030548095703125" lon="-8.45745253376662731170654296875">
        <ele>239.399993896484375</ele>
        <time>2020-11-25T15:36:48.000Z</time>
      </trkpt>
      <trkpt lat="41.42308677546679973602294921875" lon="-8.45743023790419101715087890625">
        <ele>239.399993896484375</ele>
        <time>2020-11-25T15:36:55.000Z</time>
      </trkpt>
      <trkpt lat="41.42290790565311908721923828125" lon="-8.457343988120555877685546875">
        <ele>240.600006103515625</ele>
        <time>2020-11-25T15:37:03.000Z</time>
      </trkpt>
      <trkpt lat="41.4227886311709880828857421875" lon="-8.45726913772523403167724609375">
        <ele>241.600006103515625</ele>
        <time>2020-11-25T15:37:09.000Z</time>
      </trkpt>
      <trkpt lat="41.42268343828618526458740234375" lon="-8.45726762898266315460205078125">
        <ele>242.8000030517578125</ele>
        <time>2020-11-25T15:37:14.000Z</time>
      </trkpt>
      <trkpt lat="41.42262040637433528900146484375" lon="-8.45728439278900623321533203125">
        <ele>243.600006103515625</ele>
        <time>2020-11-25T15:37:17.000Z</time>
      </trkpt>
      <trkpt lat="41.4226002059876918792724609375" lon="-8.45730015076696872711181640625">
        <ele>243.8000030517578125</ele>
        <time>2020-11-25T15:37:18.000Z</time>
      </trkpt>
      <trkpt lat="41.4225810952484607696533203125" lon="-8.4573173336684703826904296875">
        <ele>243.8000030517578125</ele>
        <time>2020-11-25T15:37:19.000Z</time>
      </trkpt>
      <trkpt lat="41.42252518795430660247802734375" lon="-8.4573706425726413726806640625">
        <ele>244.399993896484375</ele>
        <time>2020-11-25T15:37:22.000Z</time>
      </trkpt>
      <trkpt lat="41.42248428426682949066162109375" lon="-8.457435183227062225341796875">
        <ele>245.1999969482421875</ele>
        <time>2020-11-25T15:37:25.000Z</time>
      </trkpt>
      <trkpt lat="41.42248026095330715179443359375" lon="-8.4575084410607814788818359375">
        <ele>246.1999969482421875</ele>
        <time>2020-11-25T15:37:29.000Z</time>
      </trkpt>
      <trkpt lat="41.42249903641641139984130859375" lon="-8.4575744904577732086181640625">
        <ele>247.399993896484375</ele>
        <time>2020-11-25T15:37:33.000Z</time>
      </trkpt>
      <trkpt lat="41.42250557430088520050048828125" lon="-8.45758815295994281768798828125">
        <ele>247.8000030517578125</ele>
        <time>2020-11-25T15:37:34.000Z</time>
      </trkpt>
      <trkpt lat="41.422520913183689117431640625" lon="-8.45763240940868854522705078125">
        <ele>248.8000030517578125</ele>
        <time>2020-11-25T15:37:37.000Z</time>
      </trkpt>
      <trkpt lat="41.4225452207028865814208984375" lon="-8.4576891548931598663330078125">
        <ele>250</ele>
        <time>2020-11-25T15:37:41.000Z</time>
      </trkpt>
      <trkpt lat="41.4225663430988788604736328125" lon="-8.4577478282153606414794921875">
        <ele>251.399993896484375</ele>
        <time>2020-11-25T15:37:45.000Z</time>
      </trkpt>
      <trkpt lat="41.42258771695196628570556640625" lon="-8.45780440606176853179931640625">
        <ele>252.600006103515625</ele>
        <time>2020-11-25T15:37:49.000Z</time>
      </trkpt>
      <trkpt lat="41.4226042293012142181396484375" lon="-8.45787129364907741546630859375">
        <ele>253.8000030517578125</ele>
        <time>2020-11-25T15:37:53.000Z</time>
      </trkpt>
      <trkpt lat="41.42261822707951068878173828125" lon="-8.4579178132116794586181640625">
        <ele>254.8000030517578125</ele>
        <time>2020-11-25T15:37:56.000Z</time>
      </trkpt>
      <trkpt lat="41.422636918723583221435546875" lon="-8.4579734690487384796142578125">
        <ele>256.20001220703125</ele>
        <time>2020-11-25T15:38:00.000Z</time>
      </trkpt>
      <trkpt lat="41.42265208996832370758056640625" lon="-8.4580294601619243621826171875">
        <ele>257.399993896484375</ele>
        <time>2020-11-25T15:38:04.000Z</time>
      </trkpt>
      <trkpt lat="41.42266608774662017822265625" lon="-8.458092994987964630126953125">
        <ele>258.600006103515625</ele>
        <time>2020-11-25T15:38:08.000Z</time>
      </trkpt>
      <trkpt lat="41.42267857678234577178955078125" lon="-8.45813582651317119598388671875">
        <ele>259.79998779296875</ele>
        <time>2020-11-25T15:38:11.000Z</time>
      </trkpt>
      <trkpt lat="41.42269869334995746612548828125" lon="-8.458190225064754486083984375">
        <ele>261</ele>
        <time>2020-11-25T15:38:15.000Z</time>
      </trkpt>
      <trkpt lat="41.42271227203309535980224609375" lon="-8.4582420252263545989990234375">
        <ele>262.399993896484375</ele>
        <time>2020-11-25T15:38:19.000Z</time>
      </trkpt>
      <trkpt lat="41.42273473553359508514404296875" lon="-8.45828854478895664215087890625">
        <ele>263.600006103515625</ele>
        <time>2020-11-25T15:38:23.000Z</time>
      </trkpt>
      <trkpt lat="41.422751247882843017578125" lon="-8.45832408405840396881103515625">
        <ele>264.600006103515625</ele>
        <time>2020-11-25T15:38:26.000Z</time>
      </trkpt>
      <trkpt lat="41.42276708967983722686767578125" lon="-8.4583617188036441802978515625">
        <ele>265.600006103515625</ele>
        <time>2020-11-25T15:38:29.000Z</time>
      </trkpt>
      <trkpt lat="41.422786451876163482666015625" lon="-8.458414189517498016357421875">
        <ele>267</ele>
        <time>2020-11-25T15:38:33.000Z</time>
      </trkpt>
      <trkpt lat="41.42280765809118747711181640625" lon="-8.458459116518497467041015625">
        <ele>268.20001220703125</ele>
        <time>2020-11-25T15:38:37.000Z</time>
      </trkpt>
      <trkpt lat="41.42282408662140369415283203125" lon="-8.4584931470453739166259765625">
        <ele>269.399993896484375</ele>
        <time>2020-11-25T15:38:40.000Z</time>
      </trkpt>
      <trkpt lat="41.42284587956964969635009765625" lon="-8.458546958863735198974609375">
        <ele>270.79998779296875</ele>
        <time>2020-11-25T15:38:44.000Z</time>
      </trkpt>
      <trkpt lat="41.422848142683506011962890625" lon="-8.4586078114807605743408203125">
        <ele>272.20001220703125</ele>
        <time>2020-11-25T15:38:47.000Z</time>
      </trkpt>
      <trkpt lat="41.4228503219783306121826171875" lon="-8.45864393748342990875244140625">
        <ele>272.79998779296875</ele>
        <time>2020-11-25T15:38:50.000Z</time>
      </trkpt>
    </trkseg>
  </trk>
</gpx>
